Time,TemperatureF,DewpointF,PressureIn,WindDirection,WindDirectionDegrees,WindSpeedMPH,WindSpeedGustMPH,Humidity,HourlyPrecipIn,Conditions,Clouds,dailyrainin,SoftwareType,DateUTC
2013-08-09 00:00:00,77.7,73.9,29.94,SSW,211,3.2,4.8,88,0.00,,,0.00,VWS V14.01,2013-08-09 04:00:00,
2013-08-09 00:01:00,77.7,73.9,29.94,SSW,204,4.8,4.8,88,0.00,,,0.00,VWS V14.01,2013-08-09 04:01:00,
2013-08-09 00:02:00,77.7,73.9,29.94,SW,222,1.6,4.8,88,0.00,,,0.00,VWS V14.01,2013-08-09 04:02:00,
2013-08-09 00:03:00,77.7,73.9,29.94,SW,227,6.4,6.4,88,0.00,,,0.00,VWS V14.01,2013-08-09 04:03:00,
2013-08-09 00:04:00,77.6,74.1,29.94,SW,234,0.0,8.0,89,0.00,,,0.00,VWS V14.01,2013-08-09 04:04:00,
2013-08-09 00:05:00,77.6,74.1,29.95,SW,229,3.2,8.0,89,0.00,,,0.00,VWS V14.01,2013-08-09 04:05:00,
2013-08-09 00:06:00,77.6,74.1,29.94,SW,225,1.6,6.4,89,0.00,,,0.00,VWS V14.01,2013-08-09 04:06:00,
2013-08-09 00:07:00,77.6,74.1,29.95,SW,229,1.6,11.2,89,0.00,,,0.00,VWS V14.01,2013-08-09 04:07:00,
2013-08-09 00:08:00,77.5,74.0,29.95,SW,225,3.2,11.2,89,0.00,,,0.00,VWS V14.01,2013-08-09 04:08:00,
2013-08-09 00:09:00,77.5,74.0,29.95,SW,218,4.8,8.0,89,0.00,,,0.00,VWS V14.01,2013-08-09 04:09:00,
2013-08-09 00:10:00,77.5,74.0,29.95,SSW,207,3.2,8.0,89,0.00,,,0.00,VWS V14.01,2013-08-09 04:10:00,
2013-08-09 00:11:00,77.5,74.0,29.95,SW,216,8.0,8.0,89,0.00,,,0.00,VWS V14.01,2013-08-09 04:11:00,
2013-08-09 00:12:00,77.4,73.9,29.95,SW,231,6.4,16.0,89,0.00,,,0.00,VWS V14.01,2013-08-09 04:12:00,
2013-08-09 00:13:00,77.4,73.9,29.95,SW,233,8.0,16.0,89,0.00,,,0.00,VWS V14.01,2013-08-09 04:13:00,
2013-08-09 00:14:00,77.4,73.9,29.95,SSW,206,9.6,16.0,89,0.00,,,0.00,VWS V14.01,2013-08-09 04:14:00,
2013-08-09 00:15:00,77.4,73.9,29.95,ESE,113,3.2,11.2,89,0.00,,,0.00,VWS V14.01,2013-08-09 04:15:00,
2013-08-09 00:16:00,77.4,73.9,29.95,West,268,1.6,9.6,89,0.00,,,0.00,VWS V14.01,2013-08-09 04:16:00,
2013-08-09 00:17:00,77.3,73.8,29.95,SW,215,6.4,6.4,89,0.00,,,0.00,VWS V14.01,2013-08-09 04:17:00,
2013-08-09 00:18:00,77.3,73.8,29.95,WSW,242,8.0,9.6,89,0.00,,,0.00,VWS V14.01,2013-08-09 04:18:00,
2013-08-09 00:19:00,77.3,73.8,29.95,SW,224,4.8,9.6,89,0.00,,,0.00,VWS V14.01,2013-08-09 04:19:00,
2013-08-09 00:20:00,77.3,73.8,29.95,SSW,212,4.8,9.6,89,0.00,,,0.00,VWS V14.01,2013-08-09 04:20:00,
2013-08-09 00:21:00,77.3,73.8,29.95,WSW,245,3.2,6.4,89,0.00,,,0.00,VWS V14.01,2013-08-09 04:21:00,
2013-08-09 00:22:00,77.2,73.7,29.95,SW,221,6.4,11.2,89,0.00,,,0.00,VWS V14.01,2013-08-09 04:22:00,
2013-08-09 00:23:00,77.2,73.7,29.95,WSW,247,6.4,11.2,89,0.00,,,0.00,VWS V14.01,2013-08-09 04:23:00,
2013-08-09 00:24:00,77.2,73.7,29.95,WSW,247,4.8,9.6,89,0.00,,,0.00,VWS V14.01,2013-08-09 04:24:00,
2013-08-09 00:25:00,77.2,73.7,29.95,WSW,239,9.6,9.6,89,0.00,,,0.00,VWS V14.01,2013-08-09 04:25:00,
2013-08-09 00:26:00,77.1,73.6,29.95,SSW,213,9.6,11.2,89,0.00,,,0.00,VWS V14.01,2013-08-09 04:26:00,
2013-08-09 00:27:00,77.1,73.6,29.95,SW,229,8.0,12.8,89,0.00,,,0.00,VWS V14.01,2013-08-09 04:27:00,
2013-08-09 00:28:00,77.1,73.6,29.95,SSW,212,8.0,12.8,89,0.00,,,0.00,VWS V14.01,2013-08-09 04:28:00,
2013-08-09 00:29:00,77.1,73.6,29.95,West,260,6.4,9.6,89,0.00,,,0.00,VWS V14.01,2013-08-09 04:29:00,
2013-08-09 00:30:00,77.0,73.5,29.95,SSW,206,11.2,11.2,89,0.00,,,0.00,VWS V14.01,2013-08-09 04:30:00,
2013-08-09 00:31:00,77.0,73.5,29.95,SW,218,8.0,12.8,89,0.00,,,0.00,VWS V14.01,2013-08-09 04:31:00,
2013-08-09 00:32:00,77.0,73.5,29.95,WSW,238,9.6,12.8,89,0.00,,,0.00,VWS V14.01,2013-08-09 04:32:00,
2013-08-09 00:33:00,77.0,73.5,29.95,SSW,205,6.4,11.2,89,0.00,,,0.00,VWS V14.01,2013-08-09 04:33:00,
2013-08-09 00:34:00,76.9,73.4,29.95,SW,236,3.2,11.2,89,0.00,,,0.00,VWS V14.01,2013-08-09 04:34:00,
2013-08-09 00:35:00,76.9,73.4,29.95,SW,222,6.4,9.6,89,0.00,,,0.00,VWS V14.01,2013-08-09 04:35:00,
2013-08-09 00:36:00,76.9,73.4,29.95,WSW,239,1.6,9.6,89,0.00,,,0.00,VWS V14.01,2013-08-09 04:36:00,
2013-08-09 00:37:00,76.9,73.4,29.95,WSW,248,4.8,8.0,89,0.00,,,0.00,VWS V14.01,2013-08-09 04:37:00,
2013-08-09 00:38:00,76.9,73.4,29.95,SW,236,11.2,11.2,89,0.00,,,0.00,VWS V14.01,2013-08-09 04:38:00,
2013-08-09 00:39:00,76.8,73.3,29.95,SSW,213,4.8,11.2,89,0.00,,,0.00,VWS V14.01,2013-08-09 04:39:00,
2013-08-09 00:40:00,76.8,73.3,29.95,SW,218,4.8,9.6,89,0.00,,,0.00,VWS V14.01,2013-08-09 04:40:00,
2013-08-09 00:41:00,76.8,73.3,29.95,SW,236,3.2,8.0,89,0.00,,,0.00,VWS V14.01,2013-08-09 04:41:00,
2013-08-09 00:42:00,76.7,73.6,29.95,SSW,210,3.2,6.4,90,0.00,,,0.00,VWS V14.01,2013-08-09 04:42:00,
2013-08-09 00:43:00,76.7,73.6,29.95,SW,222,8.0,8.0,90,0.00,,,0.00,VWS V14.01,2013-08-09 04:43:00,
2013-08-09 00:44:00,76.6,73.4,29.95,SSW,206,3.2,8.0,90,0.00,,,0.00,VWS V14.01,2013-08-09 04:44:00,
2013-08-09 00:45:00,76.6,73.4,29.95,SSW,197,4.8,8.0,90,0.00,,,0.00,VWS V14.01,2013-08-09 04:45:00,
2013-08-09 00:46:00,76.6,73.4,29.95,SSW,199,8.0,9.6,90,0.00,,,0.00,VWS V14.01,2013-08-09 04:46:00,
2013-08-09 00:47:00,76.5,73.3,29.95,South,187,6.4,9.6,90,0.00,,,0.00,VWS V14.01,2013-08-09 04:47:00,
2013-08-09 00:48:00,76.5,73.3,29.95,SSW,205,1.6,9.6,90,0.00,,,0.00,VWS V14.01,2013-08-09 04:48:00,
2013-08-09 00:49:00,76.5,73.3,29.95,SSE,165,4.8,12.8,90,0.00,,,0.00,VWS V14.01,2013-08-09 04:49:00,
2013-08-09 00:50:00,76.4,73.2,29.95,SW,215,4.8,12.8,90,0.00,,,0.00,VWS V14.01,2013-08-09 04:50:00,
2013-08-09 00:51:00,76.4,73.2,29.95,SSW,212,3.2,12.8,90,0.00,,,0.00,VWS V14.01,2013-08-09 04:51:00,
2013-08-09 00:52:00,76.4,73.2,29.95,SW,229,6.4,6.4,90,0.00,,,0.00,VWS V14.01,2013-08-09 04:52:00,
2013-08-09 00:53:00,76.4,73.6,29.95,SSW,205,3.2,6.4,91,0.00,,,0.00,VWS V14.01,2013-08-09 04:53:00,
2013-08-09 00:54:00,76.3,73.2,29.95,SW,215,8.0,11.2,90,0.00,,,0.00,VWS V14.01,2013-08-09 04:54:00,
2013-08-09 00:55:00,76.3,73.5,29.95,SW,225,9.6,11.2,91,0.00,,,0.00,VWS V14.01,2013-08-09 04:55:00,
2013-08-09 00:56:00,76.3,73.5,29.95,SSW,207,8.0,12.8,91,0.00,,,0.00,VWS V14.01,2013-08-09 04:56:00,
2013-08-09 00:57:00,76.2,73.1,29.95,SW,231,3.2,12.8,90,0.00,,,0.00,VWS V14.01,2013-08-09 04:57:00,
2013-08-09 00:58:00,76.2,73.4,29.95,SW,235,3.2,8.0,91,0.00,,,0.00,VWS V14.01,2013-08-09 04:58:00,
2013-08-09 00:59:00,76.2,73.4,29.95,SSW,198,6.4,8.0,91,0.00,,,0.00,VWS V14.01,2013-08-09 04:59:00,
2013-08-09 01:00:00,76.2,73.1,29.95,SW,220,6.4,9.6,90,0.00,,,0.00,VWS V14.01,2013-08-09 05:00:00,
2013-08-09 01:01:00,76.2,73.1,29.95,SW,227,6.4,9.6,90,0.00,,,0.00,VWS V14.01,2013-08-09 05:01:00,
2013-08-09 01:02:00,76.1,73.3,29.95,SSW,212,6.4,9.6,91,0.00,,,0.00,VWS V14.01,2013-08-09 05:02:00,
2013-08-09 01:03:00,76.1,73.3,29.95,SW,222,3.2,8.0,91,0.00,,,0.00,VWS V14.01,2013-08-09 05:03:00,
2013-08-09 01:04:00,76.1,73.3,29.95,SSW,206,4.8,8.0,91,0.00,,,0.00,VWS V14.01,2013-08-09 05:04:00,
2013-08-09 01:05:00,76.1,73.3,29.95,SW,229,6.4,11.2,91,0.00,,,0.00,VWS V14.01,2013-08-09 05:05:00,
2013-08-09 01:06:00,76.1,73.3,29.95,SSW,203,4.8,11.2,91,0.00,,,0.00,VWS V14.01,2013-08-09 05:06:00,
2013-08-09 01:07:00,76.0,73.2,29.95,SSW,213,3.2,8.0,91,0.00,,,0.00,VWS V14.01,2013-08-09 05:07:00,
2013-08-09 01:08:00,76.0,73.2,29.95,South,189,4.8,8.0,91,0.00,,,0.00,VWS V14.01,2013-08-09 05:08:00,
2013-08-09 01:09:00,76.0,73.2,29.95,SW,222,4.8,8.0,91,0.00,,,0.00,VWS V14.01,2013-08-09 05:09:00,
2013-08-09 01:10:00,75.9,73.1,29.95,WSW,240,4.8,8.0,91,0.00,,,0.00,VWS V14.01,2013-08-09 05:10:00,
2013-08-09 01:11:00,76.0,73.2,29.95,SSW,193,6.4,8.0,91,0.00,,,0.00,VWS V14.01,2013-08-09 05:11:00,
2013-08-09 01:12:00,75.9,73.1,29.95,South,182,3.2,8.0,91,0.00,,,0.00,VWS V14.01,2013-08-09 05:12:00,
2013-08-09 01:13:00,75.9,73.1,29.95,WSW,239,6.4,14.4,91,0.00,,,0.00,VWS V14.01,2013-08-09 05:13:00,
2013-08-09 01:14:00,75.9,73.1,29.95,SW,234,6.4,14.4,91,0.00,,,0.00,VWS V14.01,2013-08-09 05:14:00,
2013-08-09 01:15:00,75.9,73.1,29.95,SSW,212,6.4,9.6,91,0.00,,,0.00,VWS V14.01,2013-08-09 05:15:00,
2013-08-09 01:16:00,75.9,73.1,29.95,SW,220,3.2,9.6,91,0.00,,,0.00,VWS V14.01,2013-08-09 05:16:00,
2013-08-09 01:17:00,75.9,73.1,29.95,SW,227,1.6,8.0,91,0.00,,,0.00,VWS V14.01,2013-08-09 05:17:00,
2013-08-09 01:18:00,75.8,73.0,29.95,SW,232,6.4,9.6,91,0.00,,,0.00,VWS V14.01,2013-08-09 05:18:00,
2013-08-09 01:19:00,75.8,73.0,29.95,SSW,206,6.4,12.8,91,0.00,,,0.00,VWS V14.01,2013-08-09 05:19:00,
2013-08-09 01:20:00,75.8,73.0,29.95,SSW,201,4.8,12.8,91,0.00,,,0.00,VWS V14.01,2013-08-09 05:20:00,
2013-08-09 01:21:00,75.8,73.0,29.95,SSW,201,3.2,12.8,91,0.00,,,0.00,VWS V14.01,2013-08-09 05:21:00,
2013-08-09 01:22:00,75.8,73.0,29.95,SW,225,4.8,9.6,91,0.00,,,0.00,VWS V14.01,2013-08-09 05:22:00,
2013-08-09 01:23:00,75.8,73.0,29.95,WSW,250,4.8,9.6,91,0.00,,,0.00,VWS V14.01,2013-08-09 05:23:00,
2013-08-09 01:24:00,75.8,73.0,29.95,WSW,242,1.6,6.4,91,0.00,,,0.00,VWS V14.01,2013-08-09 05:24:00,
2013-08-09 01:25:00,75.7,72.9,29.95,WSW,253,4.8,8.0,91,0.00,,,0.00,VWS V14.01,2013-08-09 05:25:00,
2013-08-09 01:26:00,75.7,72.9,29.95,SW,222,8.0,8.0,91,0.00,,,0.00,VWS V14.01,2013-08-09 05:26:00,
2013-08-09 01:27:00,75.7,72.9,29.95,SSW,201,3.2,8.0,91,0.00,,,0.00,VWS V14.01,2013-08-09 05:27:00,
2013-08-09 01:28:00,75.7,72.9,29.95,SSW,204,3.2,6.4,91,0.00,,,0.00,VWS V14.01,2013-08-09 05:28:00,
2013-08-09 01:29:00,75.7,72.9,29.95,SW,231,8.0,8.0,91,0.00,,,0.00,VWS V14.01,2013-08-09 05:29:00,
2013-08-09 01:30:00,75.7,72.9,29.95,SW,218,6.4,8.0,91,0.00,,,0.00,VWS V14.01,2013-08-09 05:30:00,
2013-08-09 01:31:00,75.7,72.9,29.95,SW,229,8.0,8.0,91,0.00,,,0.00,VWS V14.01,2013-08-09 05:31:00,
2013-08-09 01:32:00,75.7,72.9,29.95,SSW,212,1.6,8.0,91,0.00,,,0.00,VWS V14.01,2013-08-09 05:32:00,
2013-08-09 01:33:00,75.7,72.9,29.95,WSW,245,6.4,8.0,91,0.00,,,0.00,VWS V14.01,2013-08-09 05:33:00,
2013-08-09 01:34:00,75.7,72.9,29.95,WSW,246,11.2,11.2,91,0.00,,,0.00,VWS V14.01,2013-08-09 05:34:00,
2013-08-09 01:35:00,75.7,72.9,29.95,SW,232,6.4,11.2,91,0.00,,,0.00,VWS V14.01,2013-08-09 05:35:00,
2013-08-09 01:36:00,75.7,72.9,29.95,WSW,243,6.4,11.2,91,0.00,,,0.00,VWS V14.01,2013-08-09 05:36:00,
2013-08-09 01:37:00,75.6,72.8,29.95,SSW,201,3.2,11.2,91,0.00,,,0.00,VWS V14.01,2013-08-09 05:37:00,
2013-08-09 01:38:00,75.6,72.8,29.95,SSW,197,1.6,11.2,91,0.00,,,0.00,VWS V14.01,2013-08-09 05:38:00,
2013-08-09 01:39:00,75.6,72.8,29.95,SW,225,4.8,8.0,91,0.00,,,0.00,VWS V14.01,2013-08-09 05:39:00,
2013-08-09 01:40:00,75.6,72.8,29.94,West,261,4.8,8.0,91,0.00,,,0.00,VWS V14.01,2013-08-09 05:40:00,
2013-08-09 01:41:00,75.6,72.8,29.95,SW,228,4.8,8.0,91,0.00,,,0.00,VWS V14.01,2013-08-09 05:41:00,
2013-08-09 01:42:00,75.6,72.8,29.95,SW,232,6.4,6.4,91,0.00,,,0.00,VWS V14.01,2013-08-09 05:42:00,
2013-08-09 01:43:00,75.5,72.7,29.95,SW,215,9.6,9.6,91,0.00,,,0.00,VWS V14.01,2013-08-09 05:43:00,
2013-08-09 01:44:00,75.5,72.7,29.95,WSW,248,6.4,9.6,91,0.00,,,0.00,VWS V14.01,2013-08-09 05:44:00,
2013-08-09 01:45:00,75.5,72.7,29.95,SW,224,6.4,9.6,91,0.00,,,0.00,VWS V14.01,2013-08-09 05:45:00,
2013-08-09 01:46:00,75.5,72.7,29.95,SSW,206,3.2,8.0,91,0.00,,,0.00,VWS V14.01,2013-08-09 05:46:00,
2013-08-09 01:47:00,75.5,72.7,29.95,SSW,201,6.4,8.0,91,0.00,,,0.00,VWS V14.01,2013-08-09 05:47:00,
2013-08-09 01:48:00,75.5,72.7,29.95,SSW,200,9.6,9.6,91,0.00,,,0.00,VWS V14.01,2013-08-09 05:48:00,
2013-08-09 01:49:00,75.5,72.7,29.95,SSE,166,3.2,9.6,91,0.00,,,0.00,VWS V14.01,2013-08-09 05:49:00,
2013-08-09 01:50:00,75.5,72.7,29.95,SSW,193,3.2,9.6,91,0.00,,,0.00,VWS V14.01,2013-08-09 05:50:00,
2013-08-09 01:51:00,75.5,72.7,29.95,SSW,198,1.6,9.6,91,0.00,,,0.00,VWS V14.01,2013-08-09 05:51:00,
2013-08-09 01:52:00,75.4,72.6,29.94,WSW,240,4.8,8.0,91,0.00,,,0.00,VWS V14.01,2013-08-09 05:52:00,
2013-08-09 01:53:00,75.5,72.7,29.95,South,190,8.0,8.0,91,0.00,,,0.00,VWS V14.01,2013-08-09 05:53:00,
2013-08-09 01:54:00,75.4,72.6,29.95,WSW,245,8.0,11.2,91,0.00,,,0.00,VWS V14.01,2013-08-09 05:54:00,
2013-08-09 01:55:00,75.4,72.6,29.94,SW,215,11.2,11.2,91,0.00,,,0.00,VWS V14.01,2013-08-09 05:55:00,
2013-08-09 01:56:00,75.4,72.6,29.94,SSW,200,6.4,11.2,91,0.00,,,0.00,VWS V14.01,2013-08-09 05:56:00,
2013-08-09 01:57:00,75.4,72.6,29.95,SSW,213,6.4,11.2,91,0.00,,,0.00,VWS V14.01,2013-08-09 05:57:00,
2013-08-09 01:58:00,75.4,72.6,29.95,West,274,4.8,9.6,91,0.00,,,0.00,VWS V14.01,2013-08-09 05:58:00,
2013-08-09 01:59:00,75.4,72.6,29.95,SW,221,8.0,9.6,91,0.00,,,0.00,VWS V14.01,2013-08-09 05:59:00,
2013-08-09 02:00:00,75.3,72.5,29.95,SSW,208,4.8,12.8,91,0.00,,,0.00,VWS V14.01,2013-08-09 06:00:00,
2013-08-09 02:01:00,75.3,72.5,29.95,SSW,205,3.2,12.8,91,0.00,,,0.00,VWS V14.01,2013-08-09 06:01:00,
2013-08-09 02:02:00,75.3,72.5,29.95,WSW,249,4.8,11.2,91,0.00,,,0.00,VWS V14.01,2013-08-09 06:02:00,
2013-08-09 02:03:00,75.3,72.5,29.95,WSW,239,6.4,11.2,91,0.00,,,0.00,VWS V14.01,2013-08-09 06:03:00,
2013-08-09 02:04:00,75.3,72.5,29.95,South,186,3.2,8.0,91,0.00,,,0.00,VWS V14.01,2013-08-09 06:04:00,
2013-08-09 02:05:00,75.3,72.5,29.95,WSW,239,8.0,8.0,91,0.00,,,0.00,VWS V14.01,2013-08-09 06:05:00,
2013-08-09 02:06:00,75.3,72.5,29.95,SW,232,6.4,8.0,91,0.00,,,0.00,VWS V14.01,2013-08-09 06:06:00,
2013-08-09 02:07:00,75.2,72.4,29.95,SW,234,3.2,8.0,91,0.00,,,0.00,VWS V14.01,2013-08-09 06:07:00,
2013-08-09 02:08:00,75.2,72.4,29.95,SW,218,6.4,9.6,91,0.00,,,0.00,VWS V14.01,2013-08-09 06:08:00,
2013-08-09 02:09:00,75.2,72.4,29.95,WSW,245,3.2,9.6,91,0.00,,,0.00,VWS V14.01,2013-08-09 06:09:00,
2013-08-09 02:10:00,75.2,72.4,29.95,West,260,12.8,14.4,91,0.00,,,0.00,VWS V14.01,2013-08-09 06:10:00,
2013-08-09 02:11:00,75.2,72.4,29.95,SW,231,4.8,14.4,91,0.00,,,0.00,VWS V14.01,2013-08-09 06:11:00,
2013-08-09 02:12:00,75.2,72.4,29.95,WSW,246,8.0,14.4,91,0.00,,,0.00,VWS V14.01,2013-08-09 06:12:00,
2013-08-09 02:13:00,75.2,72.4,29.95,WSW,238,4.8,9.6,91,0.00,,,0.00,VWS V14.01,2013-08-09 06:13:00,
2013-08-09 02:14:00,75.2,72.4,29.95,WSW,238,11.2,11.2,91,0.00,,,0.00,VWS V14.01,2013-08-09 06:14:00,
2013-08-09 02:15:00,75.2,72.4,29.95,SW,225,8.0,12.8,91,0.00,,,0.00,VWS V14.01,2013-08-09 06:15:00,
2013-08-09 02:16:00,75.2,72.4,29.95,SW,225,4.8,12.8,91,0.00,,,0.00,VWS V14.01,2013-08-09 06:16:00,
2013-08-09 02:17:00,75.2,72.4,29.95,SW,218,4.8,9.6,91,0.00,,,0.00,VWS V14.01,2013-08-09 06:17:00,
2013-08-09 02:18:00,75.2,72.4,29.95,SW,218,11.2,11.2,91,0.00,,,0.00,VWS V14.01,2013-08-09 06:18:00,
2013-08-09 02:19:00,75.1,72.3,29.95,SW,227,9.6,11.2,91,0.00,,,0.00,VWS V14.01,2013-08-09 06:19:00,
2013-08-09 02:20:00,75.2,72.4,29.95,WSW,238,6.4,9.6,91,0.00,,,0.00,VWS V14.01,2013-08-09 06:20:00,
2013-08-09 02:21:00,75.1,72.3,29.95,SSW,210,11.2,11.2,91,0.00,,,0.00,VWS V14.01,2013-08-09 06:21:00,
2013-08-09 02:22:00,75.1,72.3,29.95,SW,235,6.4,11.2,91,0.00,,,0.00,VWS V14.01,2013-08-09 06:22:00,
2013-08-09 02:23:00,75.1,72.3,29.95,SW,234,4.8,11.2,91,0.00,,,0.00,VWS V14.01,2013-08-09 06:23:00,
2013-08-09 02:24:00,75.1,72.3,29.95,SW,225,4.8,8.0,91,0.00,,,0.00,VWS V14.01,2013-08-09 06:24:00,
2013-08-09 02:25:00,75.1,72.3,29.95,WSW,240,1.6,8.0,91,0.00,,,0.00,VWS V14.01,2013-08-09 06:25:00,
2013-08-09 02:26:00,75.1,72.3,29.95,SW,218,9.6,9.6,91,0.00,,,0.00,VWS V14.01,2013-08-09 06:26:00,
2013-08-09 02:27:00,75.1,72.3,29.95,WSW,247,11.2,11.2,91,0.00,,,0.00,VWS V14.01,2013-08-09 06:27:00,
2013-08-09 02:28:00,75.1,72.3,29.95,WSW,256,4.8,11.2,91,0.00,,,0.00,VWS V14.01,2013-08-09 06:28:00,
2013-08-09 02:29:00,75.1,72.3,29.95,SW,222,4.8,9.6,91,0.00,,,0.00,VWS V14.01,2013-08-09 06:29:00,
2013-08-09 02:30:00,75.1,72.3,29.95,SW,222,6.4,6.4,91,0.00,,,0.00,VWS V14.01,2013-08-09 06:30:00,
2013-08-09 02:31:00,75.2,72.4,29.95,SSW,200,3.2,6.4,91,0.00,,,0.00,VWS V14.01,2013-08-09 06:31:00,
2013-08-09 02:32:00,75.1,72.3,29.95,SSW,213,9.6,9.6,91,0.00,,,0.00,VWS V14.01,2013-08-09 06:32:00,
2013-08-09 02:33:00,75.1,72.3,29.95,SW,236,3.2,9.6,91,0.00,,,0.00,VWS V14.01,2013-08-09 06:33:00,
2013-08-09 02:34:00,75.1,72.3,29.95,SW,233,1.6,8.0,91,0.00,,,0.00,VWS V14.01,2013-08-09 06:34:00,
2013-08-09 02:35:00,75.1,72.3,29.95,WSW,247,6.4,9.6,91,0.00,,,0.00,VWS V14.01,2013-08-09 06:35:00,
2013-08-09 02:36:00,75.1,72.3,29.95,WSW,248,4.8,9.6,91,0.00,,,0.00,VWS V14.01,2013-08-09 06:36:00,
2013-08-09 02:37:00,75.1,72.3,29.95,SW,231,4.8,8.0,91,0.00,,,0.00,VWS V14.01,2013-08-09 06:37:00,
2013-08-09 02:38:00,75.1,72.3,29.95,SSW,207,1.6,4.8,91,0.00,,,0.00,VWS V14.01,2013-08-09 06:38:00,
2013-08-09 02:39:00,75.1,72.3,29.95,WSW,241,6.4,8.0,91,0.00,,,0.00,VWS V14.01,2013-08-09 06:39:00,
2013-08-09 02:40:00,75.1,72.3,29.95,WSW,252,3.2,8.0,91,0.00,,,0.00,VWS V14.01,2013-08-09 06:40:00,
2013-08-09 02:41:00,75.1,72.3,29.95,WSW,241,3.2,6.4,91,0.00,,,0.00,VWS V14.01,2013-08-09 06:41:00,
2013-08-09 02:42:00,75.1,72.3,29.95,SW,235,3.2,4.8,91,0.00,,,0.00,VWS V14.01,2013-08-09 06:42:00,
2013-08-09 02:43:00,75.1,72.3,29.95,SW,234,6.4,9.6,91,0.00,,,0.00,VWS V14.01,2013-08-09 06:43:00,
2013-08-09 02:44:00,75.1,72.3,29.95,WSW,245,3.2,9.6,91,0.00,,,0.00,VWS V14.01,2013-08-09 06:44:00,
2013-08-09 02:45:00,75.1,72.3,29.95,WSW,256,4.8,4.8,91,0.00,,,0.00,VWS V14.01,2013-08-09 06:45:00,
2013-08-09 02:46:00,75.0,72.2,29.95,West,260,1.6,4.8,91,0.00,,,0.00,VWS V14.01,2013-08-09 06:46:00,
2013-08-09 02:47:00,75.0,72.2,29.95,SW,218,3.2,4.8,91,0.00,,,0.00,VWS V14.01,2013-08-09 06:47:00,
2013-08-09 02:48:00,75.0,72.2,29.94,SW,224,3.2,4.8,91,0.00,,,0.00,VWS V14.01,2013-08-09 06:48:00,
2013-08-09 02:49:00,75.0,72.2,29.95,SW,225,6.4,6.4,91,0.00,,,0.00,VWS V14.01,2013-08-09 06:49:00,
2013-08-09 02:50:00,75.0,72.2,29.95,SW,220,4.8,6.4,91,0.00,,,0.00,VWS V14.01,2013-08-09 06:50:00,
2013-08-09 02:51:00,75.0,72.5,29.95,SW,236,1.6,6.4,92,0.00,,,0.00,VWS V14.01,2013-08-09 06:51:00,
2013-08-09 02:52:00,75.0,72.5,29.95,WSW,240,3.2,4.8,92,0.00,,,0.00,VWS V14.01,2013-08-09 06:52:00,
2013-08-09 02:53:00,74.9,72.4,29.95,SW,225,1.6,4.8,92,0.00,,,0.00,VWS V14.01,2013-08-09 06:53:00,
2013-08-09 02:54:00,74.9,72.4,29.95,SSW,212,3.2,4.8,92,0.00,,,0.00,VWS V14.01,2013-08-09 06:54:00,
2013-08-09 02:55:00,74.9,72.4,29.95,SW,236,4.8,11.2,92,0.00,,,0.00,VWS V14.01,2013-08-09 06:55:00,
2013-08-09 02:56:00,74.9,72.4,29.95,WSW,245,4.8,11.2,92,0.00,,,0.00,VWS V14.01,2013-08-09 06:56:00,
2013-08-09 02:57:00,74.9,72.4,29.95,SW,229,3.2,8.0,92,0.00,,,0.00,VWS V14.01,2013-08-09 06:57:00,
2013-08-09 02:58:00,74.8,72.3,29.95,SW,222,4.8,6.4,92,0.00,,,0.00,VWS V14.01,2013-08-09 06:58:00,
2013-08-09 02:59:00,74.8,72.3,29.95,WSW,239,1.6,6.4,92,0.00,,,0.00,VWS V14.01,2013-08-09 06:59:00,
2013-08-09 03:00:00,74.8,72.3,29.95,SW,224,1.6,4.8,92,0.00,,,0.00,VWS V14.01,2013-08-09 07:00:00,
2013-08-09 03:01:00,74.8,72.3,29.95,SW,231,1.6,4.8,92,0.00,,,0.00,VWS V14.01,2013-08-09 07:01:00,
2013-08-09 03:02:00,74.8,72.3,29.95,WSW,239,3.2,4.8,92,0.00,,,0.00,VWS V14.01,2013-08-09 07:02:00,
2013-08-09 03:03:00,74.8,72.3,29.95,SSW,208,3.2,4.8,92,0.00,,,0.00,VWS V14.01,2013-08-09 07:03:00,
2013-08-09 03:04:00,74.8,72.3,29.95,SW,217,3.2,4.8,92,0.00,,,0.00,VWS V14.01,2013-08-09 07:04:00,
2013-08-09 03:05:00,74.7,72.2,29.95,WSW,237,1.6,4.8,92,0.00,,,0.00,VWS V14.01,2013-08-09 07:05:00,
2013-08-09 03:06:00,74.7,72.2,29.95,WSW,239,3.2,4.8,92,0.00,,,0.00,VWS V14.01,2013-08-09 07:06:00,
2013-08-09 03:07:00,74.7,72.2,29.95,SW,220,1.6,3.2,92,0.00,,,0.00,VWS V14.01,2013-08-09 07:07:00,
2013-08-09 03:08:00,74.7,72.5,29.95,SW,220,0.0,3.2,93,0.00,,,0.00,VWS V14.01,2013-08-09 07:08:00,
2013-08-09 03:09:00,74.6,72.4,29.95,SW,220,0.0,1.6,93,0.00,,,0.00,VWS V14.01,2013-08-09 07:09:00,
2013-08-09 03:10:00,74.6,72.4,29.94,SW,225,0.0,3.2,93,0.00,,,0.00,VWS V14.01,2013-08-09 07:10:00,
2013-08-09 03:11:00,74.6,72.4,29.94,SSW,211,3.2,3.2,93,0.00,,,0.00,VWS V14.01,2013-08-09 07:11:00,
2013-08-09 03:12:00,74.6,72.4,29.94,SW,231,1.6,3.2,93,0.00,,,0.00,VWS V14.01,2013-08-09 07:12:00,
2013-08-09 03:13:00,74.6,72.4,29.94,SW,225,4.8,4.8,93,0.00,,,0.00,VWS V14.01,2013-08-09 07:13:00,
2013-08-09 03:14:00,74.5,72.3,29.95,SW,227,1.6,4.8,93,0.00,,,0.00,VWS V14.01,2013-08-09 07:14:00,
2013-08-09 03:15:00,74.5,72.3,29.94,SW,234,1.6,4.8,93,0.00,,,0.00,VWS V14.01,2013-08-09 07:15:00,
2013-08-09 03:16:00,74.5,72.3,29.95,WSW,239,0.0,4.8,93,0.00,,,0.00,VWS V14.01,2013-08-09 07:16:00,
2013-08-09 03:17:00,74.5,72.3,29.95,WSW,243,3.2,3.2,93,0.00,,,0.00,VWS V14.01,2013-08-09 07:17:00,
2013-08-09 03:18:00,74.5,72.3,29.95,SW,218,1.6,4.8,93,0.00,,,0.00,VWS V14.01,2013-08-09 07:18:00,
2013-08-09 03:19:00,74.5,72.3,29.95,SW,222,3.2,4.8,93,0.00,,,0.00,VWS V14.01,2013-08-09 07:19:00,
2013-08-09 03:20:00,74.5,72.3,29.95,SW,224,1.6,3.2,93,0.00,,,0.00,VWS V14.01,2013-08-09 07:20:00,
2013-08-09 03:21:00,74.5,72.3,29.95,WSW,250,1.6,3.2,93,0.00,,,0.00,VWS V14.01,2013-08-09 07:21:00,
2013-08-09 03:22:00,74.5,72.3,29.95,SW,234,4.8,4.8,93,0.00,,,0.00,VWS V14.01,2013-08-09 07:22:00,
2013-08-09 03:23:00,74.5,72.3,29.95,SW,234,6.4,6.4,93,0.00,,,0.00,VWS V14.01,2013-08-09 07:23:00,
2013-08-09 03:24:00,74.4,72.2,29.95,WSW,247,3.2,6.4,93,0.00,,,0.00,VWS V14.01,2013-08-09 07:24:00,
2013-08-09 03:25:00,74.4,72.2,29.95,SW,229,3.2,6.4,93,0.00,,,0.00,VWS V14.01,2013-08-09 07:25:00,
2013-08-09 03:26:00,74.4,72.2,29.95,WSW,256,4.8,4.8,93,0.00,,,0.00,VWS V14.01,2013-08-09 07:26:00,
2013-08-09 03:27:00,74.4,72.2,29.95,SW,230,1.6,4.8,93,0.00,,,0.00,VWS V14.01,2013-08-09 07:27:00,
2013-08-09 03:28:00,74.4,72.2,29.95,WSW,239,1.6,4.8,93,0.00,,,0.00,VWS V14.01,2013-08-09 07:28:00,
2013-08-09 03:29:00,74.4,72.2,29.95,WSW,248,1.6,8.0,93,0.00,,,0.00,VWS V14.01,2013-08-09 07:29:00,
2013-08-09 03:30:00,74.4,72.2,29.95,SSW,201,1.6,8.0,93,0.00,,,0.00,VWS V14.01,2013-08-09 07:30:00,
2013-08-09 03:31:00,74.4,72.2,29.95,West,259,3.2,6.4,93,0.00,,,0.00,VWS V14.01,2013-08-09 07:31:00,
2013-08-09 03:32:00,74.4,72.2,29.95,WSW,239,3.2,4.8,93,0.00,,,0.00,VWS V14.01,2013-08-09 07:32:00,
2013-08-09 03:33:00,74.4,72.2,29.95,WSW,246,0.0,4.8,93,0.00,,,0.00,VWS V14.01,2013-08-09 07:33:00,
2013-08-09 03:34:00,74.4,72.2,29.95,WSW,246,0.0,3.2,93,0.00,,,0.00,VWS V14.01,2013-08-09 07:34:00,
2013-08-09 03:35:00,74.4,72.2,29.95,SW,235,0.0,0.0,93,0.00,,,0.00,VWS V14.01,2013-08-09 07:35:00,
2013-08-09 03:36:00,74.4,72.2,29.95,WSW,253,1.6,1.6,93,0.00,,,0.00,VWS V14.01,2013-08-09 07:36:00,
2013-08-09 03:37:00,74.4,72.2,29.95,WSW,256,0.0,1.6,93,0.00,,,0.00,VWS V14.01,2013-08-09 07:37:00,
2013-08-09 03:38:00,74.4,72.2,29.95,SW,224,1.6,1.6,93,0.00,,,0.00,VWS V14.01,2013-08-09 07:38:00,
2013-08-09 03:39:00,74.4,72.2,29.95,SW,232,1.6,3.2,93,0.00,,,0.00,VWS V14.01,2013-08-09 07:39:00,
2013-08-09 03:40:00,74.4,72.2,29.95,SW,224,4.8,6.4,93,0.00,,,0.00,VWS V14.01,2013-08-09 07:40:00,
2013-08-09 03:41:00,74.4,72.2,29.95,SW,236,4.8,6.4,93,0.00,,,0.00,VWS V14.01,2013-08-09 07:41:00,
2013-08-09 03:42:00,74.3,72.2,29.95,SSW,207,4.8,8.0,93,0.00,,,0.00,VWS V14.01,2013-08-09 07:42:00,
2013-08-09 03:43:00,74.3,72.2,29.95,SW,229,4.8,8.0,93,0.00,,,0.00,VWS V14.01,2013-08-09 07:43:00,
2013-08-09 03:44:00,74.3,72.2,29.95,WSW,250,4.8,6.4,93,0.00,,,0.00,VWS V14.01,2013-08-09 07:44:00,
2013-08-09 03:45:00,74.3,72.2,29.95,SW,222,6.4,6.4,93,0.00,,,0.00,VWS V14.01,2013-08-09 07:45:00,
2013-08-09 03:46:00,74.3,72.2,29.95,SW,222,8.0,8.0,93,0.00,,,0.00,VWS V14.01,2013-08-09 07:46:00,
2013-08-09 03:47:00,74.3,72.2,29.95,SSW,210,3.2,9.6,93,0.00,,,0.00,VWS V14.01,2013-08-09 07:47:00,
2013-08-09 03:48:00,74.3,72.2,29.95,WSW,241,1.6,9.6,93,0.00,,,0.00,VWS V14.01,2013-08-09 07:48:00,
2013-08-09 03:49:00,74.3,72.2,29.95,WSW,246,1.6,4.8,93,0.00,,,0.00,VWS V14.01,2013-08-09 07:49:00,
2013-08-09 03:50:00,74.3,72.2,29.95,SW,225,4.8,6.4,93,0.00,,,0.00,VWS V14.01,2013-08-09 07:50:00,
2013-08-09 03:51:00,74.3,72.2,29.95,SW,221,3.2,6.4,93,0.00,,,0.00,VWS V14.01,2013-08-09 07:51:00,
2013-08-09 03:52:00,74.3,72.2,29.95,SW,222,3.2,6.4,93,0.00,,,0.00,VWS V14.01,2013-08-09 07:52:00,
2013-08-09 03:53:00,74.3,72.2,29.95,WSW,257,1.6,6.4,93,0.00,,,0.00,VWS V14.01,2013-08-09 07:53:00,
2013-08-09 03:54:00,74.3,72.2,29.95,WSW,243,3.2,6.4,93,0.00,,,0.00,VWS V14.01,2013-08-09 07:54:00,
2013-08-09 03:55:00,74.3,72.2,29.95,SSW,197,3.2,4.8,93,0.00,,,0.00,VWS V14.01,2013-08-09 07:55:00,
2013-08-09 03:56:00,74.3,72.2,29.95,WSW,248,3.2,6.4,93,0.00,,,0.00,VWS V14.01,2013-08-09 07:56:00,
2013-08-09 03:57:00,74.3,72.2,29.95,SW,236,3.2,6.4,93,0.00,,,0.00,VWS V14.01,2013-08-09 07:57:00,
2013-08-09 03:58:00,74.3,72.2,29.95,SW,233,3.2,4.8,93,0.00,,,0.00,VWS V14.01,2013-08-09 07:58:00,
2013-08-09 03:59:00,74.3,72.2,29.95,WSW,238,3.2,4.8,93,0.00,,,0.00,VWS V14.01,2013-08-09 07:59:00,
2013-08-09 04:00:00,74.3,72.2,29.95,WSW,244,3.2,4.8,93,0.00,,,0.00,VWS V14.01,2013-08-09 08:00:00,
2013-08-09 04:01:00,74.3,72.2,29.95,West,259,4.8,8.0,93,0.00,,,0.00,VWS V14.01,2013-08-09 08:01:00,
2013-08-09 04:02:00,74.3,72.2,29.96,WSW,248,0.0,8.0,93,0.00,,,0.00,VWS V14.01,2013-08-09 08:02:00,
2013-08-09 04:03:00,74.3,72.2,29.96,SW,233,4.8,6.4,93,0.00,,,0.00,VWS V14.01,2013-08-09 08:03:00,
2013-08-09 04:04:00,74.3,72.2,29.96,SW,232,4.8,6.4,93,0.00,,,0.00,VWS V14.01,2013-08-09 08:04:00,
2013-08-09 04:05:00,74.3,72.2,29.96,SW,235,1.6,6.4,93,0.00,,,0.00,VWS V14.01,2013-08-09 08:05:00,
2013-08-09 04:06:00,74.3,72.2,29.96,WSW,243,3.2,6.4,93,0.00,,,0.00,VWS V14.01,2013-08-09 08:06:00,
2013-08-09 04:07:00,74.3,72.2,29.96,WSW,239,3.2,6.4,93,0.00,,,0.00,VWS V14.01,2013-08-09 08:07:00,
2013-08-09 04:08:00,74.3,72.2,29.96,SW,226,8.0,8.0,93,0.00,,,0.00,VWS V14.01,2013-08-09 08:08:00,
2013-08-09 04:09:00,74.3,72.2,29.96,WSW,250,4.8,9.6,93,0.00,,,0.00,VWS V14.01,2013-08-09 08:09:00,
2013-08-09 04:10:00,74.3,72.2,29.96,SW,231,3.2,9.6,93,0.00,,,0.00,VWS V14.01,2013-08-09 08:10:00,
2013-08-09 04:11:00,74.3,72.2,29.96,WSW,248,3.2,6.4,93,0.00,,,0.00,VWS V14.01,2013-08-09 08:11:00,
2013-08-09 04:12:00,74.3,72.2,29.96,WSW,239,8.0,8.0,93,0.00,,,0.00,VWS V14.01,2013-08-09 08:12:00,
2013-08-09 04:13:00,74.3,72.2,29.96,WSW,245,0.0,8.0,93,0.00,,,0.00,VWS V14.01,2013-08-09 08:13:00,
2013-08-09 04:14:00,74.3,72.2,29.96,WSW,248,3.2,6.4,93,0.00,,,0.00,VWS V14.01,2013-08-09 08:14:00,
2013-08-09 04:15:00,74.3,72.2,29.96,WSW,248,3.2,4.8,93,0.00,,,0.00,VWS V14.01,2013-08-09 08:15:00,
2013-08-09 04:16:00,74.3,72.2,29.96,WSW,246,1.6,4.8,93,0.00,,,0.00,VWS V14.01,2013-08-09 08:16:00,
2013-08-09 04:17:00,74.3,72.2,29.95,WSW,250,3.2,3.2,93,0.00,,,0.00,VWS V14.01,2013-08-09 08:17:00,
2013-08-09 04:18:00,74.3,72.2,29.96,WSW,256,3.2,3.2,93,0.00,,,0.00,VWS V14.01,2013-08-09 08:18:00,
2013-08-09 04:19:00,74.3,72.2,29.95,West,268,3.2,3.2,93,0.00,,,0.00,VWS V14.01,2013-08-09 08:19:00,
2013-08-09 04:20:00,74.3,72.2,29.96,West,269,1.6,3.2,93,0.00,,,0.00,VWS V14.01,2013-08-09 08:20:00,
2013-08-09 04:21:00,74.3,72.2,29.95,West,268,1.6,3.2,93,0.00,,,0.00,VWS V14.01,2013-08-09 08:21:00,
2013-08-09 04:22:00,74.3,72.2,29.96,WSW,256,1.6,1.6,93,0.00,,,0.00,VWS V14.01,2013-08-09 08:22:00,
2013-08-09 04:23:00,74.3,72.2,29.95,West,259,3.2,4.8,93,0.00,,,0.00,VWS V14.01,2013-08-09 08:23:00,
2013-08-09 04:24:00,74.3,72.2,29.96,West,260,1.6,4.8,93,0.00,,,0.00,VWS V14.01,2013-08-09 08:24:00,
2013-08-09 04:25:00,74.3,72.2,29.96,West,263,0.0,4.8,93,0.00,,,0.00,VWS V14.01,2013-08-09 08:25:00,
2013-08-09 04:26:00,74.3,72.2,29.95,WSW,253,3.2,4.8,93,0.00,,,0.00,VWS V14.01,2013-08-09 08:26:00,
2013-08-09 04:27:00,74.3,72.2,29.95,WSW,252,1.6,4.8,93,0.00,,,0.00,VWS V14.01,2013-08-09 08:27:00,
2013-08-09 04:28:00,74.3,72.2,29.95,WSW,250,3.2,3.2,93,0.00,,,0.00,VWS V14.01,2013-08-09 08:28:00,
2013-08-09 04:29:00,74.3,72.2,29.95,WSW,245,1.6,4.8,93,0.00,,,0.00,VWS V14.01,2013-08-09 08:29:00,
2013-08-09 04:30:00,74.3,72.2,29.95,WSW,241,1.6,4.8,93,0.00,,,0.00,VWS V14.01,2013-08-09 08:30:00,
2013-08-09 04:31:00,74.3,72.2,29.95,West,265,1.6,8.0,93,0.00,,,0.00,VWS V14.01,2013-08-09 08:31:00,
2013-08-09 04:32:00,74.3,72.2,29.95,WSW,255,4.8,8.0,93,0.00,,,0.00,VWS V14.01,2013-08-09 08:32:00,
2013-08-09 04:33:00,74.3,72.2,29.96,SW,232,4.8,6.4,93,0.00,,,0.00,VWS V14.01,2013-08-09 08:33:00,
2013-08-09 04:34:00,74.3,72.2,29.96,SW,229,4.8,6.4,93,0.00,,,0.00,VWS V14.01,2013-08-09 08:34:00,
2013-08-09 04:35:00,74.3,72.2,29.96,WSW,241,3.2,6.4,93,0.00,,,0.00,VWS V14.01,2013-08-09 08:35:00,
2013-08-09 04:36:00,74.3,72.2,29.96,SSW,210,3.2,6.4,93,0.00,,,0.00,VWS V14.01,2013-08-09 08:36:00,
2013-08-09 04:37:00,74.3,72.2,29.95,SW,215,4.8,4.8,93,0.00,,,0.00,VWS V14.01,2013-08-09 08:37:00,
2013-08-09 04:38:00,74.3,72.2,29.95,SW,234,4.8,6.4,93,0.00,,,0.00,VWS V14.01,2013-08-09 08:38:00,
2013-08-09 04:39:00,74.3,72.2,29.95,SW,235,4.8,9.6,93,0.00,,,0.00,VWS V14.01,2013-08-09 08:39:00,
2013-08-09 04:40:00,74.3,72.2,29.95,SW,222,4.8,9.6,93,0.00,,,0.00,VWS V14.01,2013-08-09 08:40:00,
2013-08-09 04:41:00,74.3,72.2,29.95,WSW,239,4.8,9.6,93,0.00,,,0.00,VWS V14.01,2013-08-09 08:41:00,
2013-08-09 04:42:00,74.3,72.2,29.96,SW,223,3.2,8.0,93,0.00,,,0.00,VWS V14.01,2013-08-09 08:42:00,
2013-08-09 04:43:00,74.3,72.2,29.96,WSW,255,3.2,6.4,93,0.00,,,0.00,VWS V14.01,2013-08-09 08:43:00,
2013-08-09 04:44:00,74.3,72.2,29.96,SW,233,1.6,4.8,93,0.00,,,0.00,VWS V14.01,2013-08-09 08:44:00,
2013-08-09 04:45:00,74.3,72.2,29.96,WSW,238,4.8,6.4,93,0.00,,,0.00,VWS V14.01,2013-08-09 08:45:00,
2013-08-09 04:46:00,74.3,72.2,29.96,WSW,239,3.2,9.6,93,0.00,,,0.00,VWS V14.01,2013-08-09 08:46:00,
2013-08-09 04:47:00,74.3,72.2,29.96,SW,234,6.4,9.6,93,0.00,,,0.00,VWS V14.01,2013-08-09 08:47:00,
2013-08-09 04:48:00,74.3,72.2,29.96,SW,228,4.8,6.4,93,0.00,,,0.00,VWS V14.01,2013-08-09 08:48:00,
2013-08-09 04:49:00,74.3,72.2,29.96,SSW,212,0.0,6.4,93,0.00,,,0.00,VWS V14.01,2013-08-09 08:49:00,
2013-08-09 04:50:00,74.3,72.2,29.96,SW,229,1.6,6.4,93,0.00,,,0.00,VWS V14.01,2013-08-09 08:50:00,
2013-08-09 04:51:00,74.3,72.5,29.96,SW,222,8.0,9.6,94,0.00,,,0.00,VWS V14.01,2013-08-09 08:51:00,
2013-08-09 04:52:00,74.3,72.5,29.96,WSW,243,6.4,9.6,94,0.00,,,0.00,VWS V14.01,2013-08-09 08:52:00,
2013-08-09 04:53:00,74.3,72.5,29.96,SW,221,6.4,8.0,94,0.00,,,0.00,VWS V14.01,2013-08-09 08:53:00,
2013-08-09 04:54:00,74.3,72.5,29.96,WSW,248,3.2,8.0,94,0.00,,,0.00,VWS V14.01,2013-08-09 08:54:00,
2013-08-09 04:55:00,74.3,72.5,29.96,WSW,246,4.8,8.0,94,0.00,,,0.00,VWS V14.01,2013-08-09 08:55:00,
2013-08-09 04:56:00,74.3,72.5,29.96,WSW,239,6.4,9.6,94,0.00,,,0.00,VWS V14.01,2013-08-09 08:56:00,
2013-08-09 04:57:00,74.3,72.5,29.96,SW,229,3.2,9.6,94,0.00,,,0.00,VWS V14.01,2013-08-09 08:57:00,
2013-08-09 04:58:00,74.3,72.5,29.96,SW,235,6.4,8.0,94,0.00,,,0.00,VWS V14.01,2013-08-09 08:58:00,
2013-08-09 04:59:00,74.3,72.5,29.96,SW,227,8.0,9.6,94,0.00,,,0.00,VWS V14.01,2013-08-09 08:59:00,
2013-08-09 05:00:00,74.3,72.5,29.96,WSW,243,8.0,11.2,94,0.00,,,0.00,VWS V14.01,2013-08-09 09:00:00,
2013-08-09 05:01:00,74.3,72.5,29.96,SW,222,3.2,11.2,94,0.00,,,0.00,VWS V14.01,2013-08-09 09:01:00,
2013-08-09 05:02:00,74.3,72.5,29.96,SW,236,3.2,8.0,94,0.00,,,0.00,VWS V14.01,2013-08-09 09:02:00,
2013-08-09 05:03:00,74.3,72.5,29.96,WSW,244,6.4,8.0,94,0.00,,,0.00,VWS V14.01,2013-08-09 09:03:00,
2013-08-09 05:04:00,74.3,72.5,29.96,WSW,238,4.8,9.6,94,0.00,,,0.00,VWS V14.01,2013-08-09 09:04:00,
2013-08-09 05:05:00,74.3,72.5,29.96,SW,217,3.2,9.6,94,0.00,,,0.00,VWS V14.01,2013-08-09 09:05:00,
2013-08-09 05:06:00,74.3,72.5,29.96,SW,222,4.8,9.6,94,0.00,,,0.00,VWS V14.01,2013-08-09 09:06:00,
2013-08-09 05:07:00,74.3,72.5,29.96,SW,229,1.6,9.6,94,0.00,,,0.00,VWS V14.01,2013-08-09 09:07:00,
2013-08-09 05:08:00,74.3,72.5,29.96,SSW,200,4.8,6.4,94,0.00,,,0.00,VWS V14.01,2013-08-09 09:08:00,
2013-08-09 05:09:00,74.3,72.5,29.96,SW,215,6.4,6.4,94,0.00,,,0.00,VWS V14.01,2013-08-09 09:09:00,
2013-08-09 05:10:00,74.3,72.5,29.96,SW,229,4.8,8.0,94,0.00,,,0.00,VWS V14.01,2013-08-09 09:10:00,
2013-08-09 05:11:00,74.3,72.5,29.96,SW,231,6.4,8.0,94,0.00,,,0.00,VWS V14.01,2013-08-09 09:11:00,
2013-08-09 05:12:00,74.3,72.5,29.96,WSW,238,3.2,8.0,94,0.00,,,0.00,VWS V14.01,2013-08-09 09:12:00,
2013-08-09 05:13:00,74.3,72.2,29.96,SSW,194,4.8,8.0,93,0.00,,,0.00,VWS V14.01,2013-08-09 09:13:00,
2013-08-09 05:14:00,74.3,72.2,29.96,WSW,241,8.0,11.2,93,0.00,,,0.00,VWS V14.01,2013-08-09 09:14:00,
2013-08-09 05:15:00,74.3,72.2,29.96,SSW,204,6.4,11.2,93,0.00,,,0.00,VWS V14.01,2013-08-09 09:15:00,
2013-08-09 05:16:00,74.3,72.2,29.96,SW,215,4.8,9.6,93,0.00,,,0.00,VWS V14.01,2013-08-09 09:16:00,
2013-08-09 05:17:00,74.2,72.1,29.96,WSW,241,1.6,6.4,93,0.00,,,0.00,VWS V14.01,2013-08-09 09:17:00,
2013-08-09 05:18:00,74.3,72.2,29.96,WSW,241,6.4,16.0,93,0.00,,,0.00,VWS V14.01,2013-08-09 09:18:00,
2013-08-09 05:19:00,74.2,72.1,29.96,SW,236,3.2,16.0,93,0.00,,,0.00,VWS V14.01,2013-08-09 09:19:00,
2013-08-09 05:20:00,74.3,72.2,29.95,WSW,250,3.2,12.8,93,0.00,,,0.00,VWS V14.01,2013-08-09 09:20:00,
2013-08-09 05:21:00,74.2,72.1,29.95,SW,231,4.8,6.4,93,0.00,,,0.00,VWS V14.01,2013-08-09 09:21:00,
2013-08-09 05:22:00,74.2,72.1,29.96,SW,222,3.2,9.6,93,0.00,,,0.00,VWS V14.01,2013-08-09 09:22:00,
2013-08-09 05:23:00,74.2,72.1,29.95,WSW,248,6.4,9.6,93,0.00,,,0.00,VWS V14.01,2013-08-09 09:23:00,
2013-08-09 05:24:00,74.2,72.1,29.96,SW,227,8.0,9.6,93,0.00,,,0.00,VWS V14.01,2013-08-09 09:24:00,
2013-08-09 05:25:00,74.2,72.1,29.95,SW,235,1.6,9.6,93,0.00,,,0.00,VWS V14.01,2013-08-09 09:25:00,
2013-08-09 05:26:00,74.2,72.1,29.96,WSW,255,6.4,8.0,93,0.00,,,0.00,VWS V14.01,2013-08-09 09:26:00,
2013-08-09 05:27:00,74.1,71.9,29.96,SW,235,6.4,8.0,93,0.00,,,0.00,VWS V14.01,2013-08-09 09:27:00,
2013-08-09 05:28:00,74.1,71.9,29.96,SW,225,1.6,8.0,93,0.00,,,0.00,VWS V14.01,2013-08-09 09:28:00,
2013-08-09 05:29:00,74.1,71.9,29.96,SW,234,4.8,8.0,93,0.00,,,0.00,VWS V14.01,2013-08-09 09:29:00,
2013-08-09 05:30:00,74.1,71.9,29.96,South,186,8.0,9.6,93,0.00,,,0.00,VWS V14.01,2013-08-09 09:30:00,
2013-08-09 05:31:00,74.1,71.9,29.95,SSW,212,6.4,9.6,93,0.00,,,0.00,VWS V14.01,2013-08-09 09:31:00,
2013-08-09 05:32:00,74.1,71.9,29.95,SW,221,8.0,9.6,93,0.00,,,0.00,VWS V14.01,2013-08-09 09:32:00,
2013-08-09 05:33:00,74.1,72.3,29.95,WSW,245,3.2,9.6,94,0.00,,,0.00,VWS V14.01,2013-08-09 09:33:00,
2013-08-09 05:34:00,74.1,71.9,29.95,SW,234,4.8,8.0,93,0.00,,,0.00,VWS V14.01,2013-08-09 09:34:00,
2013-08-09 05:35:00,74.1,71.9,29.95,SW,225,4.8,8.0,93,0.00,,,0.00,VWS V14.01,2013-08-09 09:35:00,
2013-08-09 05:36:00,74.1,71.9,29.95,SW,235,4.8,8.0,93,0.00,,,0.00,VWS V14.01,2013-08-09 09:36:00,
2013-08-09 05:37:00,74.1,71.9,29.95,SW,222,4.8,6.4,93,0.00,,,0.00,VWS V14.01,2013-08-09 09:37:00,
2013-08-09 05:38:00,74.1,71.9,29.95,WSW,239,4.8,8.0,93,0.00,,,0.00,VWS V14.01,2013-08-09 09:38:00,
2013-08-09 05:39:00,74.1,71.9,29.95,SW,231,3.2,8.0,93,0.00,,,0.00,VWS V14.01,2013-08-09 09:39:00,
2013-08-09 05:40:00,74.1,72.3,29.95,SSW,210,4.8,8.0,94,0.00,,,0.00,VWS V14.01,2013-08-09 09:40:00,
2013-08-09 05:41:00,74.1,72.3,29.95,WSW,242,4.8,8.0,94,0.00,,,0.00,VWS V14.01,2013-08-09 09:41:00,
2013-08-09 05:42:00,74.1,72.3,29.95,WSW,242,4.8,8.0,94,0.00,,,0.00,VWS V14.01,2013-08-09 09:42:00,
2013-08-09 05:43:00,74.1,72.3,29.95,SW,227,6.4,9.6,94,0.00,,,0.00,VWS V14.01,2013-08-09 09:43:00,
2013-08-09 05:44:00,74.1,72.3,29.95,SSW,211,4.8,9.6,94,0.00,,,0.00,VWS V14.01,2013-08-09 09:44:00,
2013-08-09 05:45:00,74.1,71.9,29.95,WSW,240,8.0,8.0,93,0.00,,,0.00,VWS V14.01,2013-08-09 09:45:00,
2013-08-09 05:46:00,74.1,71.9,29.95,WSW,248,1.6,8.0,93,0.00,,,0.00,VWS V14.01,2013-08-09 09:46:00,
2013-08-09 05:47:00,74.1,71.9,29.96,SW,231,3.2,6.4,93,0.00,,,0.00,VWS V14.01,2013-08-09 09:47:00,
2013-08-09 05:48:00,74.2,72.1,29.96,WSW,255,4.8,8.0,93,0.00,,,0.00,VWS V14.01,2013-08-09 09:48:00,
2013-08-09 05:49:00,74.2,72.1,29.95,SW,221,6.4,8.0,93,0.00,,,0.00,VWS V14.01,2013-08-09 09:49:00,
2013-08-09 05:50:00,74.2,72.1,29.96,SW,227,4.8,8.0,93,0.00,,,0.00,VWS V14.01,2013-08-09 09:50:00,
2013-08-09 05:51:00,74.2,72.1,29.96,WSW,246,3.2,6.4,93,0.00,,,0.00,VWS V14.01,2013-08-09 09:51:00,
2013-08-09 05:52:00,74.2,72.1,29.96,SSE,167,4.8,8.0,93,0.00,,,0.00,VWS V14.01,2013-08-09 09:52:00,
2013-08-09 05:53:00,74.2,72.1,29.95,WSW,241,8.0,8.0,93,0.00,,,0.00,VWS V14.01,2013-08-09 09:53:00,
2013-08-09 05:54:00,74.2,72.1,29.95,WSW,243,3.2,8.0,93,0.00,,,0.00,VWS V14.01,2013-08-09 09:54:00,
2013-08-09 05:55:00,74.1,71.9,29.96,SW,216,6.4,8.0,93,0.00,,,0.00,VWS V14.01,2013-08-09 09:55:00,
2013-08-09 05:56:00,74.2,72.1,29.96,WSW,248,1.6,6.4,93,0.00,,,0.00,VWS V14.01,2013-08-09 09:56:00,
2013-08-09 05:57:00,74.1,71.9,29.95,WSW,252,3.2,6.4,93,0.00,,,0.00,VWS V14.01,2013-08-09 09:57:00,
2013-08-09 05:58:00,74.1,71.9,29.95,SSW,212,0.0,6.4,93,0.00,,,0.00,VWS V14.01,2013-08-09 09:58:00,
2013-08-09 05:59:00,74.1,71.9,29.95,WSW,250,3.2,4.8,93,0.00,,,0.00,VWS V14.01,2013-08-09 09:59:00,
2013-08-09 06:00:00,74.1,71.9,29.95,SW,229,1.6,3.2,93,0.00,,,0.00,VWS V14.01,2013-08-09 10:00:00,
2013-08-09 06:01:00,74.1,71.9,29.95,SW,229,1.6,6.4,93,0.00,,,0.00,VWS V14.01,2013-08-09 10:01:00,
2013-08-09 06:02:00,74.1,71.9,29.95,SW,232,0.0,6.4,93,0.00,,,0.00,VWS V14.01,2013-08-09 10:02:00,
2013-08-09 06:03:00,74.1,71.9,29.95,SW,220,3.2,6.4,93,0.00,,,0.00,VWS V14.01,2013-08-09 10:03:00,
2013-08-09 06:04:00,74.1,71.9,29.95,WSW,239,1.6,8.0,93,0.00,,,0.00,VWS V14.01,2013-08-09 10:04:00,
2013-08-09 06:05:00,74.1,71.9,29.96,SW,231,3.2,8.0,93,0.00,,,0.00,VWS V14.01,2013-08-09 10:05:00,
2013-08-09 06:06:00,74.1,71.9,29.96,SW,232,3.2,6.4,93,0.00,,,0.00,VWS V14.01,2013-08-09 10:06:00,
2013-08-09 06:07:00,74.1,71.9,29.96,SW,234,6.4,6.4,93,0.00,,,0.00,VWS V14.01,2013-08-09 10:07:00,
2013-08-09 06:08:00,74.1,71.9,29.96,SW,236,3.2,6.4,93,0.00,,,0.00,VWS V14.01,2013-08-09 10:08:00,
2013-08-09 06:09:00,74.1,71.9,29.95,SW,232,1.6,6.4,93,0.00,,,0.00,VWS V14.01,2013-08-09 10:09:00,
2013-08-09 06:10:00,74.1,71.9,29.95,SW,227,1.6,6.4,93,0.00,,,0.00,VWS V14.01,2013-08-09 10:10:00,
2013-08-09 06:11:00,74.0,71.8,29.96,SSW,210,3.2,8.0,93,0.00,,,0.00,VWS V14.01,2013-08-09 10:11:00,
2013-08-09 06:12:00,74.0,72.2,29.96,SSW,196,3.2,8.0,94,0.00,,,0.00,VWS V14.01,2013-08-09 10:12:00,
2013-08-09 06:13:00,74.0,72.2,29.96,SW,224,6.4,6.4,94,0.00,,,0.00,VWS V14.01,2013-08-09 10:13:00,
2013-08-09 06:14:00,74.0,72.2,29.96,SW,226,4.8,11.2,94,0.00,,,0.00,VWS V14.01,2013-08-09 10:14:00,
2013-08-09 06:15:00,74.0,72.2,29.96,SW,221,3.2,11.2,94,0.00,,,0.00,VWS V14.01,2013-08-09 10:15:00,
2013-08-09 06:16:00,74.0,72.2,29.96,SW,232,1.6,6.4,94,0.00,,,0.00,VWS V14.01,2013-08-09 10:16:00,
2013-08-09 06:17:00,74.0,72.2,29.96,SW,235,6.4,8.0,94,0.00,,,0.00,VWS V14.01,2013-08-09 10:17:00,
2013-08-09 06:18:00,74.0,72.2,29.96,SW,225,3.2,8.0,94,0.00,,,0.00,VWS V14.01,2013-08-09 10:18:00,
2013-08-09 06:19:00,74.0,72.2,29.96,WSW,243,3.2,6.4,94,0.00,,,0.00,VWS V14.01,2013-08-09 10:19:00,
2013-08-09 06:20:00,74.0,72.2,29.96,SSW,208,8.0,8.0,94,0.00,,,0.00,VWS V14.01,2013-08-09 10:20:00,
2013-08-09 06:21:00,74.0,72.2,29.96,SW,227,1.6,8.0,94,0.00,,,0.00,VWS V14.01,2013-08-09 10:21:00,
2013-08-09 06:22:00,74.0,72.2,29.97,SW,217,1.6,8.0,94,0.00,,,0.00,VWS V14.01,2013-08-09 10:22:00,
2013-08-09 06:23:00,74.0,72.2,29.96,SW,233,1.6,8.0,94,0.00,,,0.00,VWS V14.01,2013-08-09 10:23:00,
2013-08-09 06:24:00,74.0,72.2,29.96,SW,232,1.6,6.4,94,0.00,,,0.00,VWS V14.01,2013-08-09 10:24:00,
2013-08-09 06:25:00,74.0,72.2,29.97,SW,218,1.6,4.8,94,0.00,,,0.00,VWS V14.01,2013-08-09 10:25:00,
2013-08-09 06:26:00,74.0,72.2,29.96,SW,222,3.2,12.8,94,0.00,,,0.00,VWS V14.01,2013-08-09 10:26:00,
2013-08-09 06:27:00,74.0,72.2,29.97,SW,218,3.2,8.0,94,0.00,,,0.00,VWS V14.01,2013-08-09 10:27:00,
2013-08-09 06:28:00,74.0,72.2,29.97,SW,215,6.4,8.0,94,0.00,,,0.00,VWS V14.01,2013-08-09 10:28:00,
2013-08-09 06:29:00,74.0,72.2,29.97,SW,217,4.8,6.4,94,0.00,,,0.00,VWS V14.01,2013-08-09 10:29:00,
2013-08-09 06:30:00,74.0,72.2,29.97,SSW,208,6.4,8.0,94,0.00,,,0.00,VWS V14.01,2013-08-09 10:30:00,
2013-08-09 06:31:00,74.1,72.3,29.97,SSW,212,4.8,8.0,94,0.00,,,0.00,VWS V14.01,2013-08-09 10:31:00,
2013-08-09 06:32:00,74.1,72.3,29.97,SW,227,9.6,9.6,94,0.00,,,0.00,VWS V14.01,2013-08-09 10:32:00,
2013-08-09 06:33:00,74.1,72.3,29.97,WSW,250,3.2,9.6,94,0.00,,,0.00,VWS V14.01,2013-08-09 10:33:00,
2013-08-09 06:34:00,74.1,72.3,29.97,SW,232,4.8,8.0,94,0.00,,,0.00,VWS V14.01,2013-08-09 10:34:00,
2013-08-09 06:35:00,74.1,72.3,29.97,South,170,4.8,8.0,94,0.00,,,0.00,VWS V14.01,2013-08-09 10:35:00,
2013-08-09 06:36:00,74.1,72.3,29.97,SW,218,4.8,9.6,94,0.00,,,0.00,VWS V14.01,2013-08-09 10:36:00,
2013-08-09 06:37:00,74.1,72.3,29.97,WSW,243,0.0,9.6,94,0.00,,,0.00,VWS V14.01,2013-08-09 10:37:00,
2013-08-09 06:38:00,74.1,72.3,29.97,SSW,204,3.2,8.0,94,0.00,,,0.00,VWS V14.01,2013-08-09 10:38:00,
2013-08-09 06:39:00,74.1,72.3,29.97,SW,218,3.2,8.0,94,0.00,,,0.00,VWS V14.01,2013-08-09 10:39:00,
2013-08-09 06:40:00,74.1,72.3,29.97,WSW,239,6.4,8.0,94,0.00,,,0.00,VWS V14.01,2013-08-09 10:40:00,
2013-08-09 06:41:00,74.1,72.3,29.97,WSW,242,1.6,8.0,94,0.00,,,0.00,VWS V14.01,2013-08-09 10:41:00,
2013-08-09 06:42:00,74.1,72.3,29.97,WSW,238,4.8,8.0,94,0.00,,,0.00,VWS V14.01,2013-08-09 10:42:00,
2013-08-09 06:43:00,74.1,72.3,29.97,SW,228,4.8,8.0,94,0.00,,,0.00,VWS V14.01,2013-08-09 10:43:00,
2013-08-09 06:44:00,74.1,72.3,29.97,SW,222,4.8,9.6,94,0.00,,,0.00,VWS V14.01,2013-08-09 10:44:00,
2013-08-09 06:45:00,74.1,72.3,29.97,SSW,206,1.6,9.6,94,0.00,,,0.00,VWS V14.01,2013-08-09 10:45:00,
2013-08-09 06:46:00,74.1,72.3,29.97,SW,218,9.6,9.6,94,0.00,,,0.00,VWS V14.01,2013-08-09 10:46:00,
2013-08-09 06:47:00,74.1,72.3,29.97,SW,222,8.0,9.6,94,0.00,,,0.00,VWS V14.01,2013-08-09 10:47:00,
2013-08-09 06:48:00,74.1,72.3,29.97,SW,218,6.4,9.6,94,0.00,,,0.00,VWS V14.01,2013-08-09 10:48:00,
2013-08-09 06:49:00,74.1,72.3,29.97,SW,215,3.2,9.6,94,0.00,,,0.00,VWS V14.01,2013-08-09 10:49:00,
2013-08-09 06:50:00,74.1,72.3,29.97,SW,229,1.6,9.6,94,0.00,,,0.00,VWS V14.01,2013-08-09 10:50:00,
2013-08-09 06:51:00,74.1,72.3,29.97,SW,229,6.4,11.2,94,0.00,,,0.00,VWS V14.01,2013-08-09 10:51:00,
2013-08-09 06:52:00,74.1,72.3,29.98,SW,232,4.8,11.2,94,0.00,,,0.00,VWS V14.01,2013-08-09 10:52:00,
2013-08-09 06:53:00,74.1,72.3,29.98,WSW,240,9.6,9.6,94,0.00,,,0.00,VWS V14.01,2013-08-09 10:53:00,
2013-08-09 06:54:00,74.1,72.3,29.98,SSW,200,6.4,9.6,94,0.00,,,0.00,VWS V14.01,2013-08-09 10:54:00,
2013-08-09 06:55:00,74.1,72.3,29.98,WSW,238,4.8,9.6,94,0.00,,,0.00,VWS V14.01,2013-08-09 10:55:00,
2013-08-09 06:56:00,74.1,72.3,29.97,SW,225,6.4,8.0,94,0.00,,,0.00,VWS V14.01,2013-08-09 10:56:00,
2013-08-09 06:57:00,74.1,72.3,29.97,WSW,255,1.6,8.0,94,0.00,,,0.00,VWS V14.01,2013-08-09 10:57:00,
2013-08-09 06:58:00,74.1,72.3,29.98,SW,223,3.2,8.0,94,0.00,,,0.00,VWS V14.01,2013-08-09 10:58:00,
2013-08-09 06:59:00,74.1,72.3,29.97,SW,229,3.2,4.8,94,0.00,,,0.00,VWS V14.01,2013-08-09 10:59:00,
2013-08-09 07:00:00,74.1,72.3,29.98,WSW,252,1.6,4.8,94,0.00,,,0.00,VWS V14.01,2013-08-09 11:00:00,
2013-08-09 07:01:00,74.1,72.3,29.98,SW,233,9.6,9.6,94,0.00,,,0.00,VWS V14.01,2013-08-09 11:01:00,
2013-08-09 07:02:00,74.1,72.3,29.98,SW,220,4.8,9.6,94,0.00,,,0.00,VWS V14.01,2013-08-09 11:02:00,
2013-08-09 07:03:00,74.1,71.9,29.97,WSW,240,0.0,8.0,93,0.00,,,0.00,VWS V14.01,2013-08-09 11:03:00,
2013-08-09 07:04:00,74.1,71.9,29.98,West,263,1.6,4.8,93,0.00,,,0.00,VWS V14.01,2013-08-09 11:04:00,
2013-08-09 07:05:00,74.1,71.9,29.98,SW,215,3.2,3.2,93,0.00,,,0.00,VWS V14.01,2013-08-09 11:05:00,
2013-08-09 07:06:00,74.1,71.9,29.98,SW,225,8.0,12.8,93,0.00,,,0.00,VWS V14.01,2013-08-09 11:06:00,
2013-08-09 07:07:00,74.1,71.9,29.98,SW,227,4.8,12.8,93,0.00,,,0.00,VWS V14.01,2013-08-09 11:07:00,
2013-08-09 07:08:00,74.1,71.9,29.97,WSW,242,4.8,9.6,93,0.00,,,0.00,VWS V14.01,2013-08-09 11:08:00,
2013-08-09 07:09:00,74.1,71.9,29.98,WSW,256,3.2,9.6,93,0.00,,,0.00,VWS V14.01,2013-08-09 11:09:00,
2013-08-09 07:10:00,74.1,71.9,29.98,SSW,204,6.4,9.6,93,0.00,,,0.00,VWS V14.01,2013-08-09 11:10:00,
2013-08-09 07:11:00,74.1,71.9,29.98,SSW,209,4.8,8.0,93,0.00,,,0.00,VWS V14.01,2013-08-09 11:11:00,
2013-08-09 07:12:00,74.1,71.9,29.98,WSW,246,8.0,12.8,93,0.00,,,0.00,VWS V14.01,2013-08-09 11:12:00,
2013-08-09 07:13:00,74.1,71.9,29.98,SW,215,9.6,12.8,93,0.00,,,0.00,VWS V14.01,2013-08-09 11:13:00,
2013-08-09 07:14:00,74.1,71.9,29.98,WSW,252,1.6,9.6,93,0.00,,,0.00,VWS V14.01,2013-08-09 11:14:00,
2013-08-09 07:15:00,74.1,71.9,29.98,WSW,245,9.6,11.2,93,0.00,,,0.00,VWS V14.01,2013-08-09 11:15:00,
2013-08-09 07:16:00,74.0,71.8,29.98,SSW,213,9.6,11.2,93,0.00,,,0.00,VWS V14.01,2013-08-09 11:16:00,
2013-08-09 07:17:00,74.1,71.9,29.98,West,268,3.2,12.8,93,0.00,,,0.00,VWS V14.01,2013-08-09 11:17:00,
2013-08-09 07:18:00,74.0,71.8,29.98,SW,224,8.0,12.8,93,0.00,,,0.00,VWS V14.01,2013-08-09 11:18:00,
2013-08-09 07:19:00,74.0,71.8,29.98,WSW,243,6.4,11.2,93,0.00,,,0.00,VWS V14.01,2013-08-09 11:19:00,
2013-08-09 07:20:00,74.0,71.8,29.98,WSW,240,9.6,11.2,93,0.00,,,0.00,VWS V14.01,2013-08-09 11:20:00,
2013-08-09 07:21:00,74.0,71.8,29.98,SW,233,8.0,12.8,93,0.00,,,0.00,VWS V14.01,2013-08-09 11:21:00,
2013-08-09 07:22:00,74.0,71.8,29.99,SW,218,8.0,9.6,93,0.00,,,0.00,VWS V14.01,2013-08-09 11:22:00,
2013-08-09 07:23:00,74.0,71.8,29.99,SW,228,6.4,9.6,93,0.00,,,0.00,VWS V14.01,2013-08-09 11:23:00,
2013-08-09 07:24:00,74.0,71.8,29.99,West,268,3.2,6.4,93,0.00,,,0.00,VWS V14.01,2013-08-09 11:24:00,
2013-08-09 07:25:00,74.0,71.8,29.99,SW,222,8.0,8.0,93,0.00,,,0.00,VWS V14.01,2013-08-09 11:25:00,
2013-08-09 07:26:00,74.0,71.8,29.99,SSW,205,6.4,12.8,93,0.00,,,0.00,VWS V14.01,2013-08-09 11:26:00,
2013-08-09 07:27:00,74.0,71.8,29.99,WSW,252,3.2,12.8,93,0.00,,,0.00,VWS V14.01,2013-08-09 11:27:00,
2013-08-09 07:28:00,74.0,71.8,29.99,WSW,250,6.4,9.6,93,0.00,,,0.00,VWS V14.01,2013-08-09 11:28:00,
2013-08-09 07:29:00,74.0,71.8,29.99,SW,229,11.2,14.4,93,0.00,,,0.00,VWS V14.01,2013-08-09 11:29:00,
2013-08-09 07:30:00,74.0,71.8,29.99,SSW,211,11.2,14.4,93,0.00,,,0.00,VWS V14.01,2013-08-09 11:30:00,
2013-08-09 07:31:00,74.0,71.8,29.99,SW,227,3.2,12.8,93,0.00,,,0.00,VWS V14.01,2013-08-09 11:31:00,
2013-08-09 07:32:00,74.0,71.8,29.99,SW,227,3.2,6.4,93,0.00,,,0.00,VWS V14.01,2013-08-09 11:32:00,
2013-08-09 07:33:00,74.0,71.8,30.00,SSW,204,6.4,6.4,93,0.00,,,0.00,VWS V14.01,2013-08-09 11:33:00,
2013-08-09 07:34:00,74.0,71.8,30.00,SW,228,6.4,12.8,93,0.00,,,0.00,VWS V14.01,2013-08-09 11:34:00,
2013-08-09 07:35:00,74.0,71.8,30.00,WSW,241,6.4,12.8,93,0.00,,,0.00,VWS V14.01,2013-08-09 11:35:00,
2013-08-09 07:36:00,74.0,71.8,29.99,SW,232,4.8,9.6,93,0.00,,,0.00,VWS V14.01,2013-08-09 11:36:00,
2013-08-09 07:37:00,74.0,71.8,29.99,SSW,212,6.4,8.0,93,0.00,,,0.00,VWS V14.01,2013-08-09 11:37:00,
2013-08-09 07:38:00,74.0,71.8,29.99,SSW,212,4.8,12.8,93,0.00,,,0.00,VWS V14.01,2013-08-09 11:38:00,
2013-08-09 07:39:00,74.1,71.9,29.99,WSW,245,3.2,12.8,93,0.00,,,0.00,VWS V14.01,2013-08-09 11:39:00,
2013-08-09 07:40:00,74.0,71.8,29.99,SSW,206,6.4,8.0,93,0.00,,,0.00,VWS V14.01,2013-08-09 11:40:00,
2013-08-09 07:41:00,74.1,71.9,29.99,SSW,210,8.0,14.4,93,0.00,,,0.00,VWS V14.01,2013-08-09 11:41:00,
2013-08-09 07:42:00,74.1,71.9,29.99,SSW,200,3.2,14.4,93,0.00,,,0.00,VWS V14.01,2013-08-09 11:42:00,
2013-08-09 07:43:00,74.1,71.9,29.99,SW,229,4.8,9.6,93,0.00,,,0.00,VWS V14.01,2013-08-09 11:43:00,
2013-08-09 07:44:00,74.1,71.9,29.99,SW,236,8.0,11.2,93,0.00,,,0.00,VWS V14.01,2013-08-09 11:44:00,
2013-08-09 07:45:00,74.1,71.9,29.99,SSW,210,4.8,11.2,93,0.00,,,0.00,VWS V14.01,2013-08-09 11:45:00,
2013-08-09 07:46:00,74.1,71.9,29.99,SW,222,11.2,12.8,93,0.00,,,0.00,VWS V14.01,2013-08-09 11:46:00,
2013-08-09 07:47:00,74.1,71.9,29.99,South,190,6.4,12.8,93,0.00,,,0.00,VWS V14.01,2013-08-09 11:47:00,
2013-08-09 07:48:00,74.1,71.9,29.99,WSW,253,6.4,11.2,93,0.00,,,0.00,VWS V14.01,2013-08-09 11:48:00,
2013-08-09 07:49:00,74.1,71.9,29.99,SW,218,4.8,9.6,93,0.00,,,0.00,VWS V14.01,2013-08-09 11:49:00,
2013-08-09 07:50:00,74.2,72.1,29.99,SW,224,8.0,9.6,93,0.00,,,0.00,VWS V14.01,2013-08-09 11:50:00,
2013-08-09 07:51:00,74.2,72.1,29.99,WSW,249,8.0,14.4,93,0.00,,,0.00,VWS V14.01,2013-08-09 11:51:00,
2013-08-09 07:52:00,74.2,72.1,29.99,SSW,204,9.6,14.4,93,0.00,,,0.00,VWS V14.01,2013-08-09 11:52:00,
2013-08-09 07:53:00,74.2,72.1,29.99,WSW,241,6.4,12.8,93,0.00,,,0.00,VWS V14.01,2013-08-09 11:53:00,
2013-08-09 07:54:00,74.2,72.1,29.99,WSW,243,8.0,9.6,93,0.00,,,0.00,VWS V14.01,2013-08-09 11:54:00,
2013-08-09 07:55:00,74.2,72.1,29.99,WSW,255,3.2,9.6,93,0.00,,,0.00,VWS V14.01,2013-08-09 11:55:00,
2013-08-09 07:56:00,74.3,72.2,29.99,SW,224,6.4,9.6,93,0.00,,,0.00,VWS V14.01,2013-08-09 11:56:00,
2013-08-09 07:57:00,74.3,72.2,29.99,WSW,240,3.2,9.6,93,0.00,,,0.00,VWS V14.01,2013-08-09 11:57:00,
2013-08-09 07:58:00,74.3,72.2,29.99,WSW,255,12.8,12.8,93,0.00,,,0.00,VWS V14.01,2013-08-09 11:58:00,
2013-08-09 07:59:00,74.3,72.2,29.99,SW,225,6.4,12.8,93,0.00,,,0.00,VWS V14.01,2013-08-09 11:59:00,
2013-08-09 08:00:00,74.3,71.8,29.99,WSW,247,12.8,12.8,92,0.00,,,0.00,VWS V14.01,2013-08-09 12:00:00,
2013-08-09 08:01:00,74.3,71.8,29.99,SW,215,6.4,14.4,92,0.00,,,0.00,VWS V14.01,2013-08-09 12:01:00,
2013-08-09 08:02:00,74.3,71.8,29.99,WSW,255,4.8,14.4,92,0.00,,,0.00,VWS V14.01,2013-08-09 12:02:00,
2013-08-09 08:03:00,74.3,71.8,29.99,WSW,242,3.2,9.6,92,0.00,,,0.00,VWS V14.01,2013-08-09 12:03:00,
2013-08-09 08:04:00,74.4,71.9,29.99,SW,236,4.8,8.0,92,0.00,,,0.00,VWS V14.01,2013-08-09 12:04:00,
2013-08-09 08:05:00,74.4,71.9,29.99,WSW,252,3.2,8.0,92,0.00,,,0.00,VWS V14.01,2013-08-09 12:05:00,
2013-08-09 08:06:00,74.4,71.9,29.99,WSW,241,4.8,8.0,92,0.00,,,0.00,VWS V14.01,2013-08-09 12:06:00,
2013-08-09 08:07:00,74.4,71.9,29.99,SW,229,9.6,11.2,92,0.00,,,0.00,VWS V14.01,2013-08-09 12:07:00,
2013-08-09 08:08:00,74.4,71.9,29.99,SW,215,3.2,11.2,92,0.00,,,0.00,VWS V14.01,2013-08-09 12:08:00,
2013-08-09 08:09:00,74.4,71.9,29.99,WSW,245,6.4,8.0,92,0.00,,,0.00,VWS V14.01,2013-08-09 12:09:00,
2013-08-09 08:10:00,74.4,71.9,29.99,WSW,248,6.4,12.8,92,0.00,,,0.00,VWS V14.01,2013-08-09 12:10:00,
2013-08-09 08:11:00,74.5,72.0,29.99,WSW,256,3.2,12.8,92,0.00,,,0.00,VWS V14.01,2013-08-09 12:11:00,
2013-08-09 08:12:00,74.5,72.0,29.99,WSW,249,4.8,6.4,92,0.00,,,0.00,VWS V14.01,2013-08-09 12:12:00,
2013-08-09 08:13:00,74.5,72.0,29.99,WSW,254,6.4,8.0,92,0.00,,,0.00,VWS V14.01,2013-08-09 12:13:00,
2013-08-09 08:14:00,74.5,72.0,29.99,SW,232,4.8,9.6,92,0.00,,,0.00,VWS V14.01,2013-08-09 12:14:00,
2013-08-09 08:15:00,74.5,72.0,29.99,WSW,242,4.8,9.6,92,0.00,,,0.00,VWS V14.01,2013-08-09 12:15:00,
2013-08-09 08:16:00,74.6,72.1,29.99,WSW,239,1.6,6.4,92,0.00,,,0.00,VWS V14.01,2013-08-09 12:16:00,
2013-08-09 08:17:00,74.6,72.1,29.99,SW,231,9.6,9.6,92,0.00,,,0.00,VWS V14.01,2013-08-09 12:17:00,
2013-08-09 08:18:00,74.6,72.1,29.99,WSW,246,1.6,9.6,92,0.00,,,0.00,VWS V14.01,2013-08-09 12:18:00,
2013-08-09 08:19:00,74.6,72.1,29.99,WSW,248,6.4,8.0,92,0.00,,,0.00,VWS V14.01,2013-08-09 12:19:00,
2013-08-09 08:20:00,74.7,72.2,29.99,WSW,246,4.8,8.0,92,0.00,,,0.00,VWS V14.01,2013-08-09 12:20:00,
2013-08-09 08:21:00,74.7,72.2,29.99,SW,231,8.0,9.6,92,0.00,,,0.00,VWS V14.01,2013-08-09 12:21:00,
2013-08-09 08:22:00,74.7,72.2,29.99,WSW,248,11.2,12.8,92,0.00,,,0.00,VWS V14.01,2013-08-09 12:22:00,
2013-08-09 08:23:00,74.7,72.2,30.00,WSW,241,3.2,12.8,92,0.00,,,0.00,VWS V14.01,2013-08-09 12:23:00,
2013-08-09 08:24:00,74.8,72.3,30.00,SW,232,8.0,9.6,92,0.00,,,0.00,VWS V14.01,2013-08-09 12:24:00,
2013-08-09 08:25:00,74.8,72.3,30.00,SSW,206,4.8,8.0,92,0.00,,,0.00,VWS V14.01,2013-08-09 12:25:00,
2013-08-09 08:26:00,74.8,72.3,30.00,WSW,246,4.8,8.0,92,0.00,,,0.00,VWS V14.01,2013-08-09 12:26:00,
2013-08-09 08:27:00,74.8,72.3,30.00,SSW,201,3.2,9.6,92,0.00,,,0.00,VWS V14.01,2013-08-09 12:27:00,
2013-08-09 08:28:00,74.9,72.4,30.00,SW,215,8.0,9.6,92,0.00,,,0.00,VWS V14.01,2013-08-09 12:28:00,
2013-08-09 08:29:00,74.9,72.4,30.00,West,260,3.2,8.0,92,0.00,,,0.00,VWS V14.01,2013-08-09 12:29:00,
2013-08-09 08:30:00,74.9,72.4,30.00,WSW,243,4.8,9.6,92,0.00,,,0.00,VWS V14.01,2013-08-09 12:30:00,
2013-08-09 08:31:00,74.9,72.1,30.00,SW,236,4.8,12.8,91,0.00,,,0.00,VWS V14.01,2013-08-09 12:31:00,
2013-08-09 08:32:00,74.9,72.1,30.00,SSW,194,6.4,12.8,91,0.00,,,0.00,VWS V14.01,2013-08-09 12:32:00,
2013-08-09 08:33:00,74.9,72.1,30.00,SW,222,12.8,12.8,91,0.00,,,0.00,VWS V14.01,2013-08-09 12:33:00,
2013-08-09 08:34:00,74.9,72.1,30.00,WSW,241,8.0,12.8,91,0.00,,,0.00,VWS V14.01,2013-08-09 12:34:00,
2013-08-09 08:35:00,74.9,72.1,30.00,WSW,238,4.8,12.8,91,0.00,,,0.00,VWS V14.01,2013-08-09 12:35:00,
2013-08-09 08:36:00,74.9,72.1,30.00,SW,225,4.8,9.6,91,0.00,,,0.00,VWS V14.01,2013-08-09 12:36:00,
2013-08-09 08:37:00,74.9,72.1,30.00,SW,220,4.8,14.4,91,0.00,,,0.00,VWS V14.01,2013-08-09 12:37:00,
2013-08-09 08:38:00,74.9,72.1,30.00,WSW,248,8.0,14.4,91,0.00,,,0.00,VWS V14.01,2013-08-09 12:38:00,
2013-08-09 08:39:00,74.9,72.1,30.01,SW,231,11.2,11.2,91,0.00,,,0.00,VWS V14.01,2013-08-09 12:39:00,
2013-08-09 08:40:00,74.9,72.1,30.01,WSW,240,6.4,11.2,91,0.00,,,0.00,VWS V14.01,2013-08-09 12:40:00,
2013-08-09 08:41:00,74.9,72.1,30.01,WSW,238,6.4,11.2,91,0.00,,,0.00,VWS V14.01,2013-08-09 12:41:00,
2013-08-09 08:42:00,74.9,72.1,30.01,WSW,252,4.8,9.6,91,0.00,,,0.00,VWS V14.01,2013-08-09 12:42:00,
2013-08-09 08:43:00,74.9,72.1,30.01,SW,228,4.8,11.2,91,0.00,,,0.00,VWS V14.01,2013-08-09 12:43:00,
2013-08-09 08:44:00,74.9,72.1,30.01,WSW,237,6.4,16.0,91,0.00,,,0.00,VWS V14.01,2013-08-09 12:44:00,
2013-08-09 08:45:00,74.9,72.1,30.01,SW,220,4.8,16.0,91,0.00,,,0.00,VWS V14.01,2013-08-09 12:45:00,
2013-08-09 08:46:00,74.9,72.1,30.01,WSW,241,11.2,12.8,91,0.00,,,0.00,VWS V14.01,2013-08-09 12:46:00,
2013-08-09 08:47:00,74.9,72.1,30.01,SW,234,11.2,12.8,91,0.00,,,0.00,VWS V14.01,2013-08-09 12:47:00,
2013-08-09 08:48:00,74.9,72.1,30.01,SW,223,9.6,12.8,91,0.00,,,0.00,VWS V14.01,2013-08-09 12:48:00,
2013-08-09 08:49:00,74.9,72.1,30.01,SW,215,4.8,12.8,91,0.00,,,0.00,VWS V14.01,2013-08-09 12:49:00,
2013-08-09 08:50:00,74.9,72.1,30.01,SSW,207,11.2,11.2,91,0.00,,,0.00,VWS V14.01,2013-08-09 12:50:00,
2013-08-09 08:51:00,74.9,72.1,30.01,SSW,213,11.2,11.2,91,0.00,,,0.00,VWS V14.01,2013-08-09 12:51:00,
2013-08-09 08:52:00,74.9,72.1,30.01,WSW,248,4.8,14.4,91,0.00,,,0.00,VWS V14.01,2013-08-09 12:52:00,
2013-08-09 08:53:00,74.9,72.1,30.01,SSW,207,8.0,14.4,91,0.00,,,0.00,VWS V14.01,2013-08-09 12:53:00,
2013-08-09 08:54:00,74.9,72.1,30.01,SSW,207,9.6,12.8,91,0.00,,,0.00,VWS V14.01,2013-08-09 12:54:00,
2013-08-09 08:55:00,74.9,72.1,30.01,SSW,211,19.2,19.2,91,0.00,,,0.00,VWS V14.01,2013-08-09 12:55:00,
2013-08-09 08:56:00,74.9,72.1,30.01,SW,218,12.8,19.2,91,0.00,,,0.00,VWS V14.01,2013-08-09 12:56:00,
2013-08-09 08:57:00,74.9,72.1,30.00,SSW,212,6.4,16.0,91,0.00,,,0.00,VWS V14.01,2013-08-09 12:57:00,
2013-08-09 08:58:00,74.9,72.1,30.00,WSW,243,9.6,16.0,91,0.00,,,0.00,VWS V14.01,2013-08-09 12:58:00,
2013-08-09 08:59:00,74.9,72.1,30.00,SSW,200,9.6,22.4,91,0.00,,,0.00,VWS V14.01,2013-08-09 12:59:00,
2013-08-09 09:00:00,74.9,72.1,30.00,SSW,200,12.8,22.4,91,0.00,,,0.00,VWS V14.01,2013-08-09 13:00:00,
2013-08-09 09:01:00,74.9,72.1,30.00,WSW,246,16.0,19.2,91,0.00,,,0.00,VWS V14.01,2013-08-09 13:01:00,
2013-08-09 09:02:00,74.9,72.1,30.01,SSW,210,4.8,16.0,91,0.00,,,0.00,VWS V14.01,2013-08-09 13:02:00,
2013-08-09 09:03:00,74.9,72.1,30.01,SSW,204,8.0,14.4,91,0.00,,,0.00,VWS V14.01,2013-08-09 13:03:00,
2013-08-09 09:04:00,74.9,72.1,30.01,SW,227,9.6,12.8,91,0.00,,,0.00,VWS V14.01,2013-08-09 13:04:00,
2013-08-09 09:05:00,74.9,72.1,30.01,WSW,240,9.6,14.4,91,0.00,,,0.00,VWS V14.01,2013-08-09 13:05:00,
2013-08-09 09:06:00,74.9,72.1,30.01,SW,232,4.8,16.0,91,0.00,,,0.00,VWS V14.01,2013-08-09 13:06:00,
2013-08-09 09:07:00,74.9,72.1,30.01,SW,215,4.8,16.0,91,0.00,,,0.00,VWS V14.01,2013-08-09 13:07:00,
2013-08-09 09:08:00,74.9,72.1,30.01,SW,220,4.8,12.8,91,0.00,,,0.00,VWS V14.01,2013-08-09 13:08:00,
2013-08-09 09:09:00,74.9,72.1,30.01,South,182,4.8,14.4,91,0.00,,,0.00,VWS V14.01,2013-08-09 13:09:00,
2013-08-09 09:10:00,74.8,72.0,30.01,WSW,250,9.6,14.4,91,0.00,,,0.00,VWS V14.01,2013-08-09 13:10:00,
2013-08-09 09:11:00,74.8,72.0,30.01,SW,215,9.6,9.6,91,0.00,,,0.00,VWS V14.01,2013-08-09 13:11:00,
2013-08-09 09:12:00,74.8,72.0,30.01,WSW,246,6.4,14.4,91,0.00,,,0.00,VWS V14.01,2013-08-09 13:12:00,
2013-08-09 09:13:00,74.8,72.0,30.01,WSW,239,3.2,14.4,91,0.00,,,0.00,VWS V14.01,2013-08-09 13:13:00,
2013-08-09 09:14:00,74.7,71.9,30.01,SW,229,3.2,11.2,91,0.00,,,0.00,VWS V14.01,2013-08-09 13:14:00,
2013-08-09 09:15:00,74.7,71.9,30.00,West,262,6.4,9.6,91,0.00,,,0.00,VWS V14.01,2013-08-09 13:15:00,
2013-08-09 09:16:00,74.7,71.9,30.00,West,272,4.8,9.6,91,0.00,,,0.00,VWS V14.01,2013-08-09 13:16:00,
2013-08-09 09:17:00,74.7,71.9,30.00,SSW,200,6.4,9.6,91,0.00,,,0.00,VWS V14.01,2013-08-09 13:17:00,
2013-08-09 09:18:00,74.6,71.8,30.00,SW,228,6.4,14.4,91,0.00,,,0.00,VWS V14.01,2013-08-09 13:18:00,
2013-08-09 09:19:00,74.6,71.8,30.00,SW,222,6.4,14.4,91,0.00,,,0.00,VWS V14.01,2013-08-09 13:19:00,
2013-08-09 09:20:00,74.6,71.8,30.00,SSW,204,3.2,11.2,91,0.00,,,0.00,VWS V14.01,2013-08-09 13:20:00,
2013-08-09 09:21:00,74.6,71.8,30.00,WSW,237,11.2,11.2,91,0.00,,,0.00,VWS V14.01,2013-08-09 13:21:00,
2013-08-09 09:22:00,74.6,71.8,30.00,SSW,212,4.8,11.2,91,0.00,,,0.00,VWS V14.01,2013-08-09 13:22:00,
2013-08-09 09:23:00,74.5,71.7,30.00,WSW,252,6.4,11.2,91,0.00,,,0.00,VWS V14.01,2013-08-09 13:23:00,
2013-08-09 09:24:00,74.5,71.7,29.99,SW,235,1.6,8.0,91,0.00,,,0.00,VWS V14.01,2013-08-09 13:24:00,
2013-08-09 09:25:00,74.5,72.0,29.99,SW,225,1.6,8.0,92,0.00,,,0.00,VWS V14.01,2013-08-09 13:25:00,
2013-08-09 09:26:00,74.6,72.1,29.99,WSW,239,1.6,6.4,92,0.00,,,0.00,VWS V14.01,2013-08-09 13:26:00,
2013-08-09 09:27:00,74.5,72.0,29.99,SW,233,4.8,11.2,92,0.00,,,0.00,VWS V14.01,2013-08-09 13:27:00,
2013-08-09 09:28:00,74.5,72.0,29.99,WSW,243,0.0,11.2,92,0.00,,,0.00,VWS V14.01,2013-08-09 13:28:00,
2013-08-09 09:29:00,74.5,72.0,29.99,SW,224,6.4,6.4,92,0.01,,,0.01,VWS V14.01,2013-08-09 13:29:00,
2013-08-09 09:30:00,74.6,72.1,29.99,WSW,250,1.6,6.4,92,0.01,,,0.01,VWS V14.01,2013-08-09 13:30:00,
2013-08-09 09:31:00,74.5,72.0,29.99,SW,236,8.0,8.0,92,0.01,,,0.01,VWS V14.01,2013-08-09 13:31:00,
2013-08-09 09:32:00,74.6,72.1,29.99,SW,224,6.4,8.0,92,0.01,,,0.01,VWS V14.01,2013-08-09 13:32:00,
2013-08-09 09:33:00,74.5,72.0,29.99,WSW,249,3.2,11.2,92,0.01,,,0.01,VWS V14.01,2013-08-09 13:33:00,
2013-08-09 09:34:00,74.6,72.1,29.99,SW,222,1.6,11.2,92,0.01,,,0.01,VWS V14.01,2013-08-09 13:34:00,
2013-08-09 09:35:00,74.6,72.1,30.00,WSW,246,3.2,4.8,92,0.01,,,0.01,VWS V14.01,2013-08-09 13:35:00,
2013-08-09 09:36:00,74.6,72.1,30.00,SSW,210,9.6,9.6,92,0.01,,,0.01,VWS V14.01,2013-08-09 13:36:00,
2013-08-09 09:37:00,74.6,72.1,30.00,SSW,200,6.4,9.6,92,0.01,,,0.01,VWS V14.01,2013-08-09 13:37:00,
2013-08-09 09:38:00,74.6,72.1,29.99,SW,236,4.8,6.4,92,0.01,,,0.01,VWS V14.01,2013-08-09 13:38:00,
2013-08-09 09:39:00,74.6,72.1,29.99,SSW,200,4.8,6.4,92,0.01,,,0.01,VWS V14.01,2013-08-09 13:39:00,
2013-08-09 09:40:00,74.6,72.1,29.99,WSW,253,3.2,6.4,92,0.01,,,0.01,VWS V14.01,2013-08-09 13:40:00,
2013-08-09 09:41:00,74.6,72.1,29.99,SW,225,3.2,6.4,92,0.01,,,0.01,VWS V14.01,2013-08-09 13:41:00,
2013-08-09 09:42:00,74.6,72.1,29.99,SSW,209,1.6,6.4,92,0.01,,,0.01,VWS V14.01,2013-08-09 13:42:00,
2013-08-09 09:43:00,74.6,72.1,29.99,WSW,241,0.0,3.2,92,0.01,,,0.01,VWS V14.01,2013-08-09 13:43:00,
2013-08-09 09:44:00,74.6,72.1,29.99,WSW,245,1.6,4.8,92,0.01,,,0.01,VWS V14.01,2013-08-09 13:44:00,
2013-08-09 09:45:00,74.6,72.1,29.99,SW,229,1.6,4.8,92,0.01,,,0.01,VWS V14.01,2013-08-09 13:45:00,
2013-08-09 09:46:00,74.6,72.1,29.99,WSW,255,1.6,4.8,92,0.01,,,0.01,VWS V14.01,2013-08-09 13:46:00,
2013-08-09 09:47:00,74.7,72.2,29.99,WSW,254,1.6,1.6,92,0.01,,,0.01,VWS V14.01,2013-08-09 13:47:00,
2013-08-09 09:48:00,74.6,72.1,29.99,SW,232,3.2,3.2,92,0.01,,,0.01,VWS V14.01,2013-08-09 13:48:00,
2013-08-09 09:49:00,74.6,72.1,29.98,WSW,242,1.6,4.8,92,0.01,,,0.01,VWS V14.01,2013-08-09 13:49:00,
2013-08-09 09:50:00,74.6,72.1,29.98,West,274,1.6,4.8,92,0.01,,,0.01,VWS V14.01,2013-08-09 13:50:00,
2013-08-09 09:51:00,74.6,72.1,29.98,West,274,0.0,3.2,92,0.01,,,0.01,VWS V14.01,2013-08-09 13:51:00,
2013-08-09 09:52:00,74.6,72.1,29.98,West,274,0.0,1.6,92,0.01,,,0.01,VWS V14.01,2013-08-09 13:52:00,
2013-08-09 09:53:00,74.6,72.1,29.98,North,353,0.0,1.6,92,0.01,,,0.01,VWS V14.01,2013-08-09 13:53:00,
2013-08-09 09:54:00,74.7,72.2,29.98,North,353,0.0,1.6,92,0.01,,,0.01,VWS V14.01,2013-08-09 13:54:00,
2013-08-09 09:55:00,74.7,72.2,29.98,West,263,3.2,3.2,92,0.01,,,0.01,VWS V14.01,2013-08-09 13:55:00,
2013-08-09 09:56:00,74.7,72.2,29.98,WSW,249,4.8,4.8,92,0.01,,,0.01,VWS V14.01,2013-08-09 13:56:00,
2013-08-09 09:57:00,74.7,72.2,29.99,WSW,250,3.2,6.4,92,0.01,,,0.01,VWS V14.01,2013-08-09 13:57:00,
2013-08-09 09:58:00,74.6,72.1,29.99,SW,233,3.2,6.4,92,0.01,,,0.01,VWS V14.01,2013-08-09 13:58:00,
2013-08-09 09:59:00,74.7,72.2,29.99,SW,236,1.6,4.8,92,0.01,,,0.01,VWS V14.01,2013-08-09 13:59:00,
2013-08-09 10:00:00,74.7,72.2,29.99,WSW,248,0.0,3.2,92,0.01,,,0.01,VWS V14.01,2013-08-09 14:00:00,
2013-08-09 10:01:00,74.7,72.2,29.99,WSW,248,0.0,1.6,92,0.01,,,0.01,VWS V14.01,2013-08-09 14:01:00,
2013-08-09 10:02:00,74.7,72.2,29.99,WSW,248,1.6,1.6,92,0.01,,,0.01,VWS V14.01,2013-08-09 14:02:00,
2013-08-09 10:03:00,74.7,72.2,29.99,WSW,242,3.2,4.8,92,0.01,,,0.01,VWS V14.01,2013-08-09 14:03:00,
2013-08-09 10:04:00,74.7,72.2,29.99,WSW,241,0.0,4.8,92,0.01,,,0.01,VWS V14.01,2013-08-09 14:04:00,
2013-08-09 10:05:00,74.8,72.3,29.99,SW,217,6.4,6.4,92,0.01,,,0.01,VWS V14.01,2013-08-09 14:05:00,
2013-08-09 10:06:00,74.8,72.3,29.99,WSW,256,3.2,6.4,92,0.01,,,0.01,VWS V14.01,2013-08-09 14:06:00,
2013-08-09 10:07:00,74.8,72.3,29.99,WSW,243,3.2,6.4,92,0.01,,,0.01,VWS V14.01,2013-08-09 14:07:00,
2013-08-09 10:08:00,74.7,72.2,29.99,SW,231,6.4,9.6,92,0.01,,,0.01,VWS V14.01,2013-08-09 14:08:00,
2013-08-09 10:09:00,74.7,72.2,29.99,WSW,242,3.2,9.6,92,0.01,,,0.01,VWS V14.01,2013-08-09 14:09:00,
2013-08-09 10:10:00,74.8,72.3,29.99,SW,232,4.8,8.0,92,0.01,,,0.01,VWS V14.01,2013-08-09 14:10:00,
2013-08-09 10:11:00,74.8,72.3,29.99,SW,236,6.4,9.6,92,0.01,,,0.01,VWS V14.01,2013-08-09 14:11:00,
2013-08-09 10:12:00,74.7,72.2,29.99,SW,235,4.8,9.6,92,0.01,,,0.01,VWS V14.01,2013-08-09 14:12:00,
2013-08-09 10:13:00,74.8,72.3,29.99,SW,227,3.2,4.8,92,0.01,,,0.01,VWS V14.01,2013-08-09 14:13:00,
2013-08-09 10:14:00,74.7,72.2,29.99,SSW,210,4.8,6.4,92,0.01,,,0.01,VWS V14.01,2013-08-09 14:14:00,
2013-08-09 10:15:00,74.8,72.3,29.99,SW,234,4.8,6.4,92,0.01,,,0.01,VWS V14.01,2013-08-09 14:15:00,
2013-08-09 10:16:00,74.8,72.3,29.99,South,182,1.6,8.0,92,0.01,,,0.01,VWS V14.01,2013-08-09 14:16:00,
2013-08-09 10:17:00,74.8,72.3,29.99,SW,225,3.2,8.0,92,0.01,,,0.01,VWS V14.01,2013-08-09 14:17:00,
2013-08-09 10:18:00,74.8,72.3,29.99,WSW,238,1.6,4.8,92,0.01,,,0.01,VWS V14.01,2013-08-09 14:18:00,
2013-08-09 10:19:00,74.8,72.3,29.99,SW,218,6.4,6.4,92,0.01,,,0.01,VWS V14.01,2013-08-09 14:19:00,
2013-08-09 10:20:00,74.8,72.3,29.99,WSW,243,1.6,6.4,92,0.01,,,0.01,VWS V14.01,2013-08-09 14:20:00,
2013-08-09 10:21:00,74.8,72.3,29.99,WSW,248,1.6,4.8,92,0.01,,,0.01,VWS V14.01,2013-08-09 14:21:00,
2013-08-09 10:22:00,74.8,72.3,29.98,SSE,166,4.8,4.8,92,0.01,,,0.01,VWS V14.01,2013-08-09 14:22:00,
2013-08-09 10:23:00,74.8,72.3,29.98,SSW,194,0.0,4.8,92,0.01,,,0.01,VWS V14.01,2013-08-09 14:23:00,
2013-08-09 10:24:00,74.8,72.0,29.98,SW,222,3.2,4.8,91,0.01,,,0.01,VWS V14.01,2013-08-09 14:24:00,
2013-08-09 10:25:00,74.9,72.1,29.98,SW,224,0.0,3.2,91,0.01,,,0.01,VWS V14.01,2013-08-09 14:25:00,
2013-08-09 10:26:00,74.9,72.4,29.98,SW,221,4.8,4.8,92,0.01,,,0.01,VWS V14.01,2013-08-09 14:26:00,
2013-08-09 10:27:00,74.9,72.1,29.98,SW,215,4.8,6.4,91,0.01,,,0.01,VWS V14.01,2013-08-09 14:27:00,
2013-08-09 10:28:00,74.9,72.1,29.98,West,268,3.2,6.4,91,0.01,,,0.01,VWS V14.01,2013-08-09 14:28:00,
2013-08-09 10:29:00,74.9,72.1,29.98,SW,224,3.2,4.8,91,0.01,,,0.01,VWS V14.01,2013-08-09 14:29:00,
2013-08-09 10:30:00,75.0,72.2,29.98,WSW,245,4.8,6.4,91,0.00,,,0.01,VWS V14.01,2013-08-09 14:30:00,
2013-08-09 10:31:00,75.0,72.2,29.99,SW,236,4.8,6.4,91,0.00,,,0.01,VWS V14.01,2013-08-09 14:31:00,
2013-08-09 10:32:00,75.0,72.2,29.99,WSW,247,8.0,8.0,91,0.00,,,0.01,VWS V14.01,2013-08-09 14:32:00,
2013-08-09 10:33:00,75.0,72.2,29.99,WSW,248,8.0,11.2,91,0.00,,,0.01,VWS V14.01,2013-08-09 14:33:00,
2013-08-09 10:34:00,75.0,72.2,29.99,SW,233,8.0,16.0,91,0.00,,,0.01,VWS V14.01,2013-08-09 14:34:00,
2013-08-09 10:35:00,74.9,72.1,29.99,SSW,213,8.0,16.0,91,0.00,,,0.01,VWS V14.01,2013-08-09 14:35:00,
2013-08-09 10:36:00,74.9,72.1,29.99,SW,226,3.2,14.4,91,0.00,,,0.01,VWS V14.01,2013-08-09 14:36:00,
2013-08-09 10:37:00,74.9,72.1,29.99,SSW,201,8.0,11.2,91,0.00,,,0.01,VWS V14.01,2013-08-09 14:37:00,
2013-08-09 10:38:00,74.9,72.1,29.99,South,182,8.0,11.2,91,0.00,,,0.01,VWS V14.01,2013-08-09 14:38:00,
2013-08-09 10:39:00,74.9,72.1,29.99,SW,215,8.0,9.6,91,0.00,,,0.01,VWS V14.01,2013-08-09 14:39:00,
2013-08-09 10:40:00,74.9,72.1,30.00,SW,234,11.2,12.8,91,0.00,,,0.01,VWS V14.01,2013-08-09 14:40:00,
2013-08-09 10:41:00,74.9,72.1,30.00,South,191,6.4,12.8,91,0.00,,,0.01,VWS V14.01,2013-08-09 14:41:00,
2013-08-09 10:42:00,74.9,72.1,30.00,SW,233,12.8,12.8,91,0.00,,,0.01,VWS V14.01,2013-08-09 14:42:00,
2013-08-09 10:43:00,74.9,72.1,30.00,SSW,200,8.0,12.8,91,0.00,,,0.01,VWS V14.01,2013-08-09 14:43:00,
2013-08-09 10:44:00,74.9,72.1,30.00,SSW,208,8.0,12.8,91,0.00,,,0.01,VWS V14.01,2013-08-09 14:44:00,
2013-08-09 10:45:00,74.9,71.8,30.00,SW,218,3.2,9.6,90,0.00,,,0.01,VWS V14.01,2013-08-09 14:45:00,
2013-08-09 10:46:00,74.9,72.1,30.00,WSW,242,8.0,8.0,91,0.00,,,0.01,VWS V14.01,2013-08-09 14:46:00,
2013-08-09 10:47:00,74.8,72.0,30.00,SW,227,12.8,12.8,91,0.00,,,0.01,VWS V14.01,2013-08-09 14:47:00,
2013-08-09 10:48:00,74.8,71.7,30.00,SW,225,11.2,14.4,90,0.00,,,0.01,VWS V14.01,2013-08-09 14:48:00,
2013-08-09 10:49:00,74.8,71.7,30.00,WSW,243,6.4,14.4,90,0.00,,,0.01,VWS V14.01,2013-08-09 14:49:00,
2013-08-09 10:50:00,74.8,72.0,30.00,SW,227,6.4,11.2,91,0.00,,,0.01,VWS V14.01,2013-08-09 14:50:00,
2013-08-09 10:51:00,74.8,72.0,30.00,SW,226,6.4,9.6,91,0.00,,,0.01,VWS V14.01,2013-08-09 14:51:00,
2013-08-09 10:52:00,74.8,72.0,30.00,SSW,212,4.8,9.6,91,0.00,,,0.01,VWS V14.01,2013-08-09 14:52:00,
2013-08-09 10:53:00,74.8,72.0,30.00,WSW,245,4.8,9.6,91,0.00,,,0.01,VWS V14.01,2013-08-09 14:53:00,
2013-08-09 10:54:00,74.8,72.0,30.00,WSW,246,4.8,8.0,91,0.00,,,0.01,VWS V14.01,2013-08-09 14:54:00,
2013-08-09 10:55:00,74.9,72.1,30.00,WSW,252,8.0,9.6,91,0.00,,,0.01,VWS V14.01,2013-08-09 14:55:00,
2013-08-09 10:56:00,74.9,72.1,30.00,SW,228,6.4,14.4,91,0.00,,,0.01,VWS V14.01,2013-08-09 14:56:00,
2013-08-09 10:57:00,75.0,72.2,30.00,SW,225,1.6,14.4,91,0.00,,,0.01,VWS V14.01,2013-08-09 14:57:00,
2013-08-09 10:58:00,75.0,72.2,30.00,WSW,245,4.8,8.0,91,0.00,,,0.01,VWS V14.01,2013-08-09 14:58:00,
2013-08-09 10:59:00,75.1,72.3,30.00,WNW,282,4.8,4.8,91,0.00,,,0.01,VWS V14.01,2013-08-09 14:59:00,
2013-08-09 11:00:00,75.2,72.4,30.00,WSW,249,9.6,9.6,91,0.00,,,0.01,VWS V14.01,2013-08-09 15:00:00,
2013-08-09 11:01:00,75.2,72.4,30.00,WSW,256,1.6,9.6,91,0.00,,,0.01,VWS V14.01,2013-08-09 15:01:00,
2013-08-09 11:02:00,75.3,72.5,30.00,SW,224,3.2,9.6,91,0.00,,,0.01,VWS V14.01,2013-08-09 15:02:00,
2013-08-09 11:03:00,75.4,72.6,30.00,WSW,248,4.8,9.6,91,0.00,,,0.01,VWS V14.01,2013-08-09 15:03:00,
2013-08-09 11:04:00,75.4,72.6,30.00,SW,215,6.4,8.0,91,0.00,,,0.01,VWS V14.01,2013-08-09 15:04:00,
2013-08-09 11:05:00,75.6,72.8,30.00,WSW,239,1.6,8.0,91,0.00,,,0.01,VWS V14.01,2013-08-09 15:05:00,
2013-08-09 11:06:00,75.7,72.9,30.00,SW,215,8.0,9.6,91,0.00,,,0.01,VWS V14.01,2013-08-09 15:06:00,
2013-08-09 11:07:00,75.7,72.6,30.00,WSW,241,6.4,11.2,90,0.00,,,0.01,VWS V14.01,2013-08-09 15:07:00,
2013-08-09 11:08:00,75.8,72.7,30.00,West,263,3.2,11.2,90,0.00,,,0.01,VWS V14.01,2013-08-09 15:08:00,
2013-08-09 11:09:00,75.9,72.8,30.00,West,280,1.6,9.6,90,0.00,,,0.01,VWS V14.01,2013-08-09 15:09:00,
2013-08-09 11:10:00,76.0,72.9,30.00,SW,220,6.4,8.0,90,0.00,,,0.01,VWS V14.01,2013-08-09 15:10:00,
2013-08-09 11:11:00,76.2,73.1,30.00,WSW,248,6.4,8.0,90,0.00,,,0.01,VWS V14.01,2013-08-09 15:11:00,
2013-08-09 11:12:00,76.3,73.2,30.00,West,266,11.2,12.8,90,0.00,,,0.01,VWS V14.01,2013-08-09 15:12:00,
2013-08-09 11:13:00,76.4,72.9,30.00,SW,236,9.6,12.8,89,0.00,,,0.01,VWS V14.01,2013-08-09 15:13:00,
2013-08-09 11:14:00,76.4,72.9,30.00,SW,236,9.6,14.4,89,0.00,,,0.01,VWS V14.01,2013-08-09 15:14:00,
2013-08-09 11:15:00,76.5,73.0,30.00,West,259,11.2,14.4,89,0.00,,,0.01,VWS V14.01,2013-08-09 15:15:00,
2013-08-09 11:16:00,76.5,73.0,30.00,West,262,6.4,12.8,89,0.00,,,0.01,VWS V14.01,2013-08-09 15:16:00,
2013-08-09 11:17:00,76.6,73.1,30.00,West,266,6.4,8.0,89,0.00,,,0.01,VWS V14.01,2013-08-09 15:17:00,
2013-08-09 11:18:00,76.7,73.2,30.00,WSW,246,12.8,12.8,89,0.00,,,0.01,VWS V14.01,2013-08-09 15:18:00,
2013-08-09 11:19:00,76.8,73.3,30.00,West,274,14.4,14.4,89,0.00,,,0.01,VWS V14.01,2013-08-09 15:19:00,
2013-08-09 11:20:00,76.8,73.0,30.00,WSW,256,8.0,14.4,88,0.00,,,0.01,VWS V14.01,2013-08-09 15:20:00,
2013-08-09 11:21:00,76.9,73.1,30.00,West,272,9.6,14.4,88,0.00,,,0.01,VWS V14.01,2013-08-09 15:21:00,
2013-08-09 11:22:00,77.0,73.2,30.00,WSW,250,4.8,14.4,88,0.00,,,0.01,VWS V14.01,2013-08-09 15:22:00,
2013-08-09 11:23:00,77.1,73.3,30.00,West,269,4.8,12.8,88,0.00,,,0.01,VWS V14.01,2013-08-09 15:23:00,
2013-08-09 11:24:00,77.3,73.5,30.00,West,272,6.4,9.6,88,0.00,,,0.01,VWS V14.01,2013-08-09 15:24:00,
2013-08-09 11:25:00,77.5,73.7,30.00,SW,226,8.0,9.6,88,0.00,,,0.01,VWS V14.01,2013-08-09 15:25:00,
2013-08-09 11:26:00,77.7,73.9,30.00,SW,224,9.6,14.4,88,0.00,,,0.01,VWS V14.01,2013-08-09 15:26:00,
2013-08-09 11:27:00,77.7,73.5,30.00,SW,236,9.6,14.4,87,0.00,,,0.01,VWS V14.01,2013-08-09 15:27:00,
2013-08-09 11:28:00,77.8,73.6,30.00,WSW,253,4.8,12.8,87,0.00,,,0.01,VWS V14.01,2013-08-09 15:28:00,
2013-08-09 11:29:00,77.8,73.6,30.00,West,274,9.6,11.2,87,0.00,,,0.01,VWS V14.01,2013-08-09 15:29:00,
2013-08-09 11:30:00,77.8,73.3,30.00,West,276,6.4,11.2,86,0.00,,,0.01,VWS V14.01,2013-08-09 15:30:00,
2013-08-09 11:31:00,77.8,73.3,30.00,WSW,257,6.4,11.2,86,0.00,,,0.01,VWS V14.01,2013-08-09 15:31:00,
2013-08-09 11:32:00,77.9,73.4,30.00,WSW,253,9.6,11.2,86,0.00,,,0.01,VWS V14.01,2013-08-09 15:32:00,
2013-08-09 11:33:00,78.0,73.8,30.00,WSW,255,8.0,12.8,87,0.00,,,0.01,VWS V14.01,2013-08-09 15:33:00,
2013-08-09 11:34:00,78.1,73.6,30.00,West,266,3.2,12.8,86,0.00,,,0.01,VWS V14.01,2013-08-09 15:34:00,
2013-08-09 11:35:00,78.3,73.8,30.00,West,266,8.0,14.4,86,0.00,,,0.01,VWS V14.01,2013-08-09 15:35:00,
2013-08-09 11:36:00,78.4,73.5,30.00,West,260,9.6,14.4,85,0.00,,,0.01,VWS V14.01,2013-08-09 15:36:00,
2013-08-09 11:37:00,78.4,73.5,30.00,West,268,12.8,16.0,85,0.00,,,0.01,VWS V14.01,2013-08-09 15:37:00,
2013-08-09 11:38:00,78.5,73.6,30.00,WSW,253,4.8,16.0,85,0.00,,,0.01,VWS V14.01,2013-08-09 15:38:00,
2013-08-09 11:39:00,78.5,73.6,30.00,SW,227,11.2,12.8,85,0.00,,,0.01,VWS V14.01,2013-08-09 15:39:00,
2013-08-09 11:40:00,78.5,74.0,30.00,West,263,9.6,12.8,86,0.00,,,0.01,VWS V14.01,2013-08-09 15:40:00,
2013-08-09 11:41:00,78.6,73.7,30.00,West,260,8.0,12.8,85,0.00,,,0.01,VWS V14.01,2013-08-09 15:41:00,
2013-08-09 11:42:00,78.7,74.2,30.00,SW,225,9.6,12.8,86,0.00,,,0.01,VWS V14.01,2013-08-09 15:42:00,
2013-08-09 11:43:00,78.7,73.8,30.00,WSW,250,8.0,16.0,85,0.00,,,0.01,VWS V14.01,2013-08-09 15:43:00,
2013-08-09 11:44:00,78.8,73.9,30.00,WSW,255,9.6,16.0,85,0.00,,,0.01,VWS V14.01,2013-08-09 15:44:00,
2013-08-09 11:45:00,78.9,73.7,30.00,SSW,206,12.8,16.0,84,0.00,,,0.01,VWS V14.01,2013-08-09 15:45:00,
2013-08-09 11:46:00,78.9,73.7,30.00,SSW,207,9.6,16.0,84,0.00,,,0.01,VWS V14.01,2013-08-09 15:46:00,
2013-08-09 11:47:00,79.0,74.1,30.00,West,280,4.8,12.8,85,0.00,,,0.01,VWS V14.01,2013-08-09 15:47:00,
2013-08-09 11:48:00,79.1,74.2,30.00,WSW,241,9.6,12.8,85,0.00,,,0.01,VWS V14.01,2013-08-09 15:48:00,
2013-08-09 11:49:00,79.1,73.8,30.00,SSW,208,9.6,12.8,84,0.00,,,0.01,VWS V14.01,2013-08-09 15:49:00,
2013-08-09 11:50:00,79.2,73.9,30.00,SW,234,4.8,12.8,84,0.00,,,0.01,VWS V14.01,2013-08-09 15:50:00,
2013-08-09 11:51:00,79.4,74.5,30.00,West,269,4.8,11.2,85,0.00,,,0.01,VWS V14.01,2013-08-09 15:51:00,
2013-08-09 11:52:00,79.7,74.8,29.99,WSW,250,6.4,9.6,85,0.00,,,0.01,VWS V14.01,2013-08-09 15:52:00,
2013-08-09 11:53:00,79.9,74.6,29.99,West,260,11.2,14.4,84,0.00,,,0.01,VWS V14.01,2013-08-09 15:53:00,
2013-08-09 11:54:00,79.9,74.3,29.99,SW,233,8.0,14.4,83,0.00,,,0.01,VWS V14.01,2013-08-09 15:54:00,
2013-08-09 11:55:00,80.0,74.4,29.99,SW,225,3.2,11.2,83,0.00,,,0.01,VWS V14.01,2013-08-09 15:55:00,
2013-08-09 11:56:00,80.1,74.8,29.99,West,272,8.0,9.6,84,0.00,,,0.01,VWS V14.01,2013-08-09 15:56:00,
2013-08-09 11:57:00,80.2,74.6,29.99,West,281,3.2,8.0,83,0.00,,,0.01,VWS V14.01,2013-08-09 15:57:00,
2013-08-09 11:58:00,80.3,74.7,29.99,WSW,256,6.4,8.0,83,0.00,,,0.01,VWS V14.01,2013-08-09 15:58:00,
2013-08-09 11:59:00,80.3,74.7,29.99,WNW,286,11.2,11.2,83,0.00,,,0.01,VWS V14.01,2013-08-09 15:59:00,
2013-08-09 12:00:00,80.4,74.4,30.00,WSW,255,8.0,16.0,82,0.00,,,0.01,VWS V14.01,2013-08-09 16:00:00,
2013-08-09 12:01:00,80.3,73.9,29.99,WSW,253,6.4,16.0,81,0.00,,,0.01,VWS V14.01,2013-08-09 16:01:00,
2013-08-09 12:02:00,80.3,74.3,29.99,WSW,238,12.8,12.8,82,0.00,,,0.01,VWS V14.01,2013-08-09 16:02:00,
2013-08-09 12:03:00,80.4,74.4,29.99,WSW,245,6.4,12.8,82,0.00,,,0.01,VWS V14.01,2013-08-09 16:03:00,
2013-08-09 12:04:00,80.5,74.5,29.99,WSW,246,9.6,12.8,82,0.00,,,0.01,VWS V14.01,2013-08-09 16:04:00,
2013-08-09 12:05:00,80.5,74.5,30.00,NW,305,4.8,9.6,82,0.00,,,0.01,VWS V14.01,2013-08-09 16:05:00,
2013-08-09 12:06:00,80.5,74.5,30.00,SW,218,17.6,17.6,82,0.00,,,0.01,VWS V14.01,2013-08-09 16:06:00,
2013-08-09 12:07:00,80.4,74.0,30.00,SSW,211,12.8,20.8,81,0.00,,,0.01,VWS V14.01,2013-08-09 16:07:00,
2013-08-09 12:08:00,80.3,73.9,30.00,WSW,250,14.4,20.8,81,0.00,,,0.01,VWS V14.01,2013-08-09 16:08:00,
2013-08-09 12:09:00,80.2,73.8,30.00,West,264,8.0,17.6,81,0.00,,,0.01,VWS V14.01,2013-08-09 16:09:00,
2013-08-09 12:10:00,80.1,74.1,30.00,WSW,250,8.0,17.6,82,0.00,,,0.01,VWS V14.01,2013-08-09 16:10:00,
2013-08-09 12:11:00,80.2,74.2,30.00,WNW,287,9.6,12.8,82,0.00,,,0.01,VWS V14.01,2013-08-09 16:11:00,
2013-08-09 12:12:00,80.2,74.2,30.00,West,270,4.8,14.4,82,0.00,,,0.01,VWS V14.01,2013-08-09 16:12:00,
2013-08-09 12:13:00,80.2,74.2,30.00,SW,225,8.0,14.4,82,0.00,,,0.01,VWS V14.01,2013-08-09 16:13:00,
2013-08-09 12:14:00,80.2,74.2,30.00,SW,225,8.0,9.6,82,0.00,,,0.01,VWS V14.01,2013-08-09 16:14:00,
2013-08-09 12:15:00,80.3,74.3,30.00,WSW,249,8.0,9.6,82,0.00,,,0.01,VWS V14.01,2013-08-09 16:15:00,
2013-08-09 12:16:00,80.2,73.8,30.00,WNW,299,8.0,11.2,81,0.00,,,0.01,VWS V14.01,2013-08-09 16:16:00,
2013-08-09 12:17:00,80.2,73.8,30.00,WSW,253,3.2,11.2,81,0.00,,,0.01,VWS V14.01,2013-08-09 16:17:00,
2013-08-09 12:18:00,80.3,74.3,30.00,SSW,201,12.8,12.8,82,0.00,,,0.01,VWS V14.01,2013-08-09 16:18:00,
2013-08-09 12:19:00,80.2,73.8,30.00,West,269,4.8,12.8,81,0.00,,,0.01,VWS V14.01,2013-08-09 16:19:00,
2013-08-09 12:20:00,80.2,74.2,30.00,West,262,6.4,12.8,82,0.00,,,0.01,VWS V14.01,2013-08-09 16:20:00,
2013-08-09 12:21:00,80.2,74.6,30.00,WSW,243,8.0,9.6,83,0.00,,,0.01,VWS V14.01,2013-08-09 16:21:00,
2013-08-09 12:22:00,80.3,74.7,30.00,WSW,255,6.4,9.6,83,0.00,,,0.01,VWS V14.01,2013-08-09 16:22:00,
2013-08-09 12:23:00,80.3,74.3,30.00,WSW,245,6.4,11.2,82,0.00,,,0.01,VWS V14.01,2013-08-09 16:23:00,
2013-08-09 12:24:00,80.4,74.4,30.00,WSW,240,3.2,11.2,82,0.00,,,0.01,VWS V14.01,2013-08-09 16:24:00,
2013-08-09 12:25:00,80.5,74.5,30.00,SSW,208,8.0,8.0,82,0.00,,,0.01,VWS V14.01,2013-08-09 16:25:00,
2013-08-09 12:26:00,80.6,74.6,30.00,WSW,254,6.4,8.0,82,0.00,,,0.01,VWS V14.01,2013-08-09 16:26:00,
2013-08-09 12:27:00,80.8,75.2,30.00,SSW,213,8.0,9.6,83,0.00,,,0.01,VWS V14.01,2013-08-09 16:27:00,
2013-08-09 12:28:00,80.9,74.5,30.00,West,266,12.8,12.8,81,0.00,,,0.01,VWS V14.01,2013-08-09 16:28:00,
2013-08-09 12:29:00,80.9,74.5,30.00,WSW,246,12.8,12.8,81,0.00,,,0.01,VWS V14.01,2013-08-09 16:29:00,
2013-08-09 12:30:00,80.8,74.1,30.00,WSW,248,9.6,17.6,80,0.00,,,0.01,VWS V14.01,2013-08-09 16:30:00,
2013-08-09 12:31:00,80.7,74.0,30.00,WSW,247,6.4,17.6,80,0.00,,,0.01,VWS V14.01,2013-08-09 16:31:00,
2013-08-09 12:32:00,80.6,74.2,30.00,WSW,256,6.4,12.8,81,0.00,,,0.01,VWS V14.01,2013-08-09 16:32:00,
2013-08-09 12:33:00,80.6,74.2,30.00,WSW,238,11.2,14.4,81,0.00,,,0.01,VWS V14.01,2013-08-09 16:33:00,
2013-08-09 12:34:00,80.6,74.2,30.00,SW,236,11.2,14.4,81,0.00,,,0.01,VWS V14.01,2013-08-09 16:34:00,
2013-08-09 12:35:00,80.6,74.2,30.00,WSW,249,11.2,17.6,81,0.00,,,0.01,VWS V14.01,2013-08-09 16:35:00,
2013-08-09 12:36:00,80.6,73.9,30.00,WSW,253,4.8,17.6,80,0.00,,,0.01,VWS V14.01,2013-08-09 16:36:00,
2013-08-09 12:37:00,80.6,74.2,30.00,WSW,240,9.6,12.8,81,0.00,,,0.01,VWS V14.01,2013-08-09 16:37:00,
2013-08-09 12:38:00,80.6,74.2,30.00,WSW,248,12.8,12.8,81,0.00,,,0.01,VWS V14.01,2013-08-09 16:38:00,
2013-08-09 12:39:00,80.6,74.2,30.00,West,277,12.8,12.8,81,0.00,,,0.01,VWS V14.01,2013-08-09 16:39:00,
2013-08-09 12:40:00,80.7,74.3,30.00,WSW,252,11.2,14.4,81,0.00,,,0.01,VWS V14.01,2013-08-09 16:40:00,
2013-08-09 12:41:00,80.8,74.1,30.00,WSW,248,12.8,17.6,80,0.00,,,0.01,VWS V14.01,2013-08-09 16:41:00,
2013-08-09 12:42:00,80.7,73.6,30.00,WSW,257,6.4,17.6,79,0.00,,,0.01,VWS V14.01,2013-08-09 16:42:00,
2013-08-09 12:43:00,80.7,74.0,30.00,North,358,11.2,17.6,80,0.00,,,0.01,VWS V14.01,2013-08-09 16:43:00,
2013-08-09 12:44:00,80.7,74.0,30.00,West,260,17.6,19.2,80,0.00,,,0.01,VWS V14.01,2013-08-09 16:44:00,
2013-08-09 12:45:00,80.6,73.9,30.00,West,265,9.6,19.2,80,0.00,,,0.01,VWS V14.01,2013-08-09 16:45:00,
2013-08-09 12:46:00,80.5,73.8,30.00,WSW,255,11.2,14.4,80,0.00,,,0.01,VWS V14.01,2013-08-09 16:46:00,
2013-08-09 12:47:00,80.5,73.8,30.00,WSW,255,8.0,14.4,80,0.00,,,0.01,VWS V14.01,2013-08-09 16:47:00,
2013-08-09 12:48:00,80.5,74.1,30.00,WSW,245,4.8,14.4,81,0.00,,,0.01,VWS V14.01,2013-08-09 16:48:00,
2013-08-09 12:49:00,80.4,74.0,30.00,SW,232,8.0,14.4,81,0.00,,,0.01,VWS V14.01,2013-08-09 16:49:00,
2013-08-09 12:50:00,80.3,73.9,30.00,WSW,243,9.6,12.8,81,0.00,,,0.01,VWS V14.01,2013-08-09 16:50:00,
2013-08-09 12:51:00,80.3,73.9,30.00,WSW,246,4.8,11.2,81,0.00,,,0.01,VWS V14.01,2013-08-09 16:51:00,
2013-08-09 12:52:00,80.2,73.8,30.00,WSW,252,4.8,8.0,81,0.00,,,0.01,VWS V14.01,2013-08-09 16:52:00,
2013-08-09 12:53:00,80.2,73.8,30.00,WSW,257,14.4,14.4,81,0.00,,,0.01,VWS V14.01,2013-08-09 16:53:00,
2013-08-09 12:54:00,80.2,73.8,30.00,West,259,9.6,16.0,81,0.00,,,0.01,VWS V14.01,2013-08-09 16:54:00,
2013-08-09 12:55:00,80.1,73.8,30.00,WSW,248,4.8,16.0,81,0.00,,,0.01,VWS V14.01,2013-08-09 16:55:00,
2013-08-09 12:56:00,80.2,73.8,30.00,WSW,243,4.8,9.6,81,0.00,,,0.01,VWS V14.01,2013-08-09 16:56:00,
2013-08-09 12:57:00,80.3,73.9,30.00,WSW,250,11.2,11.2,81,0.00,,,0.01,VWS V14.01,2013-08-09 16:57:00,
2013-08-09 12:58:00,80.3,73.9,30.00,West,278,4.8,11.2,81,0.00,,,0.01,VWS V14.01,2013-08-09 16:58:00,
2013-08-09 12:59:00,80.4,73.7,30.00,WSW,256,11.2,16.0,80,0.00,,,0.01,VWS V14.01,2013-08-09 16:59:00,
2013-08-09 13:00:00,80.5,73.8,30.00,SW,227,6.4,16.0,80,0.00,,,0.01,VWS V14.01,2013-08-09 17:00:00,
2013-08-09 13:01:00,80.7,74.3,30.00,WSW,247,4.8,14.4,81,0.00,,,0.01,VWS V14.01,2013-08-09 17:01:00,
2013-08-09 13:02:00,80.8,74.4,30.00,SW,235,8.0,12.8,81,0.00,,,0.01,VWS V14.01,2013-08-09 17:02:00,
2013-08-09 13:03:00,80.9,74.5,30.00,WSW,247,4.8,12.8,81,0.00,,,0.01,VWS V14.01,2013-08-09 17:03:00,
2013-08-09 13:04:00,81.0,74.6,29.99,West,259,3.2,12.8,81,0.00,,,0.01,VWS V14.01,2013-08-09 17:04:00,
2013-08-09 13:05:00,81.2,74.4,29.99,SW,221,12.8,14.4,80,0.00,,,0.01,VWS V14.01,2013-08-09 17:05:00,
2013-08-09 13:06:00,81.2,74.4,29.99,SW,220,9.6,14.4,80,0.00,,,0.01,VWS V14.01,2013-08-09 17:06:00,
2013-08-09 13:07:00,81.3,74.2,29.99,WNW,294,6.4,11.2,79,0.00,,,0.01,VWS V14.01,2013-08-09 17:07:00,
2013-08-09 13:08:00,81.3,74.2,29.99,WSW,238,8.0,12.8,79,0.00,,,0.01,VWS V14.01,2013-08-09 17:08:00,
2013-08-09 13:09:00,81.4,74.3,29.99,SW,236,6.4,12.8,79,0.00,,,0.01,VWS V14.01,2013-08-09 17:09:00,
2013-08-09 13:10:00,81.6,74.5,30.00,SSW,204,11.2,16.0,79,0.00,,,0.01,VWS V14.01,2013-08-09 17:10:00,
2013-08-09 13:11:00,81.8,75.0,29.99,SSW,210,6.4,16.0,80,0.00,,,0.01,VWS V14.01,2013-08-09 17:11:00,
2013-08-09 13:12:00,82.0,75.2,30.00,SW,215,6.4,12.8,80,0.00,,,0.01,VWS V14.01,2013-08-09 17:12:00,
2013-08-09 13:13:00,82.0,74.5,29.99,SW,224,11.2,12.8,78,0.00,,,0.01,VWS V14.01,2013-08-09 17:13:00,
2013-08-09 13:14:00,82.0,74.5,29.99,WSW,253,6.4,12.8,78,0.00,,,0.01,VWS V14.01,2013-08-09 17:14:00,
2013-08-09 13:15:00,82.0,74.1,29.99,WSW,248,9.6,11.2,77,0.00,,,0.01,VWS V14.01,2013-08-09 17:15:00,
2013-08-09 13:16:00,81.9,74.0,29.99,West,266,6.4,12.8,77,0.00,,,0.01,VWS V14.01,2013-08-09 17:16:00,
2013-08-09 13:17:00,81.8,74.3,29.99,SW,231,3.2,12.8,78,0.00,,,0.01,VWS V14.01,2013-08-09 17:17:00,
2013-08-09 13:18:00,81.9,74.8,29.99,SW,231,9.6,11.2,79,0.00,,,0.01,VWS V14.01,2013-08-09 17:18:00,
2013-08-09 13:19:00,81.9,74.8,29.99,SW,232,9.6,11.2,79,0.00,,,0.01,VWS V14.01,2013-08-09 17:19:00,
2013-08-09 13:20:00,81.8,74.7,29.99,WSW,256,12.8,12.8,79,0.00,,,0.01,VWS V14.01,2013-08-09 17:20:00,
2013-08-09 13:21:00,81.8,74.7,29.99,WSW,241,3.2,12.8,79,0.00,,,0.01,VWS V14.01,2013-08-09 17:21:00,
2013-08-09 13:22:00,81.8,74.7,29.99,WSW,249,9.6,12.8,79,0.00,,,0.01,VWS V14.01,2013-08-09 17:22:00,
2013-08-09 13:23:00,81.9,74.4,29.99,WSW,257,6.4,9.6,78,0.00,,,0.01,VWS V14.01,2013-08-09 17:23:00,
2013-08-09 13:24:00,82.0,74.8,29.99,SW,231,9.6,9.6,79,0.00,,,0.01,VWS V14.01,2013-08-09 17:24:00,
2013-08-09 13:25:00,82.0,74.5,29.99,SW,218,9.6,16.0,78,0.00,,,0.01,VWS V14.01,2013-08-09 17:25:00,
2013-08-09 13:26:00,81.9,74.4,29.99,SW,225,9.6,16.0,78,0.00,,,0.01,VWS V14.01,2013-08-09 17:26:00,
2013-08-09 13:27:00,81.8,73.9,30.00,West,266,8.0,11.2,77,0.00,,,0.01,VWS V14.01,2013-08-09 17:27:00,
2013-08-09 13:28:00,81.7,74.2,30.00,WSW,256,9.6,12.8,78,0.00,,,0.01,VWS V14.01,2013-08-09 17:28:00,
2013-08-09 13:29:00,81.7,74.2,30.00,SW,227,6.4,12.8,78,0.00,,,0.01,VWS V14.01,2013-08-09 17:29:00,
2013-08-09 13:30:00,81.7,74.2,29.99,WSW,245,12.8,12.8,78,0.00,,,0.01,VWS V14.01,2013-08-09 17:30:00,
2013-08-09 13:31:00,81.6,74.5,29.99,WSW,238,11.2,12.8,79,0.00,,,0.01,VWS V14.01,2013-08-09 17:31:00,
2013-08-09 13:32:00,81.6,74.5,30.00,SW,234,4.8,12.8,79,0.00,,,0.01,VWS V14.01,2013-08-09 17:32:00,
2013-08-09 13:33:00,81.6,74.5,30.00,SSW,200,9.6,9.6,79,0.00,,,0.01,VWS V14.01,2013-08-09 17:33:00,
2013-08-09 13:34:00,81.6,74.5,30.00,WSW,255,4.8,9.6,79,0.00,,,0.01,VWS V14.01,2013-08-09 17:34:00,
2013-08-09 13:35:00,81.8,74.7,29.99,SSW,207,6.4,9.6,79,0.00,,,0.01,VWS V14.01,2013-08-09 17:35:00,
2013-08-09 13:36:00,81.8,74.3,29.99,WSW,246,4.8,9.6,78,0.00,,,0.01,VWS V14.01,2013-08-09 17:36:00,
2013-08-09 13:37:00,81.9,74.4,29.99,West,260,8.0,14.4,78,0.00,,,0.01,VWS V14.01,2013-08-09 17:37:00,
2013-08-09 13:38:00,81.9,74.4,29.99,WSW,243,8.0,14.4,78,0.00,,,0.01,VWS V14.01,2013-08-09 17:38:00,
2013-08-09 13:39:00,81.9,74.4,29.99,SW,220,8.0,14.4,78,0.00,,,0.01,VWS V14.01,2013-08-09 17:39:00,
2013-08-09 13:40:00,82.0,74.5,29.99,SW,227,6.4,9.6,78,0.00,,,0.01,VWS V14.01,2013-08-09 17:40:00,
2013-08-09 13:41:00,82.1,74.6,29.99,WSW,249,4.8,9.6,78,0.00,,,0.01,VWS V14.01,2013-08-09 17:41:00,
2013-08-09 13:42:00,82.2,74.7,29.99,WSW,246,3.2,9.6,78,0.00,,,0.01,VWS V14.01,2013-08-09 17:42:00,
2013-08-09 13:43:00,82.4,74.9,29.99,NW,326,3.2,4.8,78,0.00,,,0.01,VWS V14.01,2013-08-09 17:43:00,
2013-08-09 13:44:00,82.5,74.9,29.99,WSW,253,3.2,4.8,78,0.00,,,0.01,VWS V14.01,2013-08-09 17:44:00,
2013-08-09 13:45:00,82.6,75.1,29.99,West,266,8.0,12.8,78,0.00,,,0.01,VWS V14.01,2013-08-09 17:45:00,
2013-08-09 13:46:00,82.5,74.6,29.99,SW,229,8.0,12.8,77,0.00,,,0.01,VWS V14.01,2013-08-09 17:46:00,
2013-08-09 13:47:00,82.5,74.6,29.99,SW,227,8.0,16.0,77,0.00,,,0.01,VWS V14.01,2013-08-09 17:47:00,
2013-08-09 13:48:00,82.4,74.5,29.99,SW,235,3.2,16.0,77,0.00,,,0.01,VWS V14.01,2013-08-09 17:48:00,
2013-08-09 13:49:00,82.3,74.4,29.99,WSW,242,8.0,12.8,77,0.00,,,0.01,VWS V14.01,2013-08-09 17:49:00,
2013-08-09 13:50:00,82.3,74.4,29.99,SW,217,6.4,9.6,77,0.00,,,0.01,VWS V14.01,2013-08-09 17:50:00,
2013-08-09 13:51:00,82.2,74.3,29.99,SW,222,9.6,11.2,77,0.00,,,0.01,VWS V14.01,2013-08-09 17:51:00,
2013-08-09 13:52:00,82.1,74.2,29.99,WSW,257,4.8,11.2,77,0.00,,,0.01,VWS V14.01,2013-08-09 17:52:00,
2013-08-09 13:53:00,82.2,74.3,29.99,WSW,250,3.2,11.2,77,0.00,,,0.01,VWS V14.01,2013-08-09 17:53:00,
2013-08-09 13:54:00,82.2,74.3,29.99,SW,215,4.8,9.6,77,0.00,,,0.01,VWS V14.01,2013-08-09 17:54:00,
2013-08-09 13:55:00,82.3,74.8,29.99,WSW,256,8.0,8.0,78,0.00,,,0.01,VWS V14.01,2013-08-09 17:55:00,
2013-08-09 13:56:00,82.3,74.4,29.99,WSW,247,3.2,11.2,77,0.00,,,0.01,VWS V14.01,2013-08-09 17:56:00,
2013-08-09 13:57:00,82.4,74.9,29.99,West,262,4.8,11.2,78,0.00,,,0.01,VWS V14.01,2013-08-09 17:57:00,
2013-08-09 13:58:00,82.5,74.6,29.99,WSW,249,6.4,11.2,77,0.00,,,0.01,VWS V14.01,2013-08-09 17:58:00,
2013-08-09 13:59:00,82.4,74.5,29.99,SSW,212,9.6,11.2,77,0.00,,,0.01,VWS V14.01,2013-08-09 17:59:00,
2013-08-09 14:00:00,82.4,74.1,29.99,SW,218,12.8,12.8,76,0.00,,,0.01,VWS V14.01,2013-08-09 18:00:00,
2013-08-09 14:01:00,82.4,74.1,29.99,WSW,252,3.2,12.8,76,0.00,,,0.01,VWS V14.01,2013-08-09 18:01:00,
2013-08-09 14:02:00,82.5,74.6,29.99,SSW,207,11.2,12.8,77,0.00,,,0.01,VWS V14.01,2013-08-09 18:02:00,
2013-08-09 14:03:00,82.5,74.2,29.99,WSW,245,8.0,12.8,76,0.00,,,0.01,VWS V14.01,2013-08-09 18:03:00,
2013-08-09 14:04:00,82.5,74.2,29.99,SW,222,9.6,12.8,76,0.00,,,0.01,VWS V14.01,2013-08-09 18:04:00,
2013-08-09 14:05:00,82.5,74.2,29.99,SW,218,6.4,16.0,76,0.00,,,0.01,VWS V14.01,2013-08-09 18:05:00,
2013-08-09 14:06:00,82.6,74.3,29.99,WSW,245,8.0,12.8,76,0.00,,,0.01,VWS V14.01,2013-08-09 18:06:00,
2013-08-09 14:07:00,82.7,74.4,29.99,SSW,208,9.6,11.2,76,0.00,,,0.01,VWS V14.01,2013-08-09 18:07:00,
2013-08-09 14:08:00,82.8,74.5,29.99,SSW,204,8.0,14.4,76,0.00,,,0.01,VWS V14.01,2013-08-09 18:08:00,
2013-08-09 14:09:00,82.8,74.5,29.99,SSW,210,12.8,14.4,76,0.00,,,0.01,VWS V14.01,2013-08-09 18:09:00,
2013-08-09 14:10:00,82.8,74.5,29.99,SW,228,12.8,14.4,76,0.00,,,0.01,VWS V14.01,2013-08-09 18:10:00,
2013-08-09 14:11:00,82.7,74.0,29.99,SW,231,11.2,14.4,75,0.00,,,0.01,VWS V14.01,2013-08-09 18:11:00,
2013-08-09 14:12:00,82.6,73.9,29.99,WSW,248,8.0,14.4,75,0.00,,,0.01,VWS V14.01,2013-08-09 18:12:00,
2013-08-09 14:13:00,82.6,73.9,29.98,SW,215,6.4,14.4,75,0.00,,,0.01,VWS V14.01,2013-08-09 18:13:00,
2013-08-09 14:14:00,82.6,74.3,29.99,SW,220,9.6,11.2,76,0.00,,,0.01,VWS V14.01,2013-08-09 18:14:00,
2013-08-09 14:15:00,82.6,73.9,29.99,SSW,206,6.4,11.2,75,0.00,,,0.01,VWS V14.01,2013-08-09 18:15:00,
2013-08-09 14:16:00,82.5,74.2,29.99,SW,229,6.4,9.6,76,0.00,,,0.01,VWS V14.01,2013-08-09 18:16:00,
2013-08-09 14:17:00,82.5,74.2,29.99,WSW,243,9.6,11.2,76,0.00,,,0.01,VWS V14.01,2013-08-09 18:17:00,
2013-08-09 14:18:00,82.5,74.2,29.99,WSW,241,8.0,11.2,76,0.00,,,0.01,VWS V14.01,2013-08-09 18:18:00,
2013-08-09 14:19:00,82.5,74.2,29.99,West,263,3.2,11.2,76,0.00,,,0.01,VWS V14.01,2013-08-09 18:19:00,
2013-08-09 14:20:00,82.5,74.2,29.99,SW,234,6.4,11.2,76,0.00,,,0.01,VWS V14.01,2013-08-09 18:20:00,
2013-08-09 14:21:00,82.5,74.2,29.99,WSW,256,9.6,14.4,76,0.00,,,0.01,VWS V14.01,2013-08-09 18:21:00,
2013-08-09 14:22:00,82.5,74.2,29.99,SW,236,8.0,14.4,76,0.00,,,0.01,VWS V14.01,2013-08-09 18:22:00,
2013-08-09 14:23:00,82.5,74.2,29.99,SSW,210,12.8,14.4,76,0.00,,,0.01,VWS V14.01,2013-08-09 18:23:00,
2013-08-09 14:24:00,82.5,74.2,29.99,WSW,246,9.6,14.4,76,0.00,,,0.01,VWS V14.01,2013-08-09 18:24:00,
2013-08-09 14:25:00,82.4,74.1,29.99,SW,214,11.2,17.6,76,0.00,,,0.01,VWS V14.01,2013-08-09 18:25:00,
2013-08-09 14:26:00,82.4,74.1,29.98,WSW,250,6.4,17.6,76,0.00,,,0.01,VWS V14.01,2013-08-09 18:26:00,
2013-08-09 14:27:00,82.3,74.0,29.98,SW,234,8.0,16.0,76,0.00,,,0.01,VWS V14.01,2013-08-09 18:27:00,
2013-08-09 14:28:00,82.3,74.0,29.98,WSW,242,3.2,16.0,76,0.00,,,0.01,VWS V14.01,2013-08-09 18:28:00,
2013-08-09 14:29:00,82.3,74.0,29.99,SW,220,3.2,16.0,76,0.00,,,0.01,VWS V14.01,2013-08-09 18:29:00,
2013-08-09 14:30:00,82.4,74.5,29.98,SSW,210,8.0,11.2,77,0.00,,,0.01,VWS V14.01,2013-08-09 18:30:00,
2013-08-09 14:31:00,82.5,74.2,29.98,SW,236,6.4,11.2,76,0.00,,,0.01,VWS V14.01,2013-08-09 18:31:00,
2013-08-09 14:32:00,82.5,74.6,29.98,SW,231,4.8,11.2,77,0.00,,,0.01,VWS V14.01,2013-08-09 18:32:00,
2013-08-09 14:33:00,82.6,74.3,29.98,WSW,241,8.0,11.2,76,0.00,,,0.01,VWS V14.01,2013-08-09 18:33:00,
2013-08-09 14:34:00,82.6,74.3,29.98,SW,236,1.6,11.2,76,0.00,,,0.01,VWS V14.01,2013-08-09 18:34:00,
2013-08-09 14:35:00,82.7,74.4,29.98,SW,218,6.4,9.6,76,0.00,,,0.01,VWS V14.01,2013-08-09 18:35:00,
2013-08-09 14:36:00,82.7,74.4,29.98,WSW,250,3.2,9.6,76,0.00,,,0.01,VWS V14.01,2013-08-09 18:36:00,
2013-08-09 14:37:00,82.8,74.5,29.98,WSW,249,6.4,8.0,76,0.00,,,0.01,VWS V14.01,2013-08-09 18:37:00,
2013-08-09 14:38:00,82.9,74.6,29.98,SW,232,4.8,8.0,76,0.00,,,0.01,VWS V14.01,2013-08-09 18:38:00,
2013-08-09 14:39:00,82.9,74.9,29.98,SW,234,8.0,9.6,77,0.00,,,0.01,VWS V14.01,2013-08-09 18:39:00,
2013-08-09 14:40:00,83.0,74.7,29.98,WSW,242,8.0,14.4,76,0.00,,,0.01,VWS V14.01,2013-08-09 18:40:00,
2013-08-09 14:41:00,82.9,74.6,29.98,WSW,246,14.4,14.4,76,0.00,,,0.01,VWS V14.01,2013-08-09 18:41:00,
2013-08-09 14:42:00,82.9,74.2,29.98,WSW,243,8.0,14.4,75,0.00,,,0.01,VWS V14.01,2013-08-09 18:42:00,
2013-08-09 14:43:00,82.8,74.5,29.98,WSW,239,9.6,16.0,76,0.00,,,0.01,VWS V14.01,2013-08-09 18:43:00,
2013-08-09 14:44:00,82.8,74.5,29.98,WSW,239,9.6,16.0,76,0.00,,,0.01,VWS V14.01,2013-08-09 18:44:00,
2013-08-09 14:45:00,82.7,74.8,29.98,SSW,204,12.8,16.0,77,0.00,,,0.01,VWS V14.01,2013-08-09 18:45:00,
2013-08-09 14:46:00,82.6,74.3,29.98,SW,215,8.0,12.8,76,0.00,,,0.01,VWS V14.01,2013-08-09 18:46:00,
2013-08-09 14:47:00,82.5,74.2,29.98,SSW,198,11.2,16.0,76,0.00,,,0.01,VWS V14.01,2013-08-09 18:47:00,
2013-08-09 14:48:00,82.5,74.6,29.98,SW,231,1.6,16.0,77,0.00,,,0.01,VWS V14.01,2013-08-09 18:48:00,
2013-08-09 14:49:00,82.5,74.6,29.98,West,263,6.4,12.8,77,0.00,,,0.01,VWS V14.01,2013-08-09 18:49:00,
2013-08-09 14:50:00,82.6,74.3,29.98,SSW,212,9.6,14.4,76,0.00,,,0.01,VWS V14.01,2013-08-09 18:50:00,
2013-08-09 14:51:00,82.5,74.2,29.98,SW,225,6.4,14.4,76,0.00,,,0.01,VWS V14.01,2013-08-09 18:51:00,
2013-08-09 14:52:00,82.5,74.2,29.98,WSW,250,4.8,11.2,76,0.00,,,0.01,VWS V14.01,2013-08-09 18:52:00,
2013-08-09 14:53:00,82.6,74.3,29.98,SW,236,8.0,9.6,76,0.00,,,0.01,VWS V14.01,2013-08-09 18:53:00,
2013-08-09 14:54:00,82.7,74.4,29.98,WSW,238,6.4,9.6,76,0.00,,,0.01,VWS V14.01,2013-08-09 18:54:00,
2013-08-09 14:55:00,82.7,74.4,29.98,SW,224,9.6,9.6,76,0.00,,,0.01,VWS V14.01,2013-08-09 18:55:00,
2013-08-09 14:56:00,82.8,74.9,29.98,SW,232,4.8,9.6,77,0.00,,,0.01,VWS V14.01,2013-08-09 18:56:00,
2013-08-09 14:57:00,82.8,74.5,29.98,WSW,249,3.2,8.0,76,0.00,,,0.01,VWS V14.01,2013-08-09 18:57:00,
2013-08-09 14:58:00,82.9,74.6,29.98,SW,217,9.6,11.2,76,0.00,,,0.01,VWS V14.01,2013-08-09 18:58:00,
2013-08-09 14:59:00,82.9,74.6,29.98,SW,225,6.4,11.2,76,0.00,,,0.01,VWS V14.01,2013-08-09 18:59:00,
2013-08-09 15:00:00,83.0,75.1,29.98,West,261,4.8,11.2,77,0.00,,,0.01,VWS V14.01,2013-08-09 19:00:00,
2013-08-09 15:01:00,83.0,74.7,29.98,WSW,245,3.2,9.6,76,0.00,,,0.01,VWS V14.01,2013-08-09 19:01:00,
2013-08-09 15:02:00,83.1,74.8,29.98,SSW,205,12.8,12.8,76,0.00,,,0.01,VWS V14.01,2013-08-09 19:02:00,
2013-08-09 15:03:00,83.2,74.8,29.98,West,268,4.8,12.8,76,0.00,,,0.01,VWS V14.01,2013-08-09 19:03:00,
2013-08-09 15:04:00,83.2,74.8,29.98,West,267,9.6,12.8,76,0.00,,,0.01,VWS V14.01,2013-08-09 19:04:00,
2013-08-09 15:05:00,83.3,74.6,29.98,WSW,238,9.6,11.2,75,0.00,,,0.01,VWS V14.01,2013-08-09 19:05:00,
2013-08-09 15:06:00,83.3,74.6,29.98,SSW,204,4.8,9.6,75,0.00,,,0.01,VWS V14.01,2013-08-09 19:06:00,
2013-08-09 15:07:00,83.4,74.7,29.98,SW,236,4.8,11.2,75,0.00,,,0.01,VWS V14.01,2013-08-09 19:07:00,
2013-08-09 15:08:00,83.4,74.7,29.98,WSW,250,6.4,11.2,75,0.00,,,0.01,VWS V14.01,2013-08-09 19:08:00,
2013-08-09 15:09:00,83.4,74.7,29.98,West,266,4.8,11.2,75,0.00,,,0.01,VWS V14.01,2013-08-09 19:09:00,
2013-08-09 15:10:00,83.8,75.0,29.98,SW,231,8.0,8.0,75,0.00,,,0.01,VWS V14.01,2013-08-09 19:10:00,
2013-08-09 15:11:00,84.0,75.2,29.98,WSW,247,12.8,12.8,75,0.00,,,0.01,VWS V14.01,2013-08-09 19:11:00,
2013-08-09 15:12:00,84.1,74.9,29.98,WSW,258,3.2,12.8,74,0.00,,,0.01,VWS V14.01,2013-08-09 19:12:00,
2013-08-09 15:13:00,84.2,75.4,29.98,West,279,3.2,8.0,75,0.00,,,0.01,VWS V14.01,2013-08-09 19:13:00,
2013-08-09 15:14:00,84.2,75.4,29.98,West,269,3.2,6.4,75,0.00,,,0.01,VWS V14.01,2013-08-09 19:14:00,
2013-08-09 15:15:00,84.4,74.8,29.98,WSW,248,3.2,12.8,73,0.00,,,0.01,VWS V14.01,2013-08-09 19:15:00,
2013-08-09 15:16:00,84.5,75.3,29.98,WSW,243,11.2,11.2,74,0.00,,,0.01,VWS V14.01,2013-08-09 19:16:00,
2013-08-09 15:17:00,84.4,74.8,29.98,WSW,245,6.4,16.0,73,0.00,,,0.01,VWS V14.01,2013-08-09 19:17:00,
2013-08-09 15:18:00,84.3,73.9,29.98,West,260,6.4,16.0,71,0.00,,,0.01,VWS V14.01,2013-08-09 19:18:00,
2013-08-09 15:19:00,84.3,74.3,29.98,West,263,4.8,16.0,72,0.00,,,0.01,VWS V14.01,2013-08-09 19:19:00,
2013-08-09 15:20:00,84.3,74.7,29.98,WSW,238,9.6,11.2,73,0.00,,,0.01,VWS V14.01,2013-08-09 19:20:00,
2013-08-09 15:21:00,84.3,74.3,29.98,WSW,253,1.6,9.6,72,0.00,,,0.01,VWS V14.01,2013-08-09 19:21:00,
2013-08-09 15:22:00,84.3,74.7,29.98,West,280,3.2,9.6,73,0.00,,,0.01,VWS V14.01,2013-08-09 19:22:00,
2013-08-09 15:23:00,84.5,74.9,29.98,West,259,6.4,6.4,73,0.00,,,0.01,VWS V14.01,2013-08-09 19:23:00,
2013-08-09 15:24:00,84.5,74.9,29.98,West,267,8.0,8.0,73,0.00,,,0.01,VWS V14.01,2013-08-09 19:24:00,
2013-08-09 15:25:00,84.3,74.3,29.98,WSW,250,9.6,12.8,72,0.00,,,0.01,VWS V14.01,2013-08-09 19:25:00,
2013-08-09 15:26:00,84.2,74.2,29.98,SSW,208,9.6,12.8,72,0.00,,,0.01,VWS V14.01,2013-08-09 19:26:00,
2013-08-09 15:27:00,84.1,74.1,29.98,WSW,245,4.8,12.8,72,0.00,,,0.01,VWS V14.01,2013-08-09 19:27:00,
2013-08-09 15:28:00,83.9,73.9,29.98,SW,225,8.0,12.8,72,0.00,,,0.01,VWS V14.01,2013-08-09 19:28:00,
2013-08-09 15:29:00,83.8,73.8,29.98,WSW,252,6.4,11.2,72,0.00,,,0.01,VWS V14.01,2013-08-09 19:29:00,
2013-08-09 15:30:00,83.7,74.1,29.98,SW,228,8.0,11.2,73,0.00,,,0.01,VWS V14.01,2013-08-09 19:30:00,
2013-08-09 15:31:00,83.6,73.6,29.98,West,266,1.6,11.2,72,0.00,,,0.01,VWS V14.01,2013-08-09 19:31:00,
2013-08-09 15:32:00,83.6,74.0,29.98,West,269,1.6,8.0,73,0.00,,,0.01,VWS V14.01,2013-08-09 19:32:00,
2013-08-09 15:33:00,83.8,74.6,29.98,West,280,4.8,4.8,74,0.00,,,0.01,VWS V14.01,2013-08-09 19:33:00,
2013-08-09 15:34:00,83.9,74.7,29.98,WNW,286,1.6,4.8,74,0.00,,,0.01,VWS V14.01,2013-08-09 19:34:00,
2013-08-09 15:35:00,84.0,74.8,29.98,NNE,28,4.8,6.4,74,0.00,,,0.01,VWS V14.01,2013-08-09 19:35:00,
2013-08-09 15:36:00,84.0,74.0,29.98,North,352,9.6,9.6,72,0.00,,,0.01,VWS V14.01,2013-08-09 19:36:00,
2013-08-09 15:37:00,83.6,73.2,29.98,NNE,22,4.8,9.6,71,0.00,,,0.01,VWS V14.01,2013-08-09 19:37:00,
2013-08-09 15:38:00,82.7,72.8,29.98,North,8,16.0,16.0,72,0.00,,,0.01,VWS V14.01,2013-08-09 19:38:00,
2013-08-09 15:39:00,82.2,72.7,29.98,NNE,20,16.0,22.4,73,0.00,,,0.01,VWS V14.01,2013-08-09 19:39:00,
2013-08-09 15:40:00,81.4,72.3,29.98,North,360,6.4,22.4,74,0.00,,,0.01,VWS V14.01,2013-08-09 19:40:00,
2013-08-09 15:41:00,80.7,72.0,29.98,NNE,16,11.2,20.8,75,0.00,,,0.01,VWS V14.01,2013-08-09 19:41:00,
2013-08-09 15:42:00,80.2,71.9,29.99,NNE,23,14.4,16.0,76,0.00,,,0.01,VWS V14.01,2013-08-09 19:42:00,
2013-08-09 15:43:00,79.7,72.2,29.99,NNW,347,9.6,16.0,78,0.00,,,0.01,VWS V14.01,2013-08-09 19:43:00,
2013-08-09 15:44:00,79.4,71.9,29.99,NNE,18,9.6,16.0,78,0.00,,,0.01,VWS V14.01,2013-08-09 19:44:00,
2013-08-09 15:45:00,79.2,72.1,29.99,ENE,66,6.4,16.0,79,0.00,,,0.01,VWS V14.01,2013-08-09 19:45:00,
2013-08-09 15:46:00,79.0,72.3,29.99,NNE,28,8.0,14.4,80,0.00,,,0.01,VWS V14.01,2013-08-09 19:46:00,
2013-08-09 15:47:00,78.7,72.0,29.99,NW,326,9.6,14.4,80,0.00,,,0.01,VWS V14.01,2013-08-09 19:47:00,
2013-08-09 15:48:00,78.5,72.2,29.99,NNE,26,4.8,14.4,81,0.00,,,0.01,VWS V14.01,2013-08-09 19:48:00,
2013-08-09 15:49:00,78.5,72.6,29.99,NNE,28,4.8,14.4,82,0.00,,,0.01,VWS V14.01,2013-08-09 19:49:00,
2013-08-09 15:50:00,78.4,72.4,29.99,NNE,20,4.8,9.6,82,0.00,,,0.01,VWS V14.01,2013-08-09 19:50:00,
2013-08-09 15:51:00,78.3,72.4,29.99,ENE,63,4.8,11.2,82,0.00,,,0.01,VWS V14.01,2013-08-09 19:51:00,
2013-08-09 15:52:00,78.3,72.4,29.99,ENE,61,12.8,12.8,82,0.00,,,0.01,VWS V14.01,2013-08-09 19:52:00,
2013-08-09 15:53:00,78.3,72.7,29.99,NNE,21,6.4,12.8,83,0.00,,,0.01,VWS V14.01,2013-08-09 19:53:00,
2013-08-09 15:54:00,78.3,72.7,29.99,North,8,6.4,9.6,83,0.00,,,0.01,VWS V14.01,2013-08-09 19:54:00,
2013-08-09 15:55:00,78.3,72.7,29.99,NW,313,12.8,16.0,83,0.00,,,0.01,VWS V14.01,2013-08-09 19:55:00,
2013-08-09 15:56:00,78.1,72.5,29.99,North,352,8.0,16.0,83,0.00,,,0.01,VWS V14.01,2013-08-09 19:56:00,
2013-08-09 15:57:00,78.1,72.5,29.99,NNW,336,8.0,12.8,83,0.00,,,0.01,VWS V14.01,2013-08-09 19:57:00,
2013-08-09 15:58:00,78.2,72.6,29.99,NE,38,4.8,11.2,83,0.00,,,0.01,VWS V14.01,2013-08-09 19:58:00,
2013-08-09 15:59:00,78.3,72.7,29.99,North,9,9.6,9.6,83,0.00,,,0.01,VWS V14.01,2013-08-09 19:59:00,
2013-08-09 16:00:00,78.3,72.7,29.99,NNE,22,9.6,14.4,83,0.00,,,0.01,VWS V14.01,2013-08-09 20:00:00,
2013-08-09 16:01:00,78.3,72.7,29.98,NNE,18,8.0,14.4,83,0.00,,,0.01,VWS V14.01,2013-08-09 20:01:00,
2013-08-09 16:02:00,78.3,72.7,29.98,NNE,27,3.2,11.2,83,0.00,,,0.01,VWS V14.01,2013-08-09 20:02:00,
2013-08-09 16:03:00,78.3,72.7,29.98,North,350,11.2,14.4,83,0.00,,,0.01,VWS V14.01,2013-08-09 20:03:00,
2013-08-09 16:04:00,78.3,72.7,29.98,NNE,33,9.6,16.0,83,0.00,,,0.01,VWS V14.01,2013-08-09 20:04:00,
2013-08-09 16:05:00,78.1,72.2,29.99,NNE,33,17.6,17.6,82,0.00,,,0.01,VWS V14.01,2013-08-09 20:05:00,
2013-08-09 16:06:00,78.0,72.1,29.99,North,5,12.8,17.6,82,0.00,,,0.01,VWS V14.01,2013-08-09 20:06:00,
2013-08-09 16:07:00,77.8,71.9,29.99,East,87,11.2,17.6,82,0.00,,,0.01,VWS V14.01,2013-08-09 20:07:00,
2013-08-09 16:08:00,77.7,71.8,29.99,NE,53,3.2,16.0,82,0.00,,,0.01,VWS V14.01,2013-08-09 20:08:00,
2013-08-09 16:09:00,77.6,72.0,29.99,NNE,13,11.2,16.0,83,0.00,,,0.01,VWS V14.01,2013-08-09 20:09:00,
2013-08-09 16:10:00,77.5,71.9,29.99,NNE,12,11.2,16.0,83,0.00,,,0.01,VWS V14.01,2013-08-09 20:10:00,
2013-08-09 16:11:00,77.4,71.8,29.99,NNE,13,12.8,16.0,83,0.00,,,0.01,VWS V14.01,2013-08-09 20:11:00,
2013-08-09 16:12:00,77.3,72.1,29.99,North,355,3.2,14.4,84,0.00,,,0.01,VWS V14.01,2013-08-09 20:12:00,
2013-08-09 16:13:00,77.2,72.0,29.99,NW,319,3.2,8.0,84,0.00,,,0.01,VWS V14.01,2013-08-09 20:13:00,
2013-08-09 16:14:00,77.2,72.0,29.99,North,353,6.4,9.6,84,0.00,,,0.01,VWS V14.01,2013-08-09 20:14:00,
2013-08-09 16:15:00,77.1,71.9,29.99,WNW,286,6.4,9.6,84,0.00,,,0.01,VWS V14.01,2013-08-09 20:15:00,
2013-08-09 16:16:00,76.9,71.7,29.99,NW,311,9.6,14.4,84,0.00,,,0.01,VWS V14.01,2013-08-09 20:16:00,
2013-08-09 16:17:00,76.8,71.6,29.99,NNE,13,4.8,14.4,84,0.00,,,0.01,VWS V14.01,2013-08-09 20:17:00,
2013-08-09 16:18:00,76.7,71.9,29.99,North,11,4.8,9.6,85,0.00,,,0.01,VWS V14.01,2013-08-09 20:18:00,
2013-08-09 16:19:00,76.5,71.7,29.99,NNE,24,8.0,11.2,85,0.00,,,0.01,VWS V14.01,2013-08-09 20:19:00,
2013-08-09 16:20:00,76.4,71.9,29.98,NNW,346,11.2,11.2,86,0.01,,,0.02,VWS V14.01,2013-08-09 20:20:00,
2013-08-09 16:21:00,76.2,71.7,29.98,NE,49,3.2,11.2,86,0.02,,,0.03,VWS V14.01,2013-08-09 20:21:00,
2013-08-09 16:22:00,76.0,71.9,29.99,NNE,17,6.4,9.6,87,0.03,,,0.04,VWS V14.01,2013-08-09 20:22:00,
2013-08-09 16:23:00,75.8,71.7,29.99,NNE,25,1.6,9.6,87,0.04,,,0.05,VWS V14.01,2013-08-09 20:23:00,
2013-08-09 16:24:00,75.7,71.6,29.99,North,5,1.6,6.4,87,0.05,,,0.06,VWS V14.01,2013-08-09 20:24:00,
2013-08-09 16:25:00,75.5,71.7,29.99,NNE,24,1.6,8.0,88,0.06,,,0.07,VWS V14.01,2013-08-09 20:25:00,
2013-08-09 16:26:00,75.3,71.5,29.99,NE,35,3.2,8.0,88,0.08,,,0.09,VWS V14.01,2013-08-09 20:26:00,
2013-08-09 16:27:00,75.2,71.7,29.99,NNE,26,6.4,6.4,89,0.14,,,0.15,VWS V14.01,2013-08-09 20:27:00,
2013-08-09 16:28:00,75.0,71.5,29.99,NNE,17,11.2,11.2,89,0.17,,,0.18,VWS V14.01,2013-08-09 20:28:00,
2013-08-09 16:29:00,74.9,71.4,29.99,North,352,4.8,11.2,89,0.19,,,0.20,VWS V14.01,2013-08-09 20:29:00,
2013-08-09 16:30:00,74.7,71.2,29.99,North,8,1.6,11.2,89,0.23,,,0.24,VWS V14.01,2013-08-09 20:30:00,
2013-08-09 16:31:00,74.6,71.5,29.99,NNE,23,1.6,4.8,90,0.25,,,0.26,VWS V14.01,2013-08-09 20:31:00,
2013-08-09 16:32:00,74.5,71.4,29.99,North,353,0.0,3.2,90,0.26,,,0.27,VWS V14.01,2013-08-09 20:32:00,
2013-08-09 16:33:00,74.4,71.6,29.99,NW,321,3.2,3.2,91,0.26,,,0.27,VWS V14.01,2013-08-09 20:33:00,
2013-08-09 16:34:00,74.3,71.5,29.99,NW,305,3.2,3.2,91,0.27,,,0.28,VWS V14.01,2013-08-09 20:34:00,
2013-08-09 16:35:00,74.2,71.4,30.00,WNW,300,1.6,3.2,91,0.27,,,0.28,VWS V14.01,2013-08-09 20:35:00,
2013-08-09 16:36:00,74.2,71.7,30.00,WNW,296,3.2,3.2,92,0.29,,,0.30,VWS V14.01,2013-08-09 20:36:00,
2013-08-09 16:37:00,74.1,71.6,30.00,WNW,299,1.6,3.2,92,0.31,,,0.32,VWS V14.01,2013-08-09 20:37:00,
2013-08-09 16:38:00,74.1,71.6,30.00,NW,324,3.2,3.2,92,0.32,,,0.33,VWS V14.01,2013-08-09 20:38:00,
2013-08-09 16:39:00,74.0,71.5,30.00,NNW,327,1.6,3.2,92,0.34,,,0.35,VWS V14.01,2013-08-09 20:39:00,
2013-08-09 16:40:00,74.0,71.5,30.00,NNW,328,1.6,3.2,92,0.36,,,0.37,VWS V14.01,2013-08-09 20:40:00,
2013-08-09 16:41:00,74.0,71.8,30.00,NNW,340,1.6,3.2,93,0.38,,,0.39,VWS V14.01,2013-08-09 20:41:00,
2013-08-09 16:42:00,74.0,71.8,29.99,North,2,1.6,3.2,93,0.39,,,0.40,VWS V14.01,2013-08-09 20:42:00,
2013-08-09 16:43:00,74.0,71.8,30.00,North,9,0.0,4.8,93,0.40,,,0.41,VWS V14.01,2013-08-09 20:43:00,
2013-08-09 16:44:00,74.0,71.8,30.00,WNW,293,4.8,4.8,93,0.40,,,0.41,VWS V14.01,2013-08-09 20:44:00,
2013-08-09 16:45:00,73.9,71.8,30.00,North,355,4.8,4.8,93,0.40,,,0.41,VWS V14.01,2013-08-09 20:45:00,
2013-08-09 16:46:00,73.8,71.3,30.00,NNE,33,6.4,8.0,92,0.40,,,0.41,VWS V14.01,2013-08-09 20:46:00,
2013-08-09 16:47:00,73.8,71.3,29.99,ENE,57,6.4,8.0,92,0.40,,,0.41,VWS V14.01,2013-08-09 20:47:00,
2013-08-09 16:48:00,73.8,71.3,29.99,NE,55,3.2,8.0,92,0.40,,,0.41,VWS V14.01,2013-08-09 20:48:00,
2013-08-09 16:49:00,73.8,71.3,29.98,NE,49,3.2,8.0,92,0.40,,,0.41,VWS V14.01,2013-08-09 20:49:00,
2013-08-09 16:50:00,73.8,71.3,29.98,NE,47,3.2,4.8,92,0.40,,,0.41,VWS V14.01,2013-08-09 20:50:00,
2013-08-09 16:51:00,73.9,71.4,29.98,NE,53,3.2,3.2,92,0.40,,,0.41,VWS V14.01,2013-08-09 20:51:00,
2013-08-09 16:52:00,73.9,71.4,29.99,NE,51,1.6,3.2,92,0.40,,,0.41,VWS V14.01,2013-08-09 20:52:00,
2013-08-09 16:53:00,74.0,71.5,29.99,NE,55,0.0,3.2,92,0.40,,,0.41,VWS V14.01,2013-08-09 20:53:00,
2013-08-09 16:54:00,74.1,71.6,29.99,NE,55,0.0,3.2,92,0.40,,,0.41,VWS V14.01,2013-08-09 20:54:00,
2013-08-09 16:55:00,74.2,72.1,29.99,ENE,57,3.2,3.2,93,0.40,,,0.41,VWS V14.01,2013-08-09 20:55:00,
2013-08-09 16:56:00,74.3,71.8,29.99,NE,55,1.6,3.2,92,0.40,,,0.41,VWS V14.01,2013-08-09 20:56:00,
2013-08-09 16:57:00,74.4,71.9,29.99,East,82,1.6,3.2,92,0.40,,,0.41,VWS V14.01,2013-08-09 20:57:00,
2013-08-09 16:58:00,74.4,72.2,29.99,ENE,68,3.2,3.2,93,0.40,,,0.41,VWS V14.01,2013-08-09 20:58:00,
2013-08-09 16:59:00,74.5,72.3,29.99,East,83,3.2,3.2,93,0.40,,,0.41,VWS V14.01,2013-08-09 20:59:00,
2013-08-09 17:00:00,74.6,72.4,29.99,ENE,77,3.2,3.2,93,0.40,,,0.41,VWS V14.01,2013-08-09 21:00:00,
2013-08-09 17:01:00,74.6,72.4,29.99,ENE,77,0.0,3.2,93,0.40,,,0.41,VWS V14.01,2013-08-09 21:01:00,
2013-08-09 17:02:00,74.6,72.1,29.99,ENE,64,3.2,4.8,92,0.40,,,0.41,VWS V14.01,2013-08-09 21:02:00,
2013-08-09 17:03:00,74.7,72.2,29.99,ENE,75,0.0,4.8,92,0.40,,,0.41,VWS V14.01,2013-08-09 21:03:00,
2013-08-09 17:04:00,74.7,72.2,29.99,ENE,72,1.6,3.2,92,0.40,,,0.41,VWS V14.01,2013-08-09 21:04:00,
2013-08-09 17:05:00,74.8,72.3,29.99,East,80,1.6,3.2,92,0.40,,,0.41,VWS V14.01,2013-08-09 21:05:00,
2013-08-09 17:06:00,74.8,72.3,29.99,East,80,1.6,3.2,92,0.40,,,0.41,VWS V14.01,2013-08-09 21:06:00,
2013-08-09 17:07:00,74.9,72.7,29.99,East,80,0.0,1.6,93,0.40,,,0.41,VWS V14.01,2013-08-09 21:07:00,
2013-08-09 17:08:00,75.0,72.8,29.99,NE,50,3.2,3.2,93,0.40,,,0.41,VWS V14.01,2013-08-09 21:08:00,
2013-08-09 17:09:00,75.0,72.5,29.99,East,85,1.6,3.2,92,0.40,,,0.41,VWS V14.01,2013-08-09 21:09:00,
2013-08-09 17:10:00,75.1,72.6,29.99,ENE,73,1.6,3.2,92,0.40,,,0.41,VWS V14.01,2013-08-09 21:10:00,
2013-08-09 17:11:00,75.1,72.6,29.99,ENE,73,0.0,3.2,92,0.40,,,0.41,VWS V14.01,2013-08-09 21:11:00,
2013-08-09 17:12:00,75.2,72.7,29.99,ENE,73,0.0,1.6,92,0.40,,,0.41,VWS V14.01,2013-08-09 21:12:00,
2013-08-09 17:13:00,75.2,72.7,29.99,ENE,73,0.0,0.0,92,0.40,,,0.41,VWS V14.01,2013-08-09 21:13:00,
2013-08-09 17:14:00,75.3,72.8,29.99,ENE,57,3.2,3.2,92,0.40,,,0.41,VWS V14.01,2013-08-09 21:14:00,
2013-08-09 17:15:00,75.3,72.8,29.99,ENE,71,1.6,3.2,92,0.40,,,0.41,VWS V14.01,2013-08-09 21:15:00,
2013-08-09 17:16:00,75.4,72.6,29.99,NE,42,1.6,3.2,91,0.40,,,0.41,VWS V14.01,2013-08-09 21:16:00,
2013-08-09 17:17:00,75.4,72.9,29.99,NE,42,3.2,3.2,92,0.40,,,0.41,VWS V14.01,2013-08-09 21:17:00,
2013-08-09 17:18:00,75.4,72.9,29.99,ENE,60,1.6,3.2,92,0.40,,,0.41,VWS V14.01,2013-08-09 21:18:00,
2013-08-09 17:19:00,75.5,72.7,29.99,ENE,60,0.0,3.2,91,0.40,,,0.41,VWS V14.01,2013-08-09 21:19:00,
2013-08-09 17:20:00,75.5,72.7,29.99,ENE,59,1.6,1.6,91,0.40,,,0.41,VWS V14.01,2013-08-09 21:20:00,
2013-08-09 17:21:00,75.5,72.7,29.99,ENE,60,0.0,1.6,91,0.39,,,0.41,VWS V14.01,2013-08-09 21:21:00,
2013-08-09 17:22:00,75.5,72.7,29.99,ENE,60,0.0,1.6,91,0.38,,,0.41,VWS V14.01,2013-08-09 21:22:00,
2013-08-09 17:23:00,75.6,72.8,29.99,ENE,60,0.0,1.6,91,0.37,,,0.41,VWS V14.01,2013-08-09 21:23:00,
2013-08-09 17:24:00,75.7,72.9,29.99,ENE,66,0.0,1.6,91,0.36,,,0.41,VWS V14.01,2013-08-09 21:24:00,
2013-08-09 17:25:00,75.8,73.3,29.99,ENE,65,0.0,1.6,92,0.35,,,0.41,VWS V14.01,2013-08-09 21:25:00,
2013-08-09 17:26:00,76.0,73.5,29.99,ENE,66,1.6,1.6,92,0.34,,,0.41,VWS V14.01,2013-08-09 21:26:00,
2013-08-09 17:27:00,76.2,73.7,29.99,ENE,66,0.0,1.6,92,0.32,,,0.41,VWS V14.01,2013-08-09 21:27:00,
2013-08-09 17:28:00,76.3,73.8,29.98,SSE,163,1.6,1.6,92,0.26,,,0.41,VWS V14.01,2013-08-09 21:28:00,
2013-08-09 17:29:00,76.4,73.6,29.99,SSW,193,0.0,3.2,91,0.23,,,0.41,VWS V14.01,2013-08-09 21:29:00,
2013-08-09 17:30:00,76.5,73.7,29.99,SSW,194,0.0,3.2,91,0.21,,,0.41,VWS V14.01,2013-08-09 21:30:00,
2013-08-09 17:31:00,76.5,73.7,29.99,SSE,163,1.6,1.6,91,0.17,,,0.41,VWS V14.01,2013-08-09 21:31:00,
2013-08-09 17:32:00,76.6,73.8,29.99,ESE,118,1.6,1.6,91,0.15,,,0.41,VWS V14.01,2013-08-09 21:32:00,
2013-08-09 17:33:00,76.7,73.9,29.99,ESE,118,0.0,1.6,91,0.14,,,0.41,VWS V14.01,2013-08-09 21:33:00,
2013-08-09 17:34:00,76.8,74.0,29.99,East,101,1.6,1.6,91,0.14,,,0.41,VWS V14.01,2013-08-09 21:34:00,
2013-08-09 17:35:00,76.8,74.0,29.99,ESE,103,0.0,1.6,91,0.13,,,0.41,VWS V14.01,2013-08-09 21:35:00,
2013-08-09 17:36:00,76.9,74.1,29.99,ESE,103,0.0,1.6,91,0.13,,,0.41,VWS V14.01,2013-08-09 21:36:00,
2013-08-09 17:37:00,76.9,73.8,29.99,ENE,58,0.0,1.6,90,0.11,,,0.41,VWS V14.01,2013-08-09 21:37:00,
2013-08-09 17:38:00,76.8,73.7,29.99,ENE,58,0.0,1.6,90,0.09,,,0.41,VWS V14.01,2013-08-09 21:38:00,
2013-08-09 17:39:00,76.8,73.7,29.99,ENE,58,0.0,1.6,90,0.08,,,0.41,VWS V14.01,2013-08-09 21:39:00,
2013-08-09 17:40:00,76.8,73.7,29.99,ESE,107,3.2,3.2,90,0.06,,,0.41,VWS V14.01,2013-08-09 21:40:00,
2013-08-09 17:41:00,76.8,73.7,29.99,ESE,120,0.0,3.2,90,0.04,,,0.41,VWS V14.01,2013-08-09 21:41:00,
2013-08-09 17:42:00,76.7,73.6,29.99,ENE,63,1.6,3.2,90,0.02,,,0.41,VWS V14.01,2013-08-09 21:42:00,
2013-08-09 17:43:00,76.7,73.6,29.99,ENE,64,1.6,1.6,90,0.01,,,0.41,VWS V14.01,2013-08-09 21:43:00,
2013-08-09 17:44:00,76.7,73.6,29.99,ENE,64,1.6,1.6,90,0.00,,,0.41,VWS V14.01,2013-08-09 21:44:00,
2013-08-09 17:45:00,76.6,73.4,29.99,ESE,117,0.0,4.8,90,0.00,,,0.41,VWS V14.01,2013-08-09 21:45:00,
2013-08-09 17:46:00,76.6,73.4,29.99,ESE,114,0.0,4.8,90,0.00,,,0.41,VWS V14.01,2013-08-09 21:46:00,
2013-08-09 17:47:00,76.6,73.4,29.99,ESE,112,0.0,3.2,90,0.00,,,0.41,VWS V14.01,2013-08-09 21:47:00,
2013-08-09 17:48:00,76.5,73.3,29.99,ESE,120,0.0,3.2,90,0.00,,,0.41,VWS V14.01,2013-08-09 21:48:00,
2013-08-09 17:49:00,76.5,73.3,29.99,ENE,73,0.0,3.2,90,0.00,,,0.41,VWS V14.01,2013-08-09 21:49:00,
2013-08-09 17:50:00,76.5,73.3,29.99,ENE,72,0.0,0.0,90,0.00,,,0.41,VWS V14.01,2013-08-09 21:50:00,
2013-08-09 17:51:00,76.5,73.3,29.99,East,94,0.0,3.2,90,0.00,,,0.41,VWS V14.01,2013-08-09 21:51:00,
2013-08-09 17:52:00,76.5,73.3,29.98,East,94,0.0,3.2,90,0.00,,,0.41,VWS V14.01,2013-08-09 21:52:00,
2013-08-09 17:53:00,76.5,73.7,29.98,SSE,157,0.0,3.2,91,0.00,,,0.41,VWS V14.01,2013-08-09 21:53:00,
2013-08-09 17:54:00,76.5,73.7,29.98,ENE,69,3.2,3.2,91,0.00,,,0.41,VWS V14.01,2013-08-09 21:54:00,
2013-08-09 17:55:00,76.5,73.7,29.98,ENE,73,1.6,4.8,91,0.00,,,0.41,VWS V14.01,2013-08-09 21:55:00,
2013-08-09 17:56:00,76.4,73.6,29.98,ENE,73,0.0,4.8,91,0.00,,,0.41,VWS V14.01,2013-08-09 21:56:00,
2013-08-09 17:57:00,76.3,73.5,29.98,ENE,73,0.0,1.6,91,0.00,,,0.41,VWS V14.01,2013-08-09 21:57:00,
2013-08-09 17:58:00,76.3,73.5,29.98,ENE,73,0.0,1.6,91,0.00,,,0.41,VWS V14.01,2013-08-09 21:58:00,
2013-08-09 17:59:00,76.3,73.5,29.98,ENE,73,0.0,1.6,91,0.00,,,0.41,VWS V14.01,2013-08-09 21:59:00,
2013-08-09 18:00:00,76.3,73.5,29.98,ENE,73,1.6,1.6,91,0.00,,,0.41,VWS V14.01,2013-08-09 22:00:00,
2013-08-09 18:01:00,76.3,73.5,29.98,ENE,73,0.0,1.6,91,0.00,,,0.41,VWS V14.01,2013-08-09 22:01:00,
2013-08-09 18:02:00,76.3,73.5,29.98,ENE,73,0.0,1.6,91,0.00,,,0.41,VWS V14.01,2013-08-09 22:02:00,
2013-08-09 18:03:00,76.4,73.6,29.98,ENE,69,0.0,0.0,91,0.00,,,0.41,VWS V14.01,2013-08-09 22:03:00,
2013-08-09 18:04:00,76.4,73.6,29.98,ENE,69,0.0,0.0,91,0.00,,,0.41,VWS V14.01,2013-08-09 22:04:00,
2013-08-09 18:05:00,76.5,73.7,29.98,ENE,69,0.0,0.0,91,0.00,,,0.41,VWS V14.01,2013-08-09 22:05:00,
2013-08-09 18:06:00,76.5,73.7,29.98,ENE,69,1.6,1.6,91,0.00,,,0.41,VWS V14.01,2013-08-09 22:06:00,
2013-08-09 18:07:00,76.4,73.2,29.98,SW,220,1.6,3.2,90,0.00,,,0.41,VWS V14.01,2013-08-09 22:07:00,
2013-08-09 18:08:00,76.4,73.2,29.98,SW,220,1.6,3.2,90,0.00,,,0.41,VWS V14.01,2013-08-09 22:08:00,
2013-08-09 18:09:00,76.4,73.2,29.98,SW,221,1.6,3.2,90,0.00,,,0.41,VWS V14.01,2013-08-09 22:09:00,
2013-08-09 18:10:00,76.3,73.5,29.98,SW,220,1.6,1.6,91,0.00,,,0.41,VWS V14.01,2013-08-09 22:10:00,
2013-08-09 18:11:00,76.3,73.5,29.99,SW,224,1.6,1.6,91,0.00,,,0.41,VWS V14.01,2013-08-09 22:11:00,
2013-08-09 18:12:00,76.3,73.5,29.99,SW,224,1.6,1.6,91,0.00,,,0.41,VWS V14.01,2013-08-09 22:12:00,
2013-08-09 18:13:00,76.3,73.5,29.99,SW,224,0.0,1.6,91,0.00,,,0.41,VWS V14.01,2013-08-09 22:13:00,
2013-08-09 18:14:00,76.3,73.5,29.99,SW,224,1.6,1.6,91,0.00,,,0.41,VWS V14.01,2013-08-09 22:14:00,
2013-08-09 18:15:00,76.3,73.5,29.99,SW,222,0.0,3.2,91,0.00,,,0.41,VWS V14.01,2013-08-09 22:15:00,
2013-08-09 18:16:00,76.3,73.5,29.99,SW,222,0.0,3.2,91,0.00,,,0.41,VWS V14.01,2013-08-09 22:16:00,
2013-08-09 18:17:00,76.4,73.6,29.99,SW,235,1.6,1.6,91,0.00,,,0.41,VWS V14.01,2013-08-09 22:17:00,
2013-08-09 18:18:00,76.4,73.6,29.99,SW,232,1.6,1.6,91,0.00,,,0.41,VWS V14.01,2013-08-09 22:18:00,
2013-08-09 18:19:00,76.4,73.6,29.99,SW,225,1.6,3.2,91,0.01,,,0.42,VWS V14.01,2013-08-09 22:19:00,
2013-08-09 18:20:00,76.5,73.7,29.98,SSW,213,1.6,3.2,91,0.01,,,0.42,VWS V14.01,2013-08-09 22:20:00,
2013-08-09 18:21:00,76.5,73.7,29.98,SW,218,0.0,1.6,91,0.01,,,0.42,VWS V14.01,2013-08-09 22:21:00,
2013-08-09 18:22:00,76.5,73.7,29.98,East,85,1.6,1.6,91,0.01,,,0.42,VWS V14.01,2013-08-09 22:22:00,
2013-08-09 18:23:00,76.6,73.8,29.98,ESE,117,1.6,1.6,91,0.01,,,0.42,VWS V14.01,2013-08-09 22:23:00,
2013-08-09 18:24:00,76.6,73.8,29.98,ESE,114,0.0,1.6,91,0.01,,,0.42,VWS V14.01,2013-08-09 22:24:00,
2013-08-09 18:25:00,76.6,73.8,29.99,ESE,117,0.0,3.2,91,0.01,,,0.42,VWS V14.01,2013-08-09 22:25:00,
2013-08-09 18:26:00,76.7,73.9,29.98,ESE,120,1.6,3.2,91,0.01,,,0.42,VWS V14.01,2013-08-09 22:26:00,
2013-08-09 18:27:00,76.7,73.9,29.99,SW,223,1.6,3.2,91,0.01,,,0.42,VWS V14.01,2013-08-09 22:27:00,
2013-08-09 18:28:00,76.7,73.9,29.99,SW,217,1.6,3.2,91,0.01,,,0.42,VWS V14.01,2013-08-09 22:28:00,
2013-08-09 18:29:00,76.8,74.3,29.99,SW,217,1.6,3.2,92,0.01,,,0.42,VWS V14.01,2013-08-09 22:29:00,
2013-08-09 18:30:00,76.8,74.0,29.99,SW,217,0.0,1.6,91,0.01,,,0.42,VWS V14.01,2013-08-09 22:30:00,
2013-08-09 18:31:00,76.8,74.3,29.99,SW,217,0.0,0.0,92,0.01,,,0.42,VWS V14.01,2013-08-09 22:31:00,
2013-08-09 18:32:00,76.9,74.4,29.99,SW,217,0.0,0.0,92,0.01,,,0.42,VWS V14.01,2013-08-09 22:32:00,
2013-08-09 18:33:00,77.0,74.5,29.99,SW,217,0.0,0.0,92,0.01,,,0.42,VWS V14.01,2013-08-09 22:33:00,
2013-08-09 18:34:00,77.0,74.2,29.99,SW,217,0.0,0.0,91,0.01,,,0.42,VWS V14.01,2013-08-09 22:34:00,
2013-08-09 18:35:00,77.0,74.2,29.99,SW,218,0.0,1.6,91,0.01,,,0.42,VWS V14.01,2013-08-09 22:35:00,
2013-08-09 18:36:00,77.0,74.2,29.99,North,0,0.0,0.0,91,0.00,,,0.41,VWS V14.01,2013-08-09 22:36:00,
2013-08-09 18:37:00,77.0,74.2,29.99,North,0,0.0,0.0,91,0.00,,,0.41,VWS V14.01,2013-08-09 22:37:00,
2013-08-09 18:38:00,77.1,74.3,29.99,North,0,0.0,0.0,91,0.00,,,0.41,VWS V14.01,2013-08-09 22:38:00,
2013-08-09 18:39:00,77.1,74.3,29.99,SW,225,1.6,3.2,91,0.00,,,0.41,VWS V14.01,2013-08-09 22:39:00,
2013-08-09 18:40:00,77.1,74.3,29.99,SW,225,1.6,3.2,91,0.00,,,0.41,VWS V14.01,2013-08-09 22:40:00,
2013-08-09 18:41:00,77.1,73.9,29.99,SSW,202,1.6,3.2,90,0.00,,,0.41,VWS V14.01,2013-08-09 22:41:00,
2013-08-09 18:42:00,77.1,73.9,29.99,SSW,202,0.0,1.6,90,0.00,,,0.41,VWS V14.01,2013-08-09 22:42:00,
2013-08-09 18:43:00,77.1,73.9,29.99,SSW,202,0.0,1.6,90,0.00,,,0.41,VWS V14.01,2013-08-09 22:43:00,
2013-08-09 18:44:00,77.1,73.9,29.99,SSW,202,0.0,1.6,90,0.00,,,0.41,VWS V14.01,2013-08-09 22:44:00,
2013-08-09 18:45:00,77.1,73.9,29.99,SSW,202,1.6,1.6,90,0.00,,,0.41,VWS V14.01,2013-08-09 22:45:00,
2013-08-09 18:46:00,77.1,73.9,29.99,SSW,202,1.6,1.6,90,0.00,,,0.41,VWS V14.01,2013-08-09 22:46:00,
2013-08-09 18:47:00,77.1,73.9,29.99,SSW,202,0.0,0.0,90,0.00,,,0.41,VWS V14.01,2013-08-09 22:47:00,
2013-08-09 18:48:00,77.1,73.9,29.99,SSW,202,0.0,0.0,90,0.00,,,0.41,VWS V14.01,2013-08-09 22:48:00,
2013-08-09 18:49:00,77.1,73.9,29.99,SSW,202,0.0,0.0,90,0.00,,,0.41,VWS V14.01,2013-08-09 22:49:00,
2013-08-09 18:50:00,77.2,74.0,29.99,SSW,202,0.0,1.6,90,0.00,,,0.41,VWS V14.01,2013-08-09 22:50:00,
2013-08-09 18:51:00,77.2,74.0,29.98,SSW,202,0.0,1.6,90,0.00,,,0.41,VWS V14.01,2013-08-09 22:51:00,
2013-08-09 18:52:00,77.2,74.0,29.99,SSW,202,0.0,0.0,90,0.00,,,0.41,VWS V14.01,2013-08-09 22:52:00,
2013-08-09 18:53:00,77.2,74.0,29.99,SSW,202,0.0,0.0,90,0.00,,,0.41,VWS V14.01,2013-08-09 22:53:00,
2013-08-09 18:54:00,77.2,74.0,29.98,SSW,202,0.0,1.6,90,0.00,,,0.41,VWS V14.01,2013-08-09 22:54:00,
2013-08-09 18:55:00,77.2,73.7,29.99,SSW,202,1.6,1.6,89,0.00,,,0.41,VWS V14.01,2013-08-09 22:55:00,
2013-08-09 18:56:00,77.2,74.0,29.99,SSW,202,0.0,0.0,90,0.00,,,0.41,VWS V14.01,2013-08-09 22:56:00,
2013-08-09 18:57:00,77.2,74.0,29.98,SSW,202,0.0,1.6,90,0.00,,,0.41,VWS V14.01,2013-08-09 22:57:00,
2013-08-09 19:10:00,77.3,74.5,29.98,West,270,0.0,1.6,91,0.00,,,0.41,VWS V14.01,2013-08-09 23:10:00,
2013-08-09 19:15:00,77.5,74.3,29.98,North,2,0.0,3.2,90,0.01,,,0.42,VWS V14.01,2013-08-09 23:15:00,
2013-08-09 19:20:00,77.4,74.2,29.97,North,2,0.0,1.6,90,0.00,,,0.42,VWS V14.01,2013-08-09 23:20:00,
2013-08-09 19:25:00,77.4,74.6,29.98,North,2,0.0,0.0,91,0.00,,,0.42,VWS V14.01,2013-08-09 23:25:00,
2013-08-09 19:30:00,77.3,74.5,29.98,ENE,58,0.0,0.0,91,0.00,,,0.42,VWS V14.01,2013-08-09 23:30:00,
2013-08-09 19:35:00,77.3,74.5,29.98,SSW,210,0.0,1.6,91,0.00,,,0.42,VWS V14.01,2013-08-09 23:35:00,
2013-08-09 19:40:00,77.3,74.5,29.98,SW,215,1.6,3.2,91,0.01,,,0.42,VWS V14.01,2013-08-09 23:40:00,
2013-08-09 19:45:00,77.3,74.5,29.98,SW,231,0.0,1.6,91,0.01,,,0.42,VWS V14.01,2013-08-09 23:45:00,
2013-08-09 19:50:00,77.3,74.5,29.98,SW,232,0.0,1.6,91,0.01,,,0.42,VWS V14.01,2013-08-09 23:50:00,
2013-08-09 19:55:00,77.2,74.4,29.98,WSW,248,0.0,0.0,91,0.01,,,0.42,VWS V14.01,2013-08-09 23:55:00,
2013-08-09 20:00:00,77.2,74.7,29.98,WSW,248,0.0,0.0,92,0.01,,,0.42,VWS V14.01,2013-08-10 00:00:00,
2013-08-09 20:05:00,77.0,74.5,29.99,WSW,247,1.6,1.6,92,0.01,,,0.42,VWS V14.01,2013-08-10 00:05:00,
2013-08-09 20:10:00,76.8,74.3,30.00,WSW,245,1.6,3.2,92,0.00,,,0.42,VWS V14.01,2013-08-10 00:10:00,
2013-08-09 20:15:00,76.7,74.2,30.00,WSW,239,3.2,4.8,92,0.00,,,0.42,VWS V14.01,2013-08-10 00:15:00,
2013-08-09 20:20:00,76.6,74.1,30.00,WSW,241,0.0,1.6,92,0.00,,,0.42,VWS V14.01,2013-08-10 00:20:00,
2013-08-09 20:25:00,76.6,74.1,30.00,WSW,246,0.0,1.6,92,0.00,,,0.42,VWS V14.01,2013-08-10 00:25:00,
2013-08-09 20:30:00,76.5,74.0,30.00,SSW,212,0.0,3.2,92,0.00,,,0.42,VWS V14.01,2013-08-10 00:30:00,
2013-08-09 20:35:00,76.4,74.2,30.00,WSW,241,0.0,1.6,93,0.00,,,0.42,VWS V14.01,2013-08-10 00:35:00,
2013-08-09 20:40:00,76.4,74.2,30.00,WSW,250,0.0,1.6,93,0.00,,,0.42,VWS V14.01,2013-08-10 00:40:00,
2013-08-09 20:45:00,76.3,74.1,30.01,WSW,250,0.0,0.0,93,0.00,,,0.42,VWS V14.01,2013-08-10 00:45:00,
2013-08-09 20:50:00,76.3,74.1,30.01,WSW,250,1.6,1.6,93,0.00,,,0.42,VWS V14.01,2013-08-10 00:50:00,
2013-08-09 20:55:00,76.2,74.0,30.01,SW,215,1.6,3.2,93,0.00,,,0.42,VWS V14.01,2013-08-10 00:55:00,
2013-08-09 21:00:00,76.1,73.9,30.01,South,186,0.0,1.6,93,0.00,,,0.42,VWS V14.01,2013-08-10 01:00:00,
2013-08-09 21:05:00,76.1,73.9,30.01,SW,233,1.6,1.6,93,0.00,,,0.42,VWS V14.01,2013-08-10 01:05:00,
2013-08-09 21:10:00,76.0,73.5,30.01,SW,225,1.6,3.2,92,0.00,,,0.42,VWS V14.01,2013-08-10 01:10:00,
2013-08-09 21:15:00,76.0,73.5,30.01,SW,218,1.6,3.2,92,0.00,,,0.42,VWS V14.01,2013-08-10 01:15:00,
2013-08-09 21:20:00,76.0,73.5,30.02,SW,230,1.6,3.2,92,0.00,,,0.42,VWS V14.01,2013-08-10 01:20:00,
2013-08-09 21:25:00,76.0,73.5,30.02,SW,235,0.0,1.6,92,0.00,,,0.42,VWS V14.01,2013-08-10 01:25:00,
2013-08-09 21:30:00,75.9,73.4,30.02,SW,235,0.0,1.6,92,0.00,,,0.42,VWS V14.01,2013-08-10 01:30:00,
2013-08-09 21:35:00,75.9,73.4,30.02,SW,234,0.0,0.0,92,0.00,,,0.42,VWS V14.01,2013-08-10 01:35:00,
2013-08-09 21:40:00,75.7,73.2,30.02,SW,235,0.0,0.0,92,0.00,,,0.42,VWS V14.01,2013-08-10 01:40:00,
2013-08-09 21:45:00,75.7,73.2,30.02,SW,235,0.0,0.0,92,0.00,,,0.42,VWS V14.01,2013-08-10 01:45:00,
2013-08-09 21:50:00,75.6,73.4,30.02,SW,235,0.0,0.0,93,0.00,,,0.42,VWS V14.01,2013-08-10 01:50:00,
2013-08-09 21:55:00,75.5,73.3,30.03,SW,234,0.0,0.0,93,0.00,,,0.42,VWS V14.01,2013-08-10 01:55:00,
2013-08-09 22:00:00,75.4,73.2,30.03,SW,234,0.0,1.6,93,0.00,,,0.42,VWS V14.01,2013-08-10 02:00:00,
2013-08-09 22:05:00,75.3,73.1,30.03,SW,235,0.0,1.6,93,0.00,,,0.42,VWS V14.01,2013-08-10 02:05:00,
2013-08-09 22:10:00,75.2,73.0,30.04,WSW,245,0.0,1.6,93,0.00,,,0.42,VWS V14.01,2013-08-10 02:10:00,
2013-08-09 22:15:00,75.2,73.0,30.04,WSW,245,0.0,0.0,93,0.00,,,0.42,VWS V14.01,2013-08-10 02:15:00,
2013-08-09 22:20:00,75.1,72.9,30.03,SSW,212,1.6,1.6,93,0.00,,,0.42,VWS V14.01,2013-08-10 02:20:00,
2013-08-09 22:25:00,75.0,72.8,30.03,SE,144,1.6,1.6,93,0.00,,,0.42,VWS V14.01,2013-08-10 02:25:00,
2013-08-09 22:30:00,75.0,72.8,30.03,SE,139,0.0,0.0,93,0.00,,,0.42,VWS V14.01,2013-08-10 02:30:00,
2013-08-09 22:35:00,74.9,72.7,30.03,SE,138,0.0,0.0,93,0.00,,,0.42,VWS V14.01,2013-08-10 02:35:00,
2013-08-09 22:40:00,74.8,72.6,30.03,SE,139,0.0,0.0,93,0.00,,,0.42,VWS V14.01,2013-08-10 02:40:00,
2013-08-09 22:45:00,74.8,72.6,30.03,SE,138,0.0,0.0,93,0.00,,,0.42,VWS V14.01,2013-08-10 02:45:00,
2013-08-09 22:50:00,74.7,72.6,30.03,SE,138,0.0,0.0,93,0.00,,,0.42,VWS V14.01,2013-08-10 02:50:00,
2013-08-09 22:55:00,74.7,72.9,30.03,South,182,1.6,3.2,94,0.00,,,0.42,VWS V14.01,2013-08-10 02:55:00,
2013-08-09 23:00:00,74.7,72.9,30.04,WSW,254,1.6,1.6,94,0.00,,,0.42,VWS V14.01,2013-08-10 03:00:00,
2013-08-09 23:05:00,74.7,72.9,30.04,SW,220,3.2,6.4,94,0.00,,,0.42,VWS V14.01,2013-08-10 03:05:00,
2013-08-09 23:10:00,74.6,72.4,30.04,SW,227,1.6,4.8,93,0.00,,,0.42,VWS V14.01,2013-08-10 03:10:00,
2013-08-09 23:15:00,74.6,72.4,30.04,SW,220,3.2,3.2,93,0.00,,,0.42,VWS V14.01,2013-08-10 03:15:00,
2013-08-09 23:20:00,74.5,72.3,30.04,West,261,1.6,3.2,93,0.00,,,0.42,VWS V14.01,2013-08-10 03:20:00,
2013-08-09 23:25:00,74.4,72.2,30.04,WSW,240,0.0,3.2,93,0.00,,,0.42,VWS V14.01,2013-08-10 03:25:00,
2013-08-09 23:30:00,74.4,72.2,30.04,SSW,212,0.0,1.6,93,0.00,,,0.42,VWS V14.01,2013-08-10 03:30:00,
2013-08-09 23:35:00,74.3,72.2,30.04,SW,236,0.0,1.6,93,0.00,,,0.42,VWS V14.01,2013-08-10 03:35:00,
2013-08-09 23:40:00,74.3,72.2,30.05,WSW,243,0.0,1.6,93,0.00,,,0.42,VWS V14.01,2013-08-10 03:40:00,
2013-08-09 23:45:00,74.2,72.4,30.04,WSW,243,1.6,3.2,94,0.00,,,0.42,VWS V14.01,2013-08-10 03:45:00,
2013-08-09 23:50:00,74.2,72.4,30.05,West,268,1.6,1.6,94,0.00,,,0.42,VWS V14.01,2013-08-10 03:50:00,
2013-08-09 23:55:00,74.2,72.4,30.04,West,268,0.0,1.6,94,0.00,,,0.42,VWS V14.01,2013-08-10 03:55:00,